[[{"header":{"parameterUnit":"m.s-1","parameterCategory":1,"la1":30.6,"la2":29.2853,"lo1":-89.7004,"lo2":-87.6739,"dy":0.0162,"dx":0.0183,"nx":112,"ny":82,"refTime":"2024-08-17T00:00:00:Z","depth":0,"parameterNumber":2,"parameterNumberName":"U-component_of_WINDS"},"data":[0.0,0.0,0.0,0.0,0.0,0.0,0.0,0.0,0.0,0.0,0.0,0.0,0.0,0.0,0.0,0.0,0.0,0.0,0.0,0.0,0.0,0.0,0.0,0.0,0.0,0.0,0.0,0.0,0.0,0.0,0.0,0.0,0.0,0.0,0.0,0.0,0.0,0.0,0.0,0.0,0.0,0.0,0.0,0.0,0.0,0.0,0.0,0.0,0.0,0.0,0.0,0.0,0.0,0.0,0.0,0.0,0.0,0.0,0.0,0.0,0.0,0.0,0.0,0.0,0.0,0.0,0.0,0.0,0.0,0.0,0.0,0.0,0.0,0.0,0.0,0.0,0.0,0.0,0.0,0.0,0.0,0.0,0.0,0.0,0.0,0.0,0.0,0.0,0.0,0.0,0.0,-3.4324,-3.8773,-4.1333,-4.1009,-4.0213,-3.7944,-3.3827,0.0,0.0,0.0,0.0,0.0,0.0,0.0,0.0,0.0,0.0,0.0,0.0,0.0,0.0,0.0,0.0,0.0,0.0,0.0,0.0,0.0,0.0,0.0,0.0,0.0,0.0,0.0,0.0,0.0,0.0,0.0,0.0,0.0,0.0,0.0,0.0,0.0,0.0,0.0,0.0,0.0,0.0,0.0,0.0,0.0,0.0,0.0,0.0,0.0,0.0,0.0,0.0,0.0,0.0,0.0,0.0,0.0,0.0,0.0,0.0,0.0,0.0,0.0,0.0,0.0,0.0,0.0,0.0,0.0,0.0,0.0,0.0,0.0,0.0,0.0,0.0,0.0,0.0,0.0,0.0,0.0,0.0,0.0,0.0,0.0,0.0,0.0,0.0,0.0,0.0,0.0,0.0,0.0,0.0,0.0,0.0,0.0,0.0,0.0,0.0,0.0,0.0,0.0,0.0,-3.1032,-3.6441,-3.8766,-4.0071,-4.0388,-3.9201,-3.69,-3.3186,0.0,0.0,0.0,0.0,0.0,0.0,0.0,0.0,0.0,0.0,0.0,0.0,0.0,0.0,0.0,0.0,0.0,0.0,0.0,0.0,0.0,0.0,0.0,0.0,0.0,0.0,0.0,0.0,0.0,0.0,0.0,0.0,0.0,0.0,0.0,0.0,0.0,0.0,0.0,0.0,0.0,0.0,0.0,0.0,0.0,0.0,0.0,0.0,0.0,0.0,0.0,0.0,0.0,0.0,0.0,0.0,0.0,0.0,0.0,0.0,0.0,0.0,0.0,0.0,0.0,0.0,0.0,0.0,0.0,0.0,0.0,0.0,0.0,0.0,0.0,0.0,0.0,0.0,0.0,0.0,0.0,0.0,0.0,0.0,0.0,0.0,0.0,0.0,0.0,0.0,0.0,0.0,0.0,0.0,0.0,0.0,0.0,0.0,0.0,0.0,0.0,0.0,0.0,-2.9669,-3.2423,-3.6269,-3.7766,-3.8681,-3.9026,-3.7531,-3.5244,-3.2064,-2.9675,0.0,0.0,0.0,0.0,0.0,0.0,0.0,0.0,0.0,0.0,0.0,0.0,0.0,0.0,0.0,0.0,0.0,0.0,0.0,0.0,0.0,0.0,0.0,0.0,0.0,0.0,0.0,0.0,0.0,0.0,0.0,0.0,0.0,0.0,0.0,0.0,0.0,0.0,0.0,0.0,0.0,0.0,0.0,0.0,0.0,0.0,0.0,0.0,0.0,0.0,0.0,0.0,0.0,0.0,0.0,0.0,0.0,0.0,0.0,0.0,0.0,0.0,0.0,0.0,0.0,0.0,0.0,0.0,0.0,0.0,0.0,0.0,0.0,0.0,0.0,0.0,0.0,0.0,0.0,0.0,0.0,0.0,0.0,0.0,0.0,0.0,0.0,0.0,0.0,0.0,0.0,0.0,0.0,0.0,0.0,0.0,0.0,0.0,0.0,0.0,0.0,0.0,-3.0999,-3.3353,-3.56,-3.6691,-3.7349,-3.7579,-3.5986,-3.3677,-3.0778,-2.8188,0.0,0.0,0.0,0.0,0.0,0.0,0.0,0.0,0.0,0.0,0.0,0.0,0.0,0.0,0.0,0.0,0.0,0.0,0.0,0.0,0.0,0.0,0.0,0.0,0.0,0.0,0.0,0.0,0.0,0.0,0.0,0.0,0.0,0.0,0.0,0.0,0.0,0.0,0.0,0.0,0.0,0.0,0.0,0.0,0.0,0.0,0.0,0.0,0.0,0.0,0.0,0.0,0.0,0.0,0.0,0.0,0.0,0.0,0.0,0.0,0.0,0.0,0.0,0.0,0.0,0.0,0.0,0.0,0.0,0.0,0.0,0.0,0.0,0.0,0.0,0.0,0.0,0.0,0.0,0.0,0.0,0.0,0.0,0.0,0.0,0.0,0.0,0.0,0.0,0.0,0.0,0.0,0.0,0.0,0.0,0.0,0.0,0.0,0.0,0.0,0.0,0.0,-3.0435,-3.2717,-3.5077,-3.5881,-3.6309,-3.6469,-3.5026,-3.2665,-2.9264,-2.7017,0.0,0.0,0.0,0.0,0.0,0.0,0.0,0.0,0.0,0.0,0.0,0.0,0.0,0.0,0.0,0.0,0.0,0.0,0.0,0.0,0.0,0.0,0.0,0.0,0.0,0.0,0.0,0.0,0.0,0.0,0.0,0.0,0.0,0.0,0.0,0.0,0.0,0.0,0.0,0.0,0.0,0.0,0.0,0.0,0.0,0.0,0.0,0.0,0.0,0.0,0.0,0.0,0.0,0.0,0.0,0.0,0.0,0.0,0.0,0.0,0.0,0.0,0.0,0.0,0.0,0.0,0.0,0.0,0.0,0.0,0.0,0.0,0.0,0.0,0.0,0.0,0.0,0.0,0.0,0.0,0.0,0.0,0.0,0.0,0.0,0.0,0.0,0.0,0.0,0.0,0.0,0.0,0.0,0.0,0.0,0.0,0.0,0.0,0.0,0.0,0.0,0.0,-3.035,-3.2403,0.0,-3.4969,-3.5332,-3.5381,-3.3635,-3.144,-2.8826,0.0,0.0,0.0,0.0,0.0,0.0,0.0,0.0,0.0,0.0,0.0,0.0,0.0,0.0,0.0,0.0,0.0,0.0,0.0,0.0,0.0,0.0,0.0,0.0,0.0,0.0,0.0,0.0,0.0,0.0,0.0,0.0,0.0,0.0,0.0,0.0,0.0,0.0,0.0,0.0,0.0,0.0,0.0,0.0,0.0,0.0,0.0,0.0,0.0,0.0,0.0,0.0,0.0,0.0,0.0,0.0,0.0,0.0,0.0,0.0,0.0,0.0,0.0,0.0,0.0,0.0,0.0,0.0,0.0,0.0,0.0,0.0,0.0,0.0,0.0,0.0,0.0,0.0,0.0,0.0,0.0,0.0,0.0,0.0,0.0,0.0,0.0,0.0,0.0,0.0,0.0,0.0,0.0,0.0,0.0,0.0,0.0,0.0,0.0,0.0,0.0,0.0,-2.8102,-3.035,-3.2274,0.0,-3.4462,-3.4715,-3.4546,-3.2791,-3.0657,-2.8162,0.0,0.0,0.0,0.0,0.0,0.0,0.0,0.0,0.0,0.0,0.0,0.0,0.0,0.0,0.0,0.0,0.0,0.0,0.0,0.0,0.0,0.0,0.0,0.0,0.0,0.0,0.0,0.0,0.0,0.0,0.0,0.0,0.0,0.0,0.0,0.0,0.0,0.0,0.0,0.0,0.0,0.0,0.0,0.0,0.0,0.0,0.0,0.0,0.0,0.0,0.0,0.0,0.0,0.0,0.0,0.0,0.0,0.0,0.0,0.0,0.0,0.0,0.0,0.0,0.0,0.0,0.0,0.0,0.0,0.0,0.0,0.0,0.0,0.0,0.0,0.0,0.0,0.0,0.0,0.0,0.0,0.0,0.0,0.0,0.0,0.0,0.0,0.0,0.0,0.0,0.0,0.0,0.0,0.0,0.0,0.0,0.0,0.0,0.0,0.0,0.0,0.0,-2.8102,-3.035,-3.2274,-3.3814,-3.4462,-3.457,-3.403,-3.2575,-3.0314,0.0,0.0,0.0,0.0,0.0,0.0,0.0,0.0,0.0,0.0,0.0,0.0,0.0,0.0,0.0,0.0,0.0,0.0,0.0,0.0,0.0,0.0,0.0,0.0,0.0,0.0,0.0,0.0,0.0,0.0,0.0,0.0,0.0,0.0,0.0,0.0,0.0,0.0,0.0,0.0,0.0,0.0,0.0,0.0,0.0,0.0,0.0,0.0,0.0,0.0,0.0,0.0,0.0,0.0,0.0,0.0,0.0,0.0,0.0,0.0,0.0,0.0,0.0,0.0,0.0,0.0,0.0,0.0,0.0,0.0,0.0,0.0,0.0,0.0,0.0,0.0,0.0,0.0,0.0,0.0,0.0,0.0,0.0,0.0,0.0,0.0,0.0,0.0,0.0,0.0,0.0,0.0,0.0,0.0,0.0,0.0,0.0,0.0,0.0,0.0,0.0,0.0,0.0,-2.8102,-3.035,-3.2142,-3.338,-3.4306,-3.4475,-3.3585,-3.2415,-3.047,-2.763,0.0,0.0,0.0,0.0,0.0,0.0,0.0,0.0,0.0,0.0,0.0,0.0,0.0,0.0,0.0,0.0,0.0,0.0,0.0,0.0,0.0,0.0,0.0,0.0,0.0,0.0,0.0,0.0,0.0,0.0,0.0,0.0,0.0,0.0,0.0,0.0,0.0,0.0,0.0,0.0,0.0,0.0,0.0,0.0,0.0,0.0,0.0,0.0,0.0,0.0,0.0,0.0,0.0,0.0,0.0,0.0,0.0,0.0,0.0,0.0,0.0,0.0,0.0,0.0,0.0,0.0,0.0,0.0,0.0,0.0,0.0,0.0,0.0,0.0,0.0,0.0,0.0,0.0,0.0,0.0,0.0,0.0,0.0,0.0,0.0,0.0,0.0,0.0,0.0,0.0,0.0,0.0,0.0,0.0,0.0,0.0,0.0,0.0,0.0,0.0,0.0,0.0,-2.8414,-3.0494,-3.2199,-3.3452,-3.433,-3.445,-3.3657,-3.2611,-3.0951,-2.8498,0.0,0.0,0.0,0.0,0.0,0.0,0.0,0.0,0.0,0.0,0.0,0.0,0.0,0.0,0.0,0.0,0.0,0.0,0.0,0.0,0.0,0.0,0.0,0.0,0.0,0.0,0.0,0.0,0.0,0.0,0.0,0.0,0.0,0.0,0.0,0.0,0.0,0.0,0.0,0.0,0.0,0.0,0.0,0.0,0.0,0.0,0.0,0.0,0.0,0.0,0.0,0.0,0.0,0.0,0.0,0.0,0.0,0.0,0.0,0.0,0.0,0.0,0.0,0.0,0.0,0.0,0.0,0.0,0.0,0.0,0.0,0.0,0.0,0.0,0.0,0.0,0.0,0.0,0.0,0.0,0.0,0.0,0.0,0.0,0.0,0.0,0.0,0.0,0.0,0.0,0.0,0.0,0.0,0.0,0.0,0.0,0.0,0.0,0.0,0.0,0.0,0.0,-2.8907,-3.0724,-3.2274,-3.3849,-3.4462,-3.457,-3.4042,-3.3092,-3.1601,-2.9508,0.0,0.0,0.0,0.0,0.0,0.0,0.0,0.0,0.0,0.0,0.0,0.0,0.0,0.0,0.0,0.0,0.0,0.0,0.0,0.0,0.0,0.0,0.0,0.0,0.0,0.0,0.0,0.0,0.0,0.0,0.0,0.0,0.0,0.0,0.0,0.0,0.0,0.0,0.0,0.0,0.0,0.0,0.0,0.0,0.0,0.0,0.0,0.0,0.0,0.0,0.0,0.0,0.0,0.0,0.0,0.0,0.0,0.0,0.0,0.0,-2.945,0.0,0.0,0.0,0.0,0.0,0.0,0.0,0.0,0.0,0.0,0.0,0.0,0.0,0.0,0.0,0.0,0.0,0.0,0.0,0.0,0.0,0.0,0.0,0.0,0.0,0.0,0.0,0.0,0.0,0.0,0.0,0.0,0.0,0.0,0.0,0.0,0.0,0.0,0.0,0.0,0.0,-2.8881,-3.0681,-3.2283,-3.3823,-3.4499,-3.457,-3.4042,-3.3092,-3.1757,-3.0025,-2.8318,0.0,0.0,0.0,0.0,0.0,0.0,0.0,0.0,0.0,0.0,0.0,0.0,0.0,0.0,0.0,0.0,0.0,0.0,0.0,0.0,0.0,0.0,0.0,0.0,0.0,0.0,0.0,0.0,0.0,0.0,0.0,0.0,0.0,0.0,0.0,0.0,0.0,0.0,0.0,0.0,0.0,0.0,0.0,0.0,0.0,0.0,0.0,0.0,0.0,0.0,0.0,0.0,0.0,0.0,0.0,0.0,0.0,0.0,0.0,0.0,-3.1642,0.0,0.0,0.0,0.0,0.0,0.0,0.0,0.0,0.0,0.0,0.0,0.0,0.0,0.0,0.0,0.0,0.0,0.0,0.0,0.0,0.0,0.0,0.0,0.0,0.0,0.0,0.0,0.0,0.0,0.0,0.0,0.0,0.0,0.0,0.0,0.0,0.0,0.0,0.0,0.0,-2.9702,-3.1246,-3.2692,-3.421,-3.4619,-3.4667,-3.439,-3.3477,-3.2406,-3.1312,-2.9508,0.0,0.0,0.0,0.0,0.0,0.0,0.0,0.0,0.0,0.0,0.0,0.0,0.0,0.0,0.0,0.0,0.0,0.0,0.0,0.0,0.0,0.0,0.0,0.0,0.0,0.0,0.0,0.0,0.0,0.0,0.0,0.0,0.0,0.0,0.0,0.0,0.0,0.0,0.0,0.0,0.0,0.0,0.0,0.0,0.0,0.0,0.0,0.0,0.0,0.0,0.0,0.0,0.0,0.0,-3.7748,-3.8302,-3.8204,-3.8405,-3.8739,-3.6148,-3.5009,-3.4911,0.0,0.0,0.0,0.0,0.0,0.0,0.0,0.0,0.0,0.0,0.0,0.0,0.0,0.0,0.0,0.0,0.0,0.0,0.0,0.0,0.0,0.0,0.0,0.0,0.0,-3.1587,-3.1157,0.0,0.0,0.0,0.0,0.0,0.0,0.0,0.0,0.0,0.0,0.0,0.0,-3.0573,-3.1817,-3.3104,-3.4619,-3.4775,-3.4775,-3.4775,-3.3885,-3.3056,-3.2527,-3.0663,-2.9051,0.0,0.0,0.0,0.0,0.0,0.0,0.0,0.0,0.0,0.0,0.0,0.0,0.0,0.0,0.0,0.0,0.0,0.0,0.0,0.0,0.0,0.0,0.0,0.0,0.0,0.0,0.0,0.0,0.0,0.0,0.0,0.0,-2.5397,-2.6905,0.0,0.0,0.0,0.0,0.0,0.0,0.0,0.0,0.0,0.0,0.0,0.0,0.0,0.0,-3.743,-3.8175,-3.8922,-3.9709,-4.0432,-4.1029,-4.1494,-4.1468,-4.1512,-4.1555,-4.1149,0.0,-3.7339,-3.6043,0.0,0.0,0.0,0.0,0.0,0.0,0.0,0.0,0.0,0.0,0.0,0.0,0.0,0.0,0.0,0.0,0.0,0.0,0.0,0.0,0.0,0.0,-3.278,-3.3345,-3.3884,-3.3991,0.0,-3.086,-2.8724,-2.7554,0.0,0.0,0.0,0.0,0.0,0.0,0.0,0.0,-3.061,-3.1825,-3.3104,-3.4619,-3.4775,-3.4775,-3.4775,-3.3885,-3.3056,-3.2527,-3.1348,-2.9989,-2.8474,-2.7693,0.0,0.0,0.0,0.0,0.0,0.0,0.0,0.0,0.0,0.0,0.0,0.0,0.0,0.0,0.0,0.0,0.0,0.0,0.0,0.0,0.0,0.0,0.0,0.0,0.0,0.0,0.0,0.0,0.0,-2.5558,-2.7341,-2.9434,-2.9248,-2.9227,0.0,0.0,0.0,0.0,0.0,0.0,0.0,0.0,0.0,-3.7094,-3.8152,-3.8962,-3.9483,-4.0783,-4.1554,-4.1867,-4.2536,-4.296,-4.3166,-4.3166,-4.3166,-4.3166,-4.3166,-4.2304,-4.0762,-3.8667,-3.7505,-3.6844,0.0,0.0,0.0,0.0,0.0,-3.2828,-3.256,0.0,0.0,0.0,0.0,0.0,0.0,0.0,0.0,0.0,0.0,0.0,0.0,0.0,0.0,-3.4718,-3.524,-3.5491,-3.4939,-3.3784,-3.2276,0.0,-2.9334,-2.8498,-2.7237,0.0,0.0,0.0,0.0,0.0,-3.1962,-3.2881,-3.3835,-3.5089,-3.4956,-3.4725,-3.4582,-3.3615,-3.2868,-3.2515,-3.148,-3.0555,-2.9869,-2.8763,-2.7402,0.0,0.0,0.0,0.0,0.0,0.0,0.0,0.0,0.0,0.0,0.0,0.0,0.0,0.0,0.0,0.0,0.0,0.0,0.0,0.0,0.0,0.0,0.0,0.0,0.0,0.0,0.0,0.0,-2.7586,-2.9182,-3.1634,-3.1568,-3.1797,0.0,0.0,0.0,0.0,0.0,0.0,-3.7607,-3.8045,-3.867,-3.9661,-4.0923,-4.1518,-4.1387,-4.2938,-4.3613,-4.3485,-4.4153,-4.456,-4.4719,-4.4719,-4.4806,-4.4966,-4.4966,-4.4599,-4.3795,-4.1071,-3.9564,-3.8865,-3.7206,-3.6203,-3.5614,-3.5329,-3.4999,-3.464,-3.4369,-3.4232,-3.4056,-3.3313,0.0,-3.2041,-3.0962,0.0,0.0,0.0,0.0,-3.3081,-3.406,0.0,-3.5708,-3.5708,-3.6056,-3.6304,-3.5843,-3.5708,-3.5014,0.0,-3.1914,-3.1315,-2.9768,0.0,0.0,0.0,0.0,-3.1681,-3.3027,-3.3801,-3.4527,-3.5325,-3.5055,-3.4654,-3.4332,-3.3363,-3.275,-3.2581,-3.1645,-3.0995,-3.073,-2.9544,-2.8354,-2.7126,0.0,0.0,0.0,0.0,0.0,0.0,0.0,0.0,0.0,0.0,0.0,0.0,0.0,0.0,0.0,0.0,0.0,0.0,0.0,0.0,0.0,0.0,0.0,0.0,0.0,0.0,0.0,0.0,0.0,-3.3137,-3.3799,0.0,0.0,0.0,0.0,-3.6974,-3.7997,-3.9096,-4.0163,-4.0873,-4.1813,-4.2912,-4.3104,-4.3489,-4.4103,-4.4574,-4.4836,-4.4792,-4.5474,-4.6098,-4.6647,-4.6647,-4.7027,-4.7593,-4.7593,-4.6965,-4.5767,-4.3004,-4.1299,-4.0254,-3.8899,-3.8073,-3.7599,-3.7165,-3.6794,-3.6472,-3.5986,-3.5612,-3.5328,-3.4776,-3.4223,-3.3671,-3.3124,-3.2893,0.0,0.0,-3.4148,-3.468,-3.527,-3.5881,-3.6367,-3.6367,-3.6392,-3.6405,-3.6367,-3.6367,-3.5864,0.0,-3.3771,-3.332,-3.197,0.0,-3.1521,-3.0811,-3.1619,-3.253,-3.3125,-3.4121,-3.4797,-3.4846,-3.4834,-3.4613,-3.4038,-3.3247,-3.2783,-3.2783,-3.2071,-3.1211,-3.017,-3.005,-2.928,-2.7678,-2.6586,0.0,0.0,0.0,0.0,0.0,0.0,0.0,0.0,0.0,0.0,0.0,0.0,0.0,0.0,0.0,0.0,0.0,0.0,0.0,0.0,0.0,0.0,0.0,0.0,0.0,0.0,0.0,0.0,-3.5855,-3.6988,0.0,0.0,-3.9345,-4.0134,-4.1117,-4.133,-4.1965,-4.3244,-4.3142,-4.3322,-4.387,-4.4178,-4.4458,-4.4676,-4.5649,-4.6142,-4.6142,-4.6795,-4.723,-4.7433,-4.7433,-4.7564,-4.7782,-4.7782,-4.7463,-4.6846,-4.5509,-4.3678,-4.1611,-4.0399,-3.9428,-3.8687,-3.8306,-3.7909,-3.7497,-3.7295,-3.7184,-3.6973,-3.6069,-3.5403,-3.4806,-3.4299,-3.4135,-3.4248,-3.4756,-3.5056,-3.5332,-3.5931,-3.6267,-3.6405,-3.6405,-3.6405,-3.6405,-3.6405,-3.6405,-3.6229,-3.5638,-3.5203,-3.468,-3.3827,-3.3702,-3.3595,-3.3352,-3.3651,-3.4055,-3.4616,-3.5027,-3.5401,-3.5796,-3.5164,-3.4632,-3.4264,-3.3308,-3.2614,-3.2317,-3.1707,-3.1148,-3.0657,-2.9941,-2.916,-2.8246,-2.7512,-2.6357,0.0,0.0,0.0,0.0,0.0,0.0,0.0,0.0,0.0,0.0,0.0,0.0,0.0,0.0,0.0,0.0,0.0,0.0,0.0,0.0,0.0,0.0,0.0,0.0,0.0,0.0,-3.6059,-3.7937,-3.9376,-4.0498,-4.1241,-4.211,-4.3034,-4.4019,-4.3956,-4.4387,-4.5616,-4.5001,-4.482,-4.5375,-4.5492,-4.5648,-4.5866,-4.6722,-4.7158,-4.7158,-4.7579,-4.7898,-4.8101,-4.8101,-4.8217,-4.842,-4.842,-4.8147,-4.7721,-4.7372,-4.5847,-4.3553,-4.2065,-4.0971,-4.0128,-3.9477,-3.9004,-3.863,-3.8329,-3.8091,-3.7839,-3.6751,-3.631,-3.6078,-3.5454,-3.5278,-3.5353,-3.5717,-3.5818,-3.5906,-3.6317,-3.6405,-3.6405,-3.6405,-3.6405,-3.6405,-3.6405,-3.6405,-3.6405,-3.6405,-3.6069,-3.5655,-3.5056,-3.4956,-3.4893,-3.4751,-3.4831,-3.5094,-3.5445,-3.5658,-3.5893,-3.6069,-3.5265,-3.456,-3.425,-3.3289,-3.255,-3.2169,-3.1546,-3.1028,-3.0657,-2.9941,-2.9316,-2.8787,-2.8243,-2.7308,-2.6008,0.0,0.0,0.0,0.0,0.0,0.0,0.0,0.0,0.0,0.0,0.0,0.0,0.0,0.0,0.0,0.0,0.0,0.0,0.0,0.0,0.0,0.0,0.0,-3.3786,-3.547,-3.7438,-3.9329,-4.083,-4.1983,-4.271,-4.399,-4.4989,-4.5547,-4.5815,-4.6352,-4.7318,-4.6491,-4.6444,-4.7493,-4.7082,-4.7158,-4.7767,-4.7796,-4.7811,-4.7811,-4.784,-4.8159,-4.8754,-4.8754,-4.9088,-4.9717,-4.9717,-4.9238,-4.8446,-4.8446,-4.7638,-4.6188,-4.395,-4.2732,-4.207,-4.0671,-4.0147,-3.9943,-3.8981,-3.8354,-3.7865,-3.6822,-3.6966,-3.7356,-3.6666,-3.643,-3.643,-3.6417,-3.6405,-3.6405,-3.6405,-3.6405,-3.6405,-3.6405,-3.6405,-3.6405,-3.6405,-3.6405,-3.6405,-3.6405,-3.6405,-3.6194,-3.5621,-3.552,-3.5345,-3.4806,-3.5182,0.0,-3.552,-3.6031,-3.6157,-3.5583,-3.5019,-3.4512,-3.3972,-3.3177,-3.2636,-3.2388,-3.1632,-3.0883,-3.0176,-3.0098,-2.9845,-2.9352,-2.8834,-2.8191,-2.7484,0.0,0.0,0.0,0.0,0.0,0.0,0.0,0.0,0.0,0.0,0.0,0.0,0.0,0.0,0.0,0.0,0.0,0.0,0.0,0.0,0.0,0.0,-3.5665,-3.5931,-3.8064,-3.9992,-4.0926,-4.2695,-4.4148,-4.4891,-4.5728,-4.6665,-4.7666,-4.7512,-4.766,-4.8426,-4.7916,-4.7763,-4.8016,-4.786,-4.7794,-4.7782,-4.8232,-4.8464,-4.8478,-4.8943,-4.9248,-4.9422,-4.9422,-4.9509,-4.9717,-4.9717,-4.9582,-4.9325,-4.9144,-4.87,-4.7971,-4.5702,-4.4256,-4.3289,-4.2083,-4.0991,-4.0045,-3.9535,-3.9082,-3.8592,-3.8291,-3.8041,-3.775,-3.7184,-3.7094,-3.7092,-3.6543,-3.6405,-3.6405,-3.6405,-3.6405,-3.6405,-3.6405,-3.6405,-3.6405,-3.6405,-3.6405,-3.6405,-3.6405,-3.6405,-3.6367,-3.6157,-3.6132,-3.6081,-3.5931,-3.6044,0.0,-3.6132,-3.6317,-3.6355,-3.6157,-3.529,-3.4618,-3.4512,-3.3577,-3.2822,-3.2431,-3.1841,-3.1248,-3.0706,-3.029,-3.0194,-3.0477,-2.995,-2.9668,0.0,0.0,0.0,0.0,0.0,0.0,0.0,0.0,0.0,0.0,0.0,0.0,0.0,0.0,0.0,0.0,0.0,0.0,0.0,0.0,0.0,0.0,-3.6682,-3.8331,-3.8858,-4.0213,-4.1576,-4.2742,-4.4243,-4.5444,-4.6155,-4.7103,-4.7981,-4.8647,-4.8927,-4.9135,-4.9362,-4.9137,-4.903,-4.9047,-4.8737,-4.8635,-4.877,-4.8991,-4.9132,-4.9132,-4.9494,-4.9717,-4.9717,-4.9717,-4.9717,0.0,-4.9717,-4.9717,-4.9683,-4.9537,-4.9305,0.0,0.0,0.0,0.0,0.0,-4.1376,-4.0336,-3.9863,-3.9484,-3.917,-3.8856,-3.873,-3.8578,-3.7775,-3.7522,-3.743,-3.6956,-3.6666,-3.6405,-3.6405,-3.6405,-3.6405,-3.6405,-3.6405,-3.6405,-3.6405,-3.6405,-3.6405,-3.6405,0.0,0.0,-3.6405,-3.6405,-3.6405,-3.6405,-3.6405,-3.6405,0.0,-3.6405,-3.6405,-3.6405,-3.5579,-3.4931,-3.4738,-3.3922,0.0,0.0,0.0,-3.1632,-3.1378,-3.1215,0.0,0.0,0.0,0.0,0.0,0.0,0.0,0.0,-2.9296,-2.9657,0.0,0.0,0.0,0.0,0.0,0.0,0.0,0.0,0.0,0.0,0.0,0.0,0.0,0.0,0.0,0.0,-3.9105,-4.1069,-4.2071,-4.2131,-4.2758,-4.4606,-4.5476,-4.6218,-4.6961,-4.8162,-4.8952,-4.911,-5.0095,-5.0595,-5.0277,0.0,0.0,0.0,0.0,-4.9567,-5.0135,-4.9878,-4.9732,-4.9717,-4.9717,-4.9717,-4.9717,-4.9717,-4.9717,-4.9717,-4.9717,-4.9717,-4.9717,-4.9717,-4.9537,-4.9149,-4.7523,-4.6505,-4.5653,-4.3057,-4.1673,0.0,0.0,0.0,0.0,-3.8955,-3.9184,-3.9525,-3.8441,-3.7937,-3.7731,-3.7531,-3.6993,-3.6493,-3.643,-3.6405,-3.6405,-3.6405,-3.6405,-3.6405,-3.6405,-3.6405,-3.6405,-3.6405,-3.6405,-3.6405,-3.6405,-3.6405,-3.6405,-3.6405,-3.6405,0.0,-3.6405,-3.6405,-3.6405,-3.6405,0.0,0.0,-3.4806,-3.4311,-3.3696,-3.2934,-3.2407,-3.2142,-3.2196,-3.2447,-3.2848,-3.3366,-3.3443,-3.3443,-3.3449,-3.3515,-3.3507,-3.3317,-3.1844,-3.1501,0.0,0.0,0.0,0.0,0.0,0.0,0.0,0.0,0.0,0.0,0.0,0.0,0.0,0.0,0.0,-3.9345,-4.072,-4.2031,-4.3899,-4.4622,-4.5144,-4.5555,-4.6202,-4.7103,-4.8351,-4.8731,-4.9363,-5.0524,-5.0646,-5.1043,-5.181,-5.1536,0.0,-5.1576,-5.1066,-5.0656,-5.0346,-5.012,-4.9926,-4.9717,0.0,0.0,-4.9717,-4.9717,-4.9717,-4.9717,-4.9717,-4.9717,-4.9717,-4.9717,-4.9537,-4.9192,-4.7988,-4.6777,-4.5505,-4.428,-4.318,-4.2123,-4.105,-4.0507,-4.0262,-3.9697,-3.9598,-3.9586,-3.8932,-3.8969,0.0,-3.7659,-3.727,-3.7155,-3.6543,-3.6405,-3.6405,-3.6405,-3.6405,-3.6405,-3.6405,-3.6405,-3.6405,-3.6405,-3.6405,-3.6405,-3.6405,-3.6405,-3.6405,-3.6405,-3.6405,-3.6405,-3.6405,-3.6405,-3.6405,-3.6405,-3.5868,-3.5458,-3.5345,-3.4831,-3.439,-3.4065,-3.3592,-3.3262,-3.3268,-3.321,-3.3346,-3.3857,-3.4268,-3.449,-3.4509,-3.4941,-3.4884,-3.4283,-3.3261,-3.2982,0.0,0.0,0.0,0.0,0.0,0.0,0.0,0.0,0.0,0.0,0.0,-3.2903,-3.5344,0.0,-3.8827,-4.0782,-4.2252,-4.3643,-4.5065,-4.5871,-4.6313,-4.6313,-4.7214,-4.8114,-4.881,-4.9521,-5.0216,-5.0967,-5.1572,-5.2099,-5.2488,-5.2517,-5.2462,-5.2322,-5.1726,-5.1152,-5.0632,-5.0264,-4.999,-4.9717,-4.9717,-4.9717,-4.9717,-4.9717,-4.9717,-4.9717,-4.9717,-4.9717,-4.9717,-4.9717,-4.9537,-4.9207,-4.8545,-4.754,-4.6264,-4.4966,-4.3874,-4.2836,-4.1409,-4.0711,-4.0425,-3.9873,-3.9697,-3.9647,-3.9371,-3.9322,-3.9171,-3.8602,-3.7934,-3.7283,-3.7006,-3.6691,-3.6405,-3.6405,-3.6405,-3.6405,-3.6405,-3.6405,-3.6405,-3.6405,-3.6405,-3.6405,-3.6405,-3.6405,-3.6405,-3.6405,-3.6405,-3.6405,-3.6405,-3.6405,-3.6405,-3.6405,-3.6119,-3.5843,-3.552,-3.4994,-3.468,-3.4557,-3.4348,-3.4218,-3.4218,-3.41,-3.4282,-3.4776,-3.5051,-3.5377,-3.5805,-3.5914,-3.5805,-3.5443,-3.4795,-3.441,0.0,0.0,0.0,0.0,0.0,0.0,0.0,0.0,-3.1009,-3.3184,-3.4317,-3.5645,-3.7995,-3.9623,-4.0951,-4.2047,-4.3737,-4.5175,-4.5902,-4.6692,-4.7198,-4.7198,-4.8209,-4.8936,-4.9078,-5.0232,-5.1062,-5.1164,-5.2381,-5.3055,-5.298,-5.3298,-5.3261,-5.2833,-5.2139,-5.1479,-5.0855,-5.0408,-5.0038,-4.9717,-4.9717,-4.9717,-4.9717,-4.9717,-4.9717,-4.9717,-4.9717,-4.9717,-4.9717,-4.9717,-4.9585,-4.9355,-4.9093,-4.8409,-4.7322,-4.5716,-4.4613,-4.3685,-4.2016,-4.1121,-4.0641,-4.0036,-3.9785,-3.9697,-3.9697,-3.9383,-3.9095,-3.9474,-3.854,-3.7462,-3.747,-3.692,-3.6398,-3.6417,-3.6405,-3.6405,-3.6405,-3.6405,-3.6405,-3.6405,-3.6405,-3.6405,-3.6405,-3.6405,-3.6405,-3.6405,-3.6405,-3.6405,-3.6405,-3.6405,-3.6405,-3.6405,-3.6405,-3.6182,-3.5696,-3.5303,-3.5039,-3.5039,-3.5003,-3.4969,-3.4969,-3.4945,-3.5147,-3.5591,-3.5804,-3.6211,-3.6813,-3.6696,-3.6537,-3.6375,-3.6114,-3.5511,-2.2433,-2.3894,-2.5899,-2.8487,-2.9157,-2.9831,0.0,0.0,-3.394,-3.6078,-3.6854,-3.7882,-4.0304,-4.1051,-4.1956,-4.4018,-4.5112,-4.5918,-4.6597,-4.783,-4.8652,-4.8652,-4.8794,-4.9126,-4.9742,-5.0516,-5.1227,-5.1843,-5.2649,-5.3376,-5.3902,-5.3813,-5.3643,-5.3334,-5.2622,-5.1895,-5.1167,-5.0677,-5.0198,-4.9717,-4.9717,-4.9717,-4.9717,-4.9717,-4.9717,-4.9717,-4.9717,-4.9717,-4.9717,-4.9717,-4.9669,-4.9634,-4.9355,-4.8895,-4.8229,-4.7102,-4.6084,-4.5142,-4.3698,-4.2528,-4.1539,-4.0654,-4.0099,-3.9697,-3.9697,-3.9647,-3.9496,-3.9095,-3.8743,-3.8266,-3.7437,-3.6805,-3.6386,-3.6386,-3.6405,-3.6405,-3.6405,-3.6405,-3.6405,-3.6405,-3.6405,-3.6405,-3.6405,-3.6405,-3.6405,-3.6405,-3.6405,-3.6405,-3.6405,-3.6405,-3.6405,-3.6405,-3.6405,-3.638,-3.6329,-3.6254,-3.6229,-3.6229,-3.5771,-3.5534,-3.5534,-3.5502,-3.5543,-3.5587,-3.656,-3.6964,-3.6819,-3.7269,-3.7204,-3.6646,-3.6592,-3.6114,-2.5387,-2.6944,-2.8621,0.0,-3.1583,-3.264,-3.4514,-3.5316,-3.6186,-3.8078,-3.8679,-3.9453,-4.1484,-4.2433,-4.3316,0.0,-4.5722,-4.674,-4.734,-4.794,-4.8604,-4.9394,-4.9141,-4.9157,-4.9813,-5.0927,-5.1701,-5.1986,-5.3044,-5.3803,-5.4087,-5.4017,-5.386,-5.3643,-5.3024,-5.2336,-5.1618,-5.0979,-5.0408,-4.9926,-4.9781,-4.9717,-4.9717,-4.9717,-4.9717,-4.9717,-4.9717,-4.9717,-4.9717,-4.9717,-4.9717,-4.9669,-4.9404,-4.9157,-4.881,-4.7596,-4.656,-4.5622,-4.4241,-4.2977,-4.1881,-4.1005,-4.0241,-3.9697,-3.9697,-3.9697,-3.9647,-3.9421,-3.9006,-3.8554,-3.8266,-3.7317,-3.6463,-3.6799,-3.6644,-3.6405,-3.6405,-3.6405,-3.6405,-3.6405,-3.6405,-3.6405,-3.6405,-3.6405,-3.6405,-3.6405,-3.6405,-3.6405,-3.6405,-3.6405,-3.6405,-3.6405,-3.6405,-3.6405,-3.6405,-3.6405,-3.6405,-3.6405,-3.6038,-3.5764,-3.562,-3.5734,-3.5935,-3.6083,-3.6786,-3.7272,-3.7518,-3.7578,-3.7459,-3.7198,-3.7,-3.6766,-2.8168,-2.9648,0.0,-3.2821,-3.3966,-3.508,-3.6636,-3.7401,-3.8172,-3.9658,-4.014,-4.0763,-4.2273,-4.3353,-4.4222,-4.4783,-4.6278,-4.7501,-4.789,-4.8247,-4.8825,-4.9765,-4.9473,-4.9363,-4.9829,-5.1022,-5.1796,-5.2001,-5.3139,-5.3897,-5.4087,-5.4103,-5.4017,-5.3789,-5.3261,-5.2652,-5.1895,-5.1184,-5.0585,-5.0086,-4.9829,-4.9717,-4.9717,-4.9717,-4.9717,-4.9717,-4.9717,-4.9717,-4.9717,-4.9717,-4.9717,-4.9669,-4.9502,-4.9355,-4.9157,-4.8055,-4.7067,-4.6164,-4.4838,-4.3518,-4.2251,-4.1433,-4.051,-3.9788,-3.9749,-3.9697,-3.9697,-3.9697,-3.9307,-3.888,-3.8894,-3.8091,-3.7304,-3.7236,-3.6872,-3.6593,-3.6443,-3.6405,-3.6405,-3.6405,-3.6405,-3.6405,-3.6405,-3.6405,-3.6405,-3.6405,-3.6405,-3.6405,-3.6405,-3.6405,-3.6405,-3.6405,-3.6405,-3.6405,-3.6405,-3.6405,-3.6405,-3.6405,-3.6146,-3.5982,-3.5914,-3.61,-3.6387,-3.6717,-3.7175,-3.7634,-3.7986,-3.7809,-3.772,-3.7719,-3.7471,-3.7346,-2.991,0.0,-3.3057,-3.5691,-3.6384,-3.6939,-3.8956,-3.955,-3.9982,-4.085,-4.1325,-4.1811,-4.2739,-4.3607,-4.4427,-4.5181,-4.6873,-4.8078,-4.811,-4.9093,-4.9829,-4.9876,-4.986,-4.99,0.0,-5.0579,-5.129,-5.1954,-5.2712,-5.3423,-5.4071,-5.4103,-5.4017,-5.3789,-5.3261,-5.2652,-5.1895,-5.1184,-5.0585,-5.0086,-4.9829,-4.9717,-4.9717,-4.9717,-4.9717,-4.9717,-4.9717,-4.9717,-4.9717,-4.9717,-4.9717,-4.9717,-4.9669,-4.9537,-4.9207,-4.8695,-4.7939,-4.7095,-4.5954,-4.4428,-4.2814,-4.2011,-4.0996,-4.0032,-3.9788,-3.9697,-3.9697,-3.9697,-3.9685,-3.9546,-3.9007,-3.926,-3.9208,-3.7585,-3.7174,-3.701,-3.6518,-3.6405,-3.6405,-3.6405,-3.6405,-3.6405,-3.6405,-3.6405,-3.6405,-3.6405,-3.6405,-3.6405,-3.6405,-3.6405,-3.6405,-3.6405,-3.6405,-3.6405,-3.6405,-3.6405,-3.6405,-3.6405,-3.6146,-3.6239,-3.6736,-3.6749,-3.7047,-3.753,-3.7843,-3.7962,-3.7986,-3.7986,-3.7986,-3.7974,-3.7974,-3.7986,-3.194,0.0,-3.6032,-3.6958,-3.8184,-3.9392,-4.0098,-4.0648,-4.0981,-4.0908,-4.099,-4.1341,-4.2204,-4.2734,-4.3505,-4.5056,-4.6598,-4.7733,-4.8084,-4.8767,-4.941,-4.9829,-4.9521,0.0,0.0,0.0,0.0,-5.1986,-5.3107,-5.3866,-5.4087,-5.4103,-5.406,-5.3974,-5.3524,-5.3024,-5.2442,-5.1526,-5.0837,-5.0342,-4.9926,-4.9717,-4.9717,-4.9717,-4.9717,-4.9717,-4.9717,-4.9717,-4.9717,-4.9717,-4.9717,-4.9717,-4.9717,-4.9634,-4.9537,-4.9143,-4.8645,-4.7939,-4.6585,-4.5005,-4.345,-4.2578,-4.1297,-4.0032,-3.9788,-3.9697,-3.9697,-3.9697,-3.9697,-3.9647,-3.9471,-3.9563,-3.936,-3.8063,-3.745,-3.7036,-3.6531,-3.6405,-3.6405,-3.6405,-3.6405,-3.6405,-3.6405,-3.6405,-3.6405,-3.6405,-3.6405,-3.6405,-3.6405,-3.6405,-3.6405,-3.6405,-3.6405,-3.6405,-3.6405,-3.6405,-3.6405,-3.6405,-3.6323,-3.6418,-3.6809,-3.7134,-3.7539,-3.79,-3.8153,-3.8287,-3.8241,-3.8063,-3.7986,-3.7986,-3.7986,-3.7986,-3.4234,-3.6206,-3.8019,-3.877,-3.997,-4.1023,-4.1262,-4.1454,-4.147,-4.1212,-4.0924,-4.0892,-4.1497,-4.2059,-4.2977,-4.4471,-4.6228,-4.7572,-4.8126,-4.8805,-4.9521,-5.0216,-4.99,-4.99,0.0,0.0,0.0,-5.2033,-5.3092,-5.385,-5.4087,-5.4103,-5.4103,-5.4103,-5.3655,-5.3157,-5.2697,-5.1711,-5.0852,-5.0198,-4.9878,-4.9717,-4.9717,-4.9717,-4.9717,-4.9717,-4.9717,-4.9717,-4.9717,-4.9717,-4.9717,-4.9717,-4.9717,-4.9717,-4.9683,-4.9404,-4.9009,-4.8431,-4.7157,-4.5687,-4.4155,-4.301,-4.1685,-4.0452,-3.9902,-3.9697,-3.9697,-3.9697,-3.9697,-3.9697,-3.9697,-3.9688,-3.9449,-3.8542,-3.7889,-3.7324,-3.682,-3.6556,-3.6405,-3.6405,-3.6405,-3.6405,-3.6405,-3.6405,-3.6405,-3.6405,-3.6405,-3.6405,-3.6405,-3.6405,-3.6405,-3.6405,-3.6405,-3.6405,-3.6405,-3.6405,-3.6405,-3.6405,-3.6405,-3.6649,-3.7193,-3.7494,-3.789,-3.8543,-3.8512,-3.8498,-3.84,-3.8205,-3.8063,-3.7986,-3.7986,-3.7986,-3.6701,-3.791,-3.9064,-4.1123,-4.1659,-4.1837,-4.2422,-4.2019,-4.1547,-4.1632,-4.0975,-4.0445,-4.0561,0.0,-4.2699,-4.3573,-4.5741,-4.7613,-4.8312,-4.931,-5.0232,0.0,0.0,0.0,0.0,0.0,0.0,-5.2112,0.0,-5.3439,-5.4071,-5.4103,-5.4103,-5.4103,-5.3655,-5.3157,-5.2697,-5.1665,-5.0695,-4.9717,-4.9717,-4.9717,-4.9717,-4.9717,-4.9717,-4.9717,-4.9717,-4.9717,-4.9717,-4.9717,-4.9717,-4.9717,-4.9717,-4.9717,-4.9683,-4.9404,-4.9157,-4.8745,-4.7699,-4.6425,-4.4973,-4.3232,-4.2099,-4.1234,-4.0067,-3.9697,-3.9697,-3.9697,-3.9697,-3.9697,-3.9697,-3.9697,-3.9559,-3.907,-3.8442,-3.7852,-3.7299,-3.6795,-3.6405,-3.6405,-3.6405,-3.6405,-3.6405,-3.6405,-3.6405,-3.6405,-3.6405,-3.6405,-3.6405,-3.6405,-3.6405,-3.6405,-3.6405,-3.6405,-3.6405,-3.6405,-3.6405,-3.6405,-3.6405,-3.6908,-3.7965,-3.778,-3.8152,-3.9297,-3.8998,-3.8684,-3.8461,-3.84,-3.8294,-3.8039,-3.7986,-3.7986,-3.8084,-3.9756,-4.1288,-4.1844,-4.2337,-4.2615,-4.2255,-4.1996,-4.1425,-3.9871,-3.9385,-3.9226,-3.917,-3.9812,0.0,-4.333,-4.5323,0.0,-4.8248,-4.9739,0.0,-5.0999,0.0,-5.1812,-5.1986,-5.2681,0.0,0.0,-5.3471,-5.3913,-5.4087,-5.4103,-5.4103,-5.4103,-5.3655,-5.3157,-5.2697,-5.1354,-5.0327,-4.9717,-4.9717,-4.9717,-4.9717,-4.9717,-4.9717,-4.9717,-4.9717,-4.9717,-4.9717,-4.9717,-4.9717,-4.9717,-4.9717,-4.9717,-4.9669,-4.9634,-4.9453,-4.9108,-4.8445,-4.7114,-4.554,-4.4048,-4.2695,-4.1479,-4.0351,-3.9839,-3.9697,-3.9697,-3.9697,-3.9697,-3.9697,-3.9697,-3.9648,-3.9512,-3.8755,-3.7852,-3.7299,-3.6795,-3.6405,-3.6405,-3.6405,-3.6405,-3.6405,-3.6405,-3.6405,-3.6405,-3.6405,-3.6405,-3.6405,-3.6405,-3.6405,-3.6405,-3.6405,-3.6405,-3.6405,-3.6405,-3.6405,-3.6405,-3.6405,-3.6908,-3.7965,-3.7916,-3.8442,-3.9569,-3.9322,-3.9154,-3.905,-3.8591,-3.8364,-3.8306,-3.8063,-3.7986,-3.9982,-4.1305,-4.2354,-4.2683,-4.2799,-4.2749,-4.2321,-4.1498,-4.0478,-3.9276,-3.8454,-3.7931,-3.778,-3.8546,0.0,0.0,0.0,0.0,-4.7721,-4.9437,-5.0737,0.0,-5.2065,0.0,-5.2902,-5.3297,-5.355,0.0,-5.3882,-5.4103,-5.4103,-5.4103,-5.4103,-5.4103,-5.3655,-5.3024,-5.2215,-5.1088,-5.0294,-4.9878,-4.9781,-4.9717,-4.9717,-4.9717,-4.9717,-4.9717,0.0,-4.9717,-4.9717,-4.9717,-4.9717,-4.9717,-4.9717,-4.9717,-4.9717,-4.9717,-4.9537,-4.9256,-4.8795,-4.7816,-4.6407,-4.4501,-4.3136,-4.1893,-4.0517,-3.9929,-3.9697,-3.9697,-3.9697,-3.9697,-3.9697,-3.9697,-3.9698,-3.9714,-3.8843,-3.7927,-3.7613,-3.6923,-3.6405,-3.6405,-3.6405,-3.6405,-3.6405,-3.6405,-3.6405,-3.6405,-3.6405,-3.6405,-3.6405,-3.6405,-3.6405,-3.6405,-3.6405,-3.6405,-3.6405,-3.6405,-3.6405,-3.6405,-3.6405,-3.6908,-3.7965,-3.8002,-3.8542,-3.9672,-3.953,-3.9426,-3.931,-3.8945,-3.8656,-3.8388,-3.8262,-3.8133,-4.1799,-4.2468,-4.2787,-4.3433,-4.3035,-4.244,-4.2241,-4.0696,-3.9183,-3.8801,0.0,-3.6576,-3.6448,-3.7469,-3.8804,-4.0267,0.0,-4.4936,-4.7117,-4.8914,-5.0548,-5.1859,-5.2744,-5.3471,-5.404,-5.4103,-5.4103,-5.4103,-5.4103,-5.4103,-5.4103,-5.4103,-5.4103,-5.406,-5.3612,-5.2802,-5.1665,-5.0899,-5.039,-5.0086,-4.9829,-4.9717,-4.9717,-4.9717,-4.9717,-4.9717,0.0,0.0,-4.9717,-4.9717,-4.9717,-4.9717,-4.9717,-4.9717,-4.9717,-4.9717,-4.9537,-4.9305,-4.9009,-4.8352,-4.7225,-4.48,-4.3399,-4.2371,-4.067,-3.9942,-3.9697,-3.9697,-3.9697,-3.9697,-3.9697,-3.9697,-3.9697,-3.9697,-3.8957,-3.819,-3.8027,-3.7149,-3.6405,-3.6405,-3.6405,-3.6405,-3.6405,-3.6405,-3.6405,-3.6405,-3.6405,-3.6405,-3.6405,-3.6405,-3.6405,-3.6405,-3.6405,-3.6405,-3.6405,-3.6405,-3.6405,-3.6405,-3.6405,-3.6908,-3.7965,-3.8002,-3.8542,-3.9672,-3.9697,-3.9594,-3.9362,-3.9322,-3.905,-3.8514,-3.8449,-3.8291,-4.2196,-4.2936,-4.3433,-4.3565,-4.3035,-4.222,-4.1028,-4.0011,0.0,0.0,-3.5438,-3.5184,-3.4939,-3.6002,-3.7742,-4.0089,-4.2559,-4.4936,-4.7117,-4.9381,-5.1101,0.0,-5.3139,-5.3976,0.0,0.0,0.0,0.0,0.0,0.0,-5.4103,-5.4103,-5.4017,-5.3876,-5.3349,-5.2697,-5.1849,-5.1105,-5.0537,-5.0086,-4.9829,-4.9717,-4.9717,-4.9717,-4.9717,-4.9717,0.0,0.0,-4.9717,-4.9717,-4.9717,-4.9717,-4.9717,-4.9717,-4.9717,-4.9717,-4.9683,-4.9585,-4.9044,-4.8205,-4.7007,-4.5185,-4.3888,-4.2697,-4.0939,-4.0096,-3.9697,-3.9697,-3.9697,-3.9697,-3.9697,-3.9697,-3.9697,-3.9697,-3.9537,-3.917,-3.8202,-3.7149,-3.6405,-3.6405,-3.6405,-3.6405,-3.6405,-3.6405,-3.6405,-3.6405,-3.6405,-3.6405,-3.6405,-3.6405,-3.6405,-3.6405,-3.6405,-3.6405,-3.6405,-3.6405,-3.6405,-3.6405,-3.6405,-3.6908,-3.7965,-3.8002,-3.8542,-3.9672,-3.9697,-3.9697,-3.9633,-3.9426,-3.9258,-3.9154,-3.8652,-3.8364,-4.2129,-4.2969,-4.3598,-4.3598,-4.3327,-4.2499,-4.0315,0.0,0.0,0.0,-3.4223,-3.3716,-3.3882,-3.4734,0.0,-3.8468,-4.063,-4.2876,-4.5387,-4.7834,0.0,-5.1306,0.0,0.0,0.0,0.0,0.0,0.0,0.0,0.0,-5.4103,-5.4103,-5.4017,-5.3789,-5.3261,-5.2697,-5.2109,-5.1231,-5.0632,-5.0294,-4.9878,-4.9717,-4.9717,-4.9717,-4.9717,-4.9717,-4.9717,0.0,-4.9717,-4.9717,-4.9717,-4.9717,-4.9717,-4.9717,-4.9717,-4.9717,-4.9717,-4.962,-4.9093,-4.8233,-4.7102,-4.5294,-4.379,-4.2357,-4.0913,-4.016,-3.9697,-3.9697,-3.9697,-3.9697,-3.9697,-3.9697,-3.9697,-3.9697,-3.9398,-3.8854,-3.7788,-3.6935,-3.6405,-3.6405,-3.6405,-3.6405,-3.6405,-3.6405,-3.6405,-3.6405,-3.6405,-3.6405,-3.6405,-3.6405,-3.6405,-3.6405,-3.6405,-3.6405,-3.6405,-3.6405,-3.6405,-3.6405,-3.6405,-3.6908,-3.7965,-3.8002,-3.8542,-3.9672,-3.9697,-3.9697,-3.9697,-3.9581,-3.9426,-3.927,-3.8985,-3.8712,-4.2175,-4.3035,-4.3598,-4.3598,-4.3365,-4.2523,-4.0128,-3.7487,0.0,0.0,-3.3251,-3.251,-3.3062,-3.3656,-3.4771,0.0,-3.883,-4.0975,-4.3802,0.0,0.0,0.0,0.0,0.0,0.0,0.0,0.0,0.0,0.0,0.0,0.0,-5.4103,-5.4017,-5.3876,-5.3349,-5.2876,-5.2397,-5.1371,-5.0742,-5.0501,-4.9975,-4.9717,-4.9717,-4.9717,-4.9717,-4.9717,-4.9717,0.0,0.0,-4.9717,-4.9717,-4.9717,-4.9717,-4.9717,-4.9717,-4.9717,-4.9717,-4.9605,-4.8936,-4.8147,-4.7116,-4.5202,-4.3597,-4.2158,-4.0874,-4.0147,-3.9788,-3.9749,-3.9697,-3.9697,-3.9697,-3.9697,-3.9724,-3.9712,-3.907,-3.8238,-3.7448,-3.6832,-3.6405,-3.6405,-3.6405,-3.6405,-3.6405,-3.6405,-3.6405,-3.6405,-3.6405,-3.6405,-3.6405,-3.6405,-3.6405,-3.6405,-3.6405,-3.6405,-3.6405,-3.6405,-3.6405,-3.6405,-3.6405,-3.6857,-3.7789,-3.7939,-3.8479,-3.9496,-3.9634,-3.9697,-3.9697,-3.9697,-3.9581,-3.9362,-3.9339,-3.9067,-4.2932,-4.3531,-4.3598,-4.3598,-4.2585,-4.141,-4.0731,0.0,-3.6541,-3.2987,-3.2056,-3.1968,-3.2325,-3.2889,-3.4185,-3.6853,0.0,-4.0975,0.0,0.0,0.0,0.0,0.0,0.0,0.0,0.0,0.0,0.0,0.0,0.0,0.0,-5.4103,-5.4103,-5.406,-5.3612,-5.3157,-5.2667,-5.1665,-5.0947,-5.0501,-4.9975,-4.9717,-4.9717,-4.9717,-4.9717,-4.9717,0.0,0.0,0.0,-4.9717,-4.9717,-4.9717,-4.9717,-4.9717,-4.9717,-4.9717,-4.9717,-4.9547,-4.8448,-4.7492,-4.6514,-4.478,-4.3647,-4.2637,-4.0963,-4.03,-4.0032,-3.9788,-3.9697,-3.9697,-3.9697,-3.9697,-3.9725,-3.9677,-3.8831,-3.7929,-3.7552,-3.6897,-3.6405,-3.6405,-3.6405,-3.6405,-3.6405,-3.6405,-3.6405,-3.6405,-3.6405,-3.6405,-3.6405,-3.6405,-3.6405,-3.6405,-3.6405,-3.6405,-3.6405,-3.6405,-3.6405,-3.6405,-3.6405,-3.6681,-3.7236,-3.7739,-3.8304,-3.8931,-3.9433,-3.9697,-3.9697,-3.9697,-3.9697,-3.9645,-3.9413,-3.926,-4.1838,-4.291,-4.3398,-4.2505,-4.1824,-4.0834,-3.8609,0.0,-3.4636,-3.2794,-3.1622,-3.1183,-3.2122,-3.2611,-3.373,-3.627,-3.785,-3.9727,-4.254,0.0,0.0,0.0,0.0,0.0,0.0,0.0,0.0,0.0,0.0,0.0,0.0,-5.4103,-5.4103,-5.4103,-5.3655,-5.3157,-5.2697,-5.1711,-5.0947,-5.0501,-4.9975,-4.9717,-4.9717,-4.9717,-4.9717,-4.9717,0.0,0.0,0.0,-4.9717,-4.9717,-4.9717,-4.9717,-4.9717,-4.9717,-4.9717,-4.9436,-4.9011,-4.8364,-4.7343,-4.6139,-4.4803,-4.3742,-4.2682,-4.1213,-4.0427,-4.0032,-3.9788,-3.9697,-3.9697,-3.9697,-3.9357,-3.9056,-3.9171,-3.8104,-3.7083,-3.7276,-3.6857,-3.6405,-3.6405,-3.6405,-3.6405,-3.6405,-3.6405,-3.6405,-3.6405,-3.6405,-3.6405,-3.6405,-3.6405,-3.6405,-3.6405,-3.6405,-3.6405,-3.6405,-3.6405,-3.6405,-3.6405,-3.6405,-3.6656,-3.7161,-3.7713,-3.8278,-3.8906,-3.9421,-3.9697,-3.9697,-3.9697,-3.9697,-3.9697,-3.9581,-3.9453,-4.0418,-4.1838,-4.2712,-4.1651,-4.1097,-4.0161,0.0,-3.5482,-3.3594,-3.2679,-3.1292,-3.0647,-3.2056,-3.2409,-3.3291,-3.5663,-3.7086,-3.8866,-4.1662,-4.3577,0.0,0.0,0.0,0.0,0.0,0.0,0.0,0.0,0.0,0.0,0.0,-5.4103,-5.4103,-5.4103,-5.3699,-5.3305,-5.2802,-5.1849,-5.112,-5.0567,-5.0086,-4.9781,-4.9717,-4.9717,-4.9717,0.0,0.0,0.0,0.0,-4.9717,-4.9717,-4.9717,-4.9717,-4.9717,-4.9703,-4.9465,-4.9117,-4.8619,-4.8004,-4.7028,-4.5926,-4.4751,-4.3684,-4.2693,-4.1498,-4.0694,-4.0134,-3.98,-3.9697,-3.9697,-3.9697,-3.9194,-3.8642,-3.8542,-3.7518,-3.6708,-3.69,-3.6681,-3.6405,-3.6405,-3.6405,-3.6405,-3.6405,-3.6405,-3.6405,-3.6405,-3.6405,-3.6405,-3.6405,-3.6405,-3.6405,-3.6405,-3.6405,-3.6405,-3.6405,-3.6405,-3.6405,-3.6405,-3.6405,-3.6581,-3.6971,-3.7475,-3.8027,-3.8605,-3.917,-3.9534,-3.9697,-3.9697,-3.9697,-3.9697,-3.9697,-3.953,-3.9011,-4.0348,-4.1425,-4.1397,-4.0348,-3.9319,-3.9278,-3.7002,-3.4328,-3.2403,-3.0991,-3.0544,-3.2017,-3.2143,-3.2773,-3.5134,-3.6846,-3.8836,-4.1501,-4.3524,0.0,0.0,0.0,0.0,0.0,0.0,0.0,0.0,0.0,0.0,0.0,0.0,-5.4103,-5.4103,-5.3903,-5.3556,-5.3009,-5.2246,-5.1511,-5.0807,-5.0313,-4.9975,-4.9717,-4.9717,0.0,0.0,0.0,0.0,0.0,-4.9717,-4.9717,-4.9717,-4.9717,-4.9717,-4.9596,-4.8972,-4.8725,-4.8503,-4.7037,-4.6311,-4.5855,-4.4466,-4.3512,-4.2741,-4.1944,-4.1147,-4.0402,-3.9852,-3.9697,-3.9697,-3.9697,-3.9283,-3.8642,-3.773,-3.7343,-3.7041,-3.6508,-3.6405,-3.6405,-3.6405,-3.6405,-3.6405,-3.6405,-3.6405,-3.6405,-3.6405,-3.6405,-3.6405,-3.6405,-3.6405,-3.6405,-3.6405,-3.6405,-3.6405,-3.6405,-3.6405,-3.6405,-3.6405,-3.6405,-3.6405,-3.6417,-3.6945,-3.745,-3.8002,-3.858,-3.9145,-3.9697,-3.9697,-3.9697,-3.9697,-3.9697,-3.953,-3.7515,-3.8485,-3.9222,-3.9222,-3.8891,-3.8155,-3.663,-3.5177,-3.3692,-3.2056,-3.0925,-3.0647,-3.2056,-3.2392,-3.3226,-3.5482,-3.7014,0.0,0.0,0.0,0.0,0.0,0.0,0.0,0.0,0.0,0.0,0.0,0.0,0.0,0.0,0.0,-5.4103,-5.4103,-5.3903,-5.3556,-5.3009,-5.2246,-5.1511,-5.0807,-5.0313,-4.9975,-4.9717,-4.9717,0.0,0.0,0.0,0.0,0.0,-4.9717,-4.9717,-4.9717,-4.9717,-4.9407,-4.9001,-4.8798,-4.8126,-4.7329,-4.6891,-4.6134,-4.5317,-4.4747,-4.394,-4.3018,-4.2226,-4.1298,-4.0402,-3.9852,-3.9697,-3.9609,-3.9233,-3.8705,-3.8128,-3.7427,-3.6975,-3.6621,-3.6455,-3.6405,-3.6405,-3.6405,-3.6405,-3.6405,-3.6405,-3.6405,-3.6405,-3.6405,-3.6405,-3.6405,-3.6405,-3.6405,-3.6405,-3.6405,-3.6405,-3.6405,-3.6405,-3.6405,-3.6405,-3.6405,-3.6405,-3.6405,-3.6405,-3.6933,-3.745,-3.8002,-3.858,-3.9145,-3.9697,-3.9697,-3.9697,-3.9697,-3.9697,-3.9633,-3.549,-3.6378,-3.7036,-3.7317,-3.6953,-3.6257,-3.5148,-3.3905,-3.269,-3.1753,-3.1095,-3.0991,-3.207,-3.2793,-3.3769,-3.5423,-3.715,0.0,0.0,0.0,0.0,0.0,0.0,0.0,0.0,0.0,0.0,0.0,0.0,0.0,0.0,0.0,-5.4103,-5.4103,-5.399,-5.3671,-5.3157,-5.2517,-5.1788,-5.0964,-5.0471,-5.0038,-4.9717,0.0,0.0,0.0,0.0,0.0,0.0,-4.9717,-4.9538,-4.932,-4.932,-4.8928,-4.8348,-4.8101,-4.7459,-4.6749,-4.6563,-4.5926,-4.5216,-4.4876,-4.4035,-4.2984,-4.2177,-4.1185,-4.0287,-3.9942,-3.9637,-3.9308,-3.9007,-3.8278,-3.7613,-3.7262,-3.6807,-3.6405,-3.6405,-3.6405,-3.6405,-3.6405,-3.6405,-3.6405,-3.6405,-3.6405,-3.6405,-3.6405,-3.6405,-3.6405,-3.6405,-3.6405,-3.6405,-3.6405,-3.6405,-3.6405,-3.6405,-3.6405,-3.6405,-3.6405,-3.6405,-3.6405,-3.6405,-3.6732,-3.7236,-3.799,-3.8366,-3.8931,-3.9697,-3.9697,-3.9697,-3.9697,-3.9697,-3.9697,0.0,-3.407,-3.4916,-3.5595,-3.4733,-3.3889,-3.4518,-3.3071,0.0,-3.144,-3.1342,-3.1471,-3.2092,-3.3242,-3.4378,-3.5174,-3.7323,0.0,0.0,0.0,0.0,0.0,0.0,0.0,0.0,0.0,0.0,0.0,0.0,0.0,0.0,0.0,0.0,-5.4103,-5.4103,-5.3872,-5.3437,-5.2935,-5.2215,-5.1214,-5.0724,-5.0246,-4.9717,0.0,0.0,0.0,0.0,0.0,0.0,-4.9611,-4.9233,-4.8667,-4.8667,-4.8275,-4.7637,-4.7042,-4.6749,-4.6633,-4.6084,-4.5745,-4.5413,-4.4922,-4.3988,-4.2825,-4.2003,-4.0969,-4.0122,-4.0071,-3.9474,-3.8856,-3.8806,-3.7965,-3.7174,-3.7136,-3.6782,-3.6405,-3.6405,-3.6405,-3.6405,-3.6405,-3.6405,-3.6405,-3.6405,-3.6405,-3.6405,-3.6405,-3.6405,-3.6405,-3.6405,-3.6405,-3.6405,-3.6405,-3.6405,-3.6405,-3.6405,-3.6405,-3.6405,-3.6405,-3.6405,-3.6405,-3.6405,-3.6405,-3.6872,-3.799,-3.809,-3.8642,-3.9697,-3.9697,-3.9697,-3.9697,-3.9697,-3.9697,-3.0269,0.0,-3.3243,-3.3425,-3.3193,-3.2845,0.0,-3.1935,-3.1358,-3.078,-3.0915,-3.1358,-3.2076,-3.3242,-3.4604,-3.6166,0.0,0.0,0.0,0.0,0.0,0.0,0.0,0.0,0.0,0.0,0.0,0.0,0.0,0.0,0.0,0.0,0.0,-5.4103,-5.4103,-5.3974,-5.3687,-5.304,-5.2306,-5.1494,-5.0819,-5.0246,-4.9717,-4.9717,0.0,0.0,0.0,0.0,-4.8957,-4.8957,-4.858,-4.7999,-4.7999,-4.7608,-4.7042,-4.6836,-4.6519,-4.6084,-4.5938,-4.5745,-4.5413,-4.4723,-4.4148,-4.3531,-4.2283,-4.117,-4.0236,-3.9663,-3.9006,-3.8375,-3.7737,-3.7387,-3.7073,-3.6707,-3.6505,-3.6405,-3.6405,-3.6405,-3.6405,-3.6405,-3.6405,-3.6405,-3.6405,-3.6405,-3.6405,-3.6405,-3.6405,-3.6405,-3.6405,-3.6405,-3.6405,-3.6405,-3.6405,-3.6405,-3.6405,-3.6405,-3.6405,-3.6405,-3.6405,-3.6405,-3.6405,-3.6405,-3.6872,-3.799,-3.8856,-3.9433,-3.9697,-3.9697,-3.9697,-3.9697,-3.9697,-3.9697,-2.8929,-3.0696,-3.2426,-3.2652,-3.2702,-3.268,-3.2563,-3.2215,-3.1803,-3.1314,-3.1671,-3.2273,-3.2958,-3.4108,-3.5486,0.0,0.0,0.0,0.0,0.0,0.0,0.0,0.0,0.0,0.0,0.0,0.0,0.0,0.0,0.0,0.0,0.0,0.0,0.0,-5.3139,-5.3328,-5.3789,-5.3084,-5.2352,-5.1587,-5.0867,-5.0246,-4.9717,-4.9378,0.0,0.0,0.0,0.0,-4.829,-4.829,-4.7912,-4.7346,-4.7346,-4.6954,-4.6403,-4.6403,-4.6185,-4.588,-4.588,-4.5745,-4.537,-4.4718,-4.4146,-4.3524,-4.2263,-4.118,-4.0156,-3.9442,-3.8668,-3.7916,-3.7358,-3.6998,-3.6782,-3.648,-3.6405,-3.6405,-3.6405,-3.6405,-3.6405,-3.6405,-3.6405,-3.6405,-3.6405,-3.6405,-3.6405,-3.6405,-3.6405,-3.6405,-3.6405,-3.6405,-3.6405,-3.6405,-3.6405,-3.6405,-3.6405,-3.6405,-3.6405,-3.6405,-3.6405,-3.6405,-3.6405,-3.6405,-3.6872,-3.799,-3.8868,-3.9433,-3.9697,-3.9697,-3.9697,-3.9697,-3.9697,-3.9697,-2.8408,-3.0298,-3.2254,-3.247,-3.2597,-3.28,-3.3314,-3.2922,-3.2403,-3.2229,-3.2794,-3.3494,-3.4012,-3.533,0.0,0.0,0.0,0.0,0.0,0.0,0.0,0.0,0.0,0.0,0.0,0.0,0.0,0.0,0.0,0.0,0.0,0.0,0.0,0.0,-5.1944,-5.2503,-5.3503,-5.2818,-5.2091,-5.1363,-5.0602,-4.9985,-4.9412,-4.8827,0.0,0.0,0.0,0.0,-4.7637,-4.7637,-4.7259,-4.6633,-4.6633,-4.6359,-4.588,-4.588,-4.588,-4.588,-4.5764,-4.5586,-4.529,-4.467,-4.4022,-4.3276,-4.2119,-4.1082,-4.0132,-3.9336,-3.8354,-3.7505,-3.7205,-3.6757,-3.6405,-3.6405,-3.6405,-3.6405,-3.6405,-3.6405,-3.6405,-3.6405,-3.6405,-3.6405,-3.6405,-3.6405,-3.6405,-3.6405,-3.6405,-3.6405,-3.6405,-3.6405,-3.6405,-3.6405,-3.6405,-3.6405,-3.6405,-3.6405,-3.6405,-3.6405,-3.6405,-3.6405,-3.6405,-3.6493,-3.6973,-3.799,-3.858,-3.9145,-3.9697,-3.9697,-3.9697,-3.9697,-3.9697,-3.9697,-2.8296,-3.0746,-3.2951,-3.2006,-3.2144,-3.2539,-3.2648,-3.2456,-3.2229,-3.2222,-3.3129,-3.3996,-3.4084,-3.6109,-3.7998,0.0,0.0,0.0,0.0,0.0,0.0,0.0,0.0,0.0,0.0,0.0,0.0,0.0,0.0,0.0,0.0,0.0,0.0,0.0,0.0,-5.2071,-5.2292,-5.1604,-5.0987,-5.0478,-4.9568,-4.8866,-4.8325,-4.805,-4.7927,0.0,0.0,-4.7477,-4.6969,-4.6969,-4.6606,-4.6026,-4.6026,-4.5967,-4.588,-4.588,-4.588,-4.5808,-4.5242,-4.5039,-4.4849,-4.4007,-4.3688,-4.3339,-4.204,-4.1243,-4.0498,-3.9112,-3.8116,-3.7389,-3.6896,-3.6609,-3.6405,-3.6405,-3.6405,-3.6405,-3.6405,-3.6405,-3.6405,-3.6405,-3.6405,-3.6405,-3.6405,-3.6405,-3.6405,-3.6405,-3.6405,-3.6405,-3.6405,-3.6405,-3.6405,-3.6405,-3.6405,-3.6405,-3.6405,-3.6405,-3.6405,-3.6405,-3.6405,-3.6405,-3.6405,-3.6857,-3.7362,-3.799,-3.858,-3.9145,-3.9697,-3.9697,-3.9697,-3.9697,-3.9697,-3.9697,-2.8293,-3.0867,-3.3284,-3.2811,-3.3495,-3.433,-3.4554,-3.4529,-3.4446,-3.4428,-3.4871,-3.5499,0.0,0.0,-3.8526,-4.0101,0.0,0.0,0.0,0.0,0.0,0.0,0.0,0.0,0.0,0.0,0.0,0.0,0.0,0.0,0.0,0.0,0.0,0.0,0.0,-5.0879,-5.0879,-5.0335,-5.0167,-5.0289,-4.9344,-4.8617,-4.8065,-4.7512,-4.7274,-4.7245,0.0,-4.6592,-4.6316,-4.6316,-4.6142,-4.588,-4.588,-4.588,-4.5837,-4.5474,-4.514,-4.4821,-4.4501,-4.44,-4.4298,-4.3516,-4.3199,-4.2912,-4.1839,-4.1166,-4.0574,-3.9448,-3.8427,-3.7585,-3.6862,-3.6628,-3.6534,-3.6452,-3.6405,-3.6405,-3.6405,-3.6405,-3.6405,-3.6405,-3.6405,-3.6405,-3.6405,-3.6405,-3.6405,-3.6405,-3.6405,-3.6405,-3.6405,-3.6405,-3.6405,-3.6405,-3.6405,-3.6405,-3.6405,-3.6405,-3.6405,-3.6405,-3.6405,-3.6405,-3.6405,-3.6656,-3.6998,-3.755,-3.8115,-3.868,-3.9245,-3.9546,-3.9697,-3.9697,-3.9697,-3.9697,-2.8329,-3.0738,-3.3294,-3.3712,-3.4783,-3.5875,-3.6287,-3.6501,-3.6577,-3.6502,-3.675,0.0,0.0,-3.8446,0.0,0.0,0.0,0.0,0.0,0.0,0.0,0.0,0.0,0.0,0.0,0.0,0.0,0.0,0.0,0.0,0.0,0.0,0.0,0.0,0.0,-4.9876,-4.9876,-4.9557,-4.96,-4.9959,-4.9057,-4.8296,-4.7796,-4.6993,-4.6652,-4.6577,-4.6098,-4.588,-4.588,-4.588,-4.5793,-4.5648,-4.5648,-4.5561,-4.5387,-4.4864,-4.4385,-4.3964,-4.3819,-4.3761,-4.3645,-4.2992,-4.2662,-4.2421,-4.1707,-4.117,-4.0688,-3.9954,-3.9073,-3.8109,-3.7222,-3.6849,-3.6675,-3.6499,-3.6452,-3.6405,-3.6405,-3.6405,-3.6405,-3.6405,-3.6405,-3.6405,-3.6405,-3.6405,-3.6405,-3.6405,-3.6405,-3.6405,-3.6405,-3.6405,-3.6405,-3.6405,-3.6405,-3.6405,-3.6405,-3.6405,-3.6405,-3.6405,-3.6405,-3.6405,-3.6405,-3.6405,-3.6669,-3.7174,-3.76,-3.8165,-3.8919,-3.9295,-3.9572,-3.9697,-3.9697,-3.9697,-2.8431,-3.0447,-3.2879,-3.4104,-3.5037,-3.5749,-3.6287,-3.6837,-3.7187,-3.7049,-3.8084,-3.8959,0.0,-3.9812,0.0,0.0,0.0,0.0,0.0,0.0,0.0,0.0,0.0,0.0,0.0,0.0,0.0,0.0,0.0,0.0,0.0,0.0,0.0,0.0,0.0,-4.9876,-4.9876,-4.9677,-4.9418,-4.9053,-4.8159,-4.7472,-4.6977,-4.6476,-4.6163,-4.5953,-4.5909,-4.588,-4.588,-4.588,-4.5518,-4.4951,-4.4951,-4.4618,-4.4124,-4.4066,-4.4023,-4.3906,-4.3282,-4.3065,-4.2963,-4.2353,-4.2165,-4.2109,-4.1758,-4.1507,-4.1213,-4.0445,-3.9867,-3.9206,-3.8109,-3.7281,-3.6709,-3.6675,-3.6534,-3.6405,-3.6405,-3.6405,-3.6405,-3.6405,-3.6405,-3.6405,-3.6405,-3.6405,-3.6405,-3.6405,-3.6405,-3.6405,-3.6405,-3.6405,-3.6405,-3.6405,-3.6405,-3.6405,-3.6405,-3.6405,-3.6405,-3.6405,-3.6405,-3.6405,-3.6405,-3.6405,-3.6669,-3.7174,-3.7224,-3.7776,-3.8919,-3.8957,-3.9195,-3.9697,-3.9697,-3.9697,-2.8295,-3.0305,-3.2758,-3.4056,-3.523,-3.6509,-3.8001,-3.8485,-3.8768,-3.903,-3.9516,-3.9925,0.0,0.0,0.0,0.0,0.0,0.0,0.0,0.0,0.0,0.0,0.0,0.0,0.0,0.0,0.0,0.0,0.0,0.0,0.0,0.0,0.0,0.0,0.0,-4.848,-4.9106,-4.8576,-4.8232,-4.8067,-4.8055,-4.7709,-4.7164,-4.6785,-4.6315,-4.5683,-4.5595,-4.5274,-4.4909,-4.4792,-4.456,-4.4327,-4.4327,-4.3935,-4.3369,-4.3369,-4.3137,-4.2774,-4.2528,-4.244,-4.2397,-4.2165,-4.2092,-4.2092,-4.1995,-4.1758,-4.1493,-4.1114,-4.0531,-3.9779,-3.8621,-3.7893,-3.7374,-3.7002,-3.6769,-3.6534,-3.6452,-3.6405,-3.6405,-3.6405,-3.6405,-3.6405,-3.6405,-3.6405,-3.6405,-3.6405,-3.6405,-3.6405,-3.6405,-3.6405,-3.6405,-3.6405,-3.6405,-3.6405,-3.6405,-3.6405,-3.6405,-3.6405,-3.6405,-3.6405,-3.6405,-3.6405,-3.6505,-3.6719,-3.701,-3.74,-3.7826,-3.8165,-3.863,-3.9182,-3.9182,-3.9371,-2.8635,-3.0669,-3.2985,-3.4325,-3.586,-3.7502,-3.935,-3.9758,-3.9893,-4.0421,-4.065,-4.0783,-4.1007,0.0,0.0,0.0,0.0,0.0,0.0,0.0,0.0,0.0,0.0,0.0,0.0,0.0,0.0,0.0,0.0,0.0,0.0,0.0,0.0,0.0,0.0,0.0,-4.8143,-4.781,-4.7579,-4.7502,-4.7889,-4.7701,-4.7048,-4.6736,-4.6226,-4.5554,-4.5297,-4.4918,-4.4464,-4.4194,-4.3949,-4.366,-4.3471,-4.3108,-4.2716,-4.2716,-4.2455,-4.2092,-4.2092,-4.2092,-4.2092,-4.2092,-4.2092,-4.2092,-4.2092,-4.1953,-4.1758,-4.1549,-4.1071,-4.0445,-3.9513,-3.8666,-3.7998,-3.7572,-3.7188,-3.6862,-3.6546,-3.6499,-3.6499,-3.6405,-3.6405,-3.6405,-3.6405,-3.6405,-3.6405,-3.6405,-3.6405,-3.6405,-3.6405,-3.6405,-3.6405,-3.6405,-3.6405,-3.6405,-3.6405,-3.6405,-3.6405,-3.6405,-3.6405,-3.6405,-3.6405,-3.6405,-3.6405,-3.6405,-3.6782,-3.701,-3.7186,-3.7563,-3.804,-3.8592,-3.8592,-3.8894,-2.9557,-3.156,-3.3543,-3.504,-3.6902,-3.8723,-4.0013,-4.0305,-4.0453,-4.1005,-4.1357,-4.1588,-4.1588,-4.1588,0.0,0.0,0.0,0.0,0.0,0.0,0.0,0.0,0.0,0.0,0.0,0.0,0.0,0.0,0.0,0.0,0.0,0.0,0.0,0.0,0.0,0.0,-4.7208,-4.7659,-4.7747,-4.7471,-4.7471,-4.7162,-4.6508,-4.6082,-4.5742,-4.5466,-4.5081,-4.4887,-4.4872,-4.4449,-4.3771,-4.2919,-4.2324,-4.2092,-4.2092,-4.2092,-4.2092,-4.2092,-4.2092,-4.2092,-4.2092,-4.2092,-4.2092,-4.2092,-4.2092,-4.2092,-4.2036,-4.1785,-4.1535,-4.1297,-4.0816,-3.9645,-3.8544,-3.8258,-3.7861,-3.7353,-3.6815,-3.6722,-3.6628,-3.6452,-3.6405,-3.6405,-3.6405,-3.6405,-3.6405,-3.6405,-3.6405,-3.6405,-3.6405,-3.6405,-3.6405,-3.6405,-3.6405,-3.6405,-3.6405,-3.6405,-3.6405,-3.6405,-3.6405,-3.6405,-3.6405,-3.6405,-3.6405,-3.6405,-3.6405,-3.6681,-3.7174,-3.7174,-3.7462,-3.8002,-3.8002,-3.8316,-2.9598,-3.1534,-3.3608,-3.5545,-3.7111,-3.8676,-4.0562,-4.1013,-4.1129,0.0,-4.1642,-4.1588,-4.1588,0.0,0.0,0.0,0.0,0.0,0.0,0.0,0.0,0.0,0.0,0.0,0.0,0.0,0.0,0.0,0.0,0.0,0.0,0.0,0.0,0.0,0.0,0.0,-4.6224,-4.6339,-4.6387,-4.6297,-4.6297,-4.6463,-4.6777,-4.6658,-4.6238,-4.5565,-4.5112,-4.464,-4.4138,-4.3468,-4.2955,-4.2532,-4.2247,-4.2092,-4.2092,-4.2092,-4.2092,-4.2092,-4.2092,-4.2092,-4.2092,-4.2092,-4.2092,-4.2092,-4.2092,-4.1758,-4.1395,-4.1299,-4.0804,-4.0371,-4.0666,-3.9985,-3.9088,-3.8716,-3.8277,-3.7848,-3.7328,-3.7095,-3.6922,-3.6675,-3.6628,-3.6581,-3.6405,-3.6405,-3.6405,-3.6405,-3.6405,-3.6405,-3.6405,-3.6405,-3.6405,-3.6405,-3.6405,-3.6405,-3.6405,-3.6405,-3.6405,-3.6405,-3.6405,-3.6405,-3.6405,-3.6405,-3.6405,-3.6405,-3.6405,-3.6493,-3.6656,-3.6656,-3.6885,-3.7425,-3.7425,-3.7726,-3.0641,-3.2463,-3.4376,-3.6238,-3.7846,-3.9395,-4.107,-4.1485,-4.155,0.0,-4.1571,-4.1456,-4.1406,0.0,0.0,0.0,0.0,0.0,0.0,0.0,0.0,0.0,0.0,0.0,0.0,0.0,0.0,0.0,0.0,0.0,0.0,0.0,0.0,0.0,0.0,0.0,-4.5774,-4.5798,-4.5809,-4.5809,-4.5796,-4.6029,-4.6452,-4.6375,-4.6065,-4.5547,-4.508,-4.454,-4.3849,-4.3275,-4.285,-4.2514,-4.2284,-4.2175,-4.2092,-4.2092,-4.2092,-4.2092,-4.2092,-4.2092,-4.2049,-4.1787,-4.17,-4.1642,-4.1381,-4.1018,-4.0699,-4.0699,-4.0456,-4.0246,-4.0542,-4.0555,-4.0263,-3.9543,-3.8975,-3.8384,-3.7501,-3.7222,-3.7052,-3.6703,-3.6657,-3.6641,-3.6555,-3.6546,-3.6499,-3.6405,-3.6405,-3.6405,-3.6405,-3.6405,-3.6405,-3.6405,-3.6405,-3.6405,-3.6405,-3.6405,-3.6405,-3.6405,-3.6405,-3.6405,-3.6405,-3.6405,-3.6405,-3.6405,-3.6405,-3.6405,-3.6405,-3.6405,-3.6581,-3.6908,-3.6908,-3.7149,-3.1994,-3.3778,-3.5461,-3.6961,-3.8914,-4.0635,-4.1402,-4.1719,-4.1719,-4.1323,0.0,-4.1205,0.0,0.0,0.0,0.0,0.0,0.0,0.0,0.0,0.0,0.0,0.0,0.0,0.0,0.0,0.0,0.0,0.0,0.0,0.0,0.0,0.0,0.0,0.0,0.0,-4.5603,-4.5486,-4.5559,0.0,-4.5814,-4.5749,-4.5665,-4.5578,-4.5484,-4.5384,-4.4958,-4.4409,-4.3783,-4.3566,-4.3135,-4.2592,-4.2408,-4.2179,-4.1959,-4.1988,-4.1988,-4.1988,-4.1988,-4.1918,-4.1746,-4.1137,-4.0989,-4.0902,-4.0278,-4.006,-4.0017,-4.0017,-4.0304,-4.0514,-4.0253,-4.0967,-4.1452,-4.0407,-3.9777,-3.9002,-3.751,-3.7201,-3.7065,-3.6675,-3.658,-3.6612,-3.662,-3.6569,-3.6476,-3.6254,-3.6304,-3.6329,-3.6329,-3.638,-3.6405,-3.6405,-3.6405,-3.6405,-3.6405,-3.6405,-3.6405,-3.6405,-3.6405,-3.6405,-3.6405,-3.6405,-3.6405,-3.6405,-3.6405,-3.6405,-3.6405,-3.6405,-3.6405,-3.6405,-3.6405,-3.6681,-3.0593,-3.2611,-3.4762,-3.7183,-3.9695,-4.1517,-4.1393,-4.139,-4.1323,-4.0987,-4.0901,0.0,0.0,0.0,0.0,0.0,0.0,0.0,0.0,0.0,0.0,0.0,0.0,0.0,0.0,0.0,0.0,0.0,0.0,0.0,0.0,0.0,0.0,0.0,0.0,-4.3851,-4.4161,-4.3047,-4.3598,0.0,-4.5805,-4.5426,-4.4735,-4.5412,-4.5347,-4.4584,-4.3999,-4.3479,-4.3008,-4.2655,-4.2244,-4.1841,-4.1748,-4.1312,-4.0806,-4.0996,-4.1069,-4.1069,-4.1069,-4.0622,-4.005,-3.9906,-4.0058,-4.0292,-4.0133,-3.977,-3.9392,-3.9392,-3.9097,-3.885,-3.9334,-3.9252,-3.9147,-3.9541,-4.0021,-3.9817,-3.7735,-3.7107,-3.6933,-3.672,-3.6542,-3.6319,-3.5974,-3.5654,-3.5363,-3.5123,-3.5395,-3.5671,-3.5671,-3.6094,-3.6405,-3.6405,-3.6405,-3.6405,-3.6405,-3.6405,-3.6405,-3.6405,-3.6405,-3.6405,-3.6405,-3.6405,-3.6405,-3.6405,-3.6405,-3.6405,-3.6405,-3.6405,-3.6405,-3.6405,-3.6405,-3.6468,-3.0142,-3.2473,-3.5054,-3.8054,0.0,-4.1356,-4.1311,-4.1239,-4.107,-4.0612,0.0,0.0,0.0,0.0,0.0,0.0,0.0,0.0,0.0,0.0,0.0,0.0,0.0,0.0,0.0,0.0,0.0,0.0,0.0,0.0,0.0,0.0,0.0,0.0,-4.2582,-4.2695,-4.2695,-4.1975,-4.2357,-4.3767,-4.3791,-4.3883,-4.4079,-4.4579,-4.452,-4.4051,-4.3689,-4.3376,-4.3078,-4.2757,-4.2471,-4.2136,-4.1693,-4.1009,-4.0261,-4.0534,-4.0431,-4.0201,-4.0382,-4.0172,-3.9714,-3.944,-3.9503,-3.961,-3.9291,-3.8971,-3.8725,-3.8725,-3.8463,-3.8275,-3.8638,-3.8471,-3.828,-3.8591,-3.8962,-3.886,-3.7633,-3.7154,-3.6947,-3.6957,-3.6717,-3.6441,-3.6232,-3.5727,-3.5264,-3.4951,-3.5113,-3.5244,-3.5152,-3.5403,-3.5579,-3.5579,-3.5579,-3.5579,-3.5579,-3.5579,-3.5579,-3.5579,-3.5579,-3.5692,-3.5968,-3.5968,-3.6094,-3.6405,-3.6405,-3.6405,-3.6405,-3.6405,-3.6405,-3.6405,-3.6405,-3.6405,-2.956,-3.2455,-3.5628,-3.8654,-4.0102,0.0,-4.1075,-4.1127,-4.095,0.0,0.0,0.0,0.0,0.0,0.0,0.0,0.0,0.0,0.0,0.0,0.0,0.0,0.0,0.0,0.0,0.0,0.0,0.0,0.0,0.0,0.0,0.0,-4.1588,-4.1588,-4.1588,-4.1588,-4.1588,-4.1594,-4.1604,-4.1604,-4.1619,-4.2207,-4.3358,-4.3327,-4.3472,-4.3693,-4.3437,-4.3239,-4.3069,-4.2911,-4.2765,-4.2498,-4.1637,-4.0755,-3.9977,-4.0075,-3.9785,-3.9367,-3.9673,-3.977,-3.9683,-3.9189,-3.903,-3.8928,-3.8376,-3.8202,-3.8202,-3.8202,-3.8202,-3.8202,-3.8202,-3.8202,-3.8127,-3.7924,-3.7788,-3.7627,-3.7456,-3.7268,-3.7125,-3.7161,-3.6798,-3.6466,-3.6447,-3.5982,-3.5443,-3.4984,-3.5029,-3.4946,-3.4665,-3.4708,-3.4771,-3.468,-3.468,-3.468,-3.468,-3.468,-3.468,-3.468,-3.468,-3.4881,-3.5332,-3.5357,-3.5617,-3.6116,-3.6317,-3.6405,-3.6405,-3.6405,-3.6405,-3.6405,-3.6405,-3.6405,-2.7306,0.0,-3.5704,0.0,-3.9218,-4.0577,0.0,0.0,-4.1122,0.0,0.0,0.0,0.0,0.0,0.0,0.0,0.0,0.0,0.0,0.0,0.0,0.0,0.0,0.0,0.0,0.0,0.0,0.0,0.0,0.0,0.0,-4.1588,-4.1588,-4.1588,-4.1588,-4.1588,-4.1588,-4.1587,-4.1603,-4.1603,-4.1601,-4.168,-4.1873,-4.1873,-4.256,-4.3649,-4.2416,-4.1873,-4.184,-4.1816,-4.1802,-4.1666,-4.0624,-3.9917,-3.9452,-3.898,-3.8741,-3.8623,-3.8487,-3.8449,-3.8449,-3.8362,-3.8333,-3.8318,-3.8231,-3.8202,-3.8202,-3.8202,-3.8202,-3.8202,-3.8202,-3.8202,-3.8202,-3.8165,-3.811,-3.8016,-3.7643,-3.7648,-3.7561,-3.7105,-3.6514,-3.5899,-3.5409,-3.5229,-3.498,-3.4351,-3.4637,-3.4786,-3.4293,-3.4736,-3.4963,-3.4726,-3.468,-3.468,-3.468,-3.468,-3.468,-3.468,-3.468,-3.4705,-3.4781,-3.4826,-3.4818,-3.4939,-3.5881,-3.6405,-3.6405,-3.6405,-3.6405,-3.6405,-3.6405,-3.6405,-2.8094,-3.1209,-3.4189,0.0,-3.7875,-3.9044,-3.9692,0.0,0.0,0.0,0.0,0.0,0.0,0.0,0.0,0.0,0.0,0.0,0.0,0.0,0.0,0.0,0.0,0.0,0.0,0.0,0.0,0.0,0.0,0.0,-4.1588,-4.1588,-4.1588,-4.1588,-4.1767,0.0,-4.1816,-4.1866,-4.1883,-4.1883,-4.1691,-4.1595,-4.1595,-4.1609,-4.1958,-4.2498,-4.1876,-4.1588,-4.1588,-4.1586,-4.1612,-4.1536,-4.077,-4.006,-3.9352,-3.9002,-3.8716,-3.8478,-3.8277,-3.8202,-3.8202,-3.8202,-3.8202,-3.8202,-3.8202,-3.8202,-3.8202,-3.8202,-3.8202,-3.8202,-3.8202,-3.8202,-3.8202,-3.8202,-3.8202,-3.8165,-3.7976,-3.7906,-3.773,-3.7264,-3.6822,-3.6389,-3.5843,-3.5588,-3.5277,-3.4743,-3.462,-3.448,-3.4195,-3.4168,-3.4103,-3.3959,-3.3884,-3.3796,-3.3796,-3.3796,-3.3796,-3.3796,-3.3796,-3.3935,-3.4248,-3.4261,-3.4412,-3.4668,-3.519,-3.5441,-3.5441,-3.5441,-3.5604,-3.5906,-3.5906,-3.6069,0.0,0.0,-3.2339,-3.4762,-3.6169,-3.7336,0.0,0.0,0.0,0.0,0.0,0.0,0.0,0.0,0.0,0.0,0.0,0.0,0.0,0.0,0.0,0.0,0.0,0.0,0.0,0.0,0.0,0.0,0.0,0.0,-4.1588,-4.1588,-4.1588,-4.1588,-4.1849,-4.1979,-4.1979,-4.2045,-4.2125,-4.2141,-4.1853,-4.1757,-4.1853,-4.1852,-4.1754,-4.159,-4.1606,-4.1588,-4.1588,-4.1588,-4.1601,-4.1578,-4.1211,-4.0493,-3.9632,-3.937,-3.8995,-3.8627,-3.8352,-3.824,-3.8202,-3.8202,-3.8202,-3.8202,-3.8202,-3.8202,-3.8202,-3.8202,-3.8202,-3.8202,-3.8202,-3.8202,-3.8202,-3.8202,-3.8202,-3.8202,-3.8202,-3.8028,-3.7815,-3.7495,-3.7303,-3.7017,-3.6559,-3.6217,-3.5871,-3.5399,-3.4977,-3.4647,-3.4369,-3.3937,-3.3611,-3.3471,-3.3313,-3.3154,-3.3124,-3.3124,-3.3124,-3.3124,-3.3124,-3.3257,-3.3671,-3.3696,-3.3884,-3.4299,-3.4299,-3.4449,-3.468,-3.468,-3.4893,-3.5295,-3.5295,-3.5554,0.0,-2.8221,0.0,-3.2133,-3.4031,0.0,0.0,0.0,0.0,0.0,0.0,0.0,0.0,0.0,0.0,0.0,0.0,0.0,0.0,0.0,0.0,0.0,0.0,0.0,0.0,0.0,0.0,0.0,0.0,0.0,-4.1588,-4.1588,-4.1588,-4.1588,-4.1784,-4.1914,-4.1914,-4.2029,-4.2157,-4.2302,-4.2141,-4.2238,-4.2543,-4.2543,-4.2189,-4.1593,-4.1623,-4.1588,-4.1588,-4.1588,-4.1601,-4.1594,-4.1572,-4.1106,-4.037,-3.9859,-3.943,-3.9031,-3.8627,-3.8366,-3.8202,-3.8202,-3.8202,-3.8202,-3.8202,-3.8202,-3.8202,-3.8202,-3.8202,-3.8202,-3.8202,-3.8202,-3.8202,-3.8202,-3.8202,-3.8202,-3.8202,-3.8028,-3.7891,-3.7853,-3.7701,-3.7419,-3.7017,-3.694,-3.6705,-3.6031,-3.575,-3.5467,-3.5086,-3.466,-3.4189,-3.3713,-3.3513,-3.3313,-3.3124,-3.3124,-3.3124,-3.3124,-3.3124,-3.3093,-3.3162,-3.3162,-3.3131,-3.3156,-3.3156,-3.3671,-3.468,-3.468,-3.4693,-3.4718,-3.4718,-3.4776,0.0,0.0,0.0,-3.0378,-3.1823,-3.3198,0.0,0.0,0.0,0.0,0.0,0.0,0.0,0.0,0.0,0.0,0.0,0.0,0.0,0.0,0.0,0.0,0.0,0.0,0.0,0.0,0.0,0.0,0.0,0.0,-4.0956,-4.1367,-4.167,-4.1784,-4.1947,-4.219,-4.2524,-4.2587,-4.2681,-4.2806,-4.2534,-4.2472,-4.2602,-4.262,-4.2222,-4.1596,-4.161,-4.1591,-4.1588,-4.1588,-4.1587,-4.1601,-4.1578,-4.1437,-4.1109,-4.0329,-3.9619,-3.9002,-3.8612,-3.8366,-3.8202,-3.8202,-3.8202,-3.8202,-3.8202,-3.8202,-3.8202,-3.8202,-3.8202,-3.8202,-3.8202,-3.8202,-3.8202,-3.8202,-3.8202,-3.8202,-3.8202,-3.8127,-3.8104,-3.8104,-3.7915,-3.7739,-3.7625,-3.7264,-3.69,-3.6665,-3.6191,-3.579,-3.5521,-3.5113,-3.466,-3.4189,-3.381,-3.3513,-3.3313,-3.3154,-3.3124,-3.3124,-3.3124,-3.3124,-3.3124,-3.3124,-3.3124,-3.3124,-3.3124,-3.3269,-3.3671,-3.3671,-3.3847,-3.4198,-3.4198,-3.4387,-2.3634,0.0,0.0,0.0,0.0,-3.0977,0.0,0.0,0.0,0.0,0.0,0.0,0.0,0.0,0.0,0.0,0.0,0.0,0.0,0.0,0.0,0.0,0.0,0.0,0.0,0.0,0.0,0.0,0.0,0.0,-4.0341,-4.0768,-4.1103,-4.1358,-4.1485,-4.1879,-4.2525,-4.2633,-4.2869,-4.3204,-4.2933,-4.2839,-4.2829,-4.2661,-4.2347,-4.1917,-4.1709,-4.1593,-4.1588,-4.1588,-4.1588,-4.1604,-4.1584,-4.1527,-4.1336,-4.0558,-3.9803,-3.9088,-3.8708,-3.8427,-3.8202,-3.8202,-3.8202,-3.8202,-3.8202,-3.8202,-3.8202,-3.8202,-3.8202,-3.8202,-3.8202,-3.8202,-3.8202,-3.8202,-3.8202,-3.8202,-3.8202,-3.8202,-3.8202,-3.8202,-3.8104,-3.7967,-3.7891,-3.7586,-3.7264,-3.7226,-3.6705,-3.627,-3.6151,-3.571,-3.5236,-3.4771,-3.4314,-3.3937,-3.3654,-3.3356,-3.3197,-3.3197,-3.3154,-3.3124,-3.3124,-3.3124,-3.3124,-3.3124,-3.3124,-3.3124,-3.3124,-3.3124,-3.3269,-3.3621,-3.3621,-3.3822,0.0,0.0,0.0,0.0,0.0,0.0,0.0,0.0,0.0,0.0,0.0,0.0,0.0,0.0,0.0,0.0,0.0,0.0,0.0,0.0,0.0,0.0,0.0,0.0,0.0,0.0,0.0,0.0,0.0,-3.9549,-3.9768,-3.9799,-3.997,-4.0305,-4.0455,-4.0913,-4.1776,-4.2134,-4.2644,-4.3366,-4.3303,-4.3287,-4.3257,-4.2796,-4.2582,-4.2522,-4.1901,-4.1611,-4.1621,-4.1588,-4.1588,-4.1621,-4.1588,-4.1409,-4.1064,-4.0665,-4.003,-3.9352,-3.8936,-3.8523,-3.8202,-3.8202,-3.8202,-3.8202,-3.8202,-3.8202,-3.8202,-3.8202,-3.8202,-3.8202,-3.8202,-3.8202,-3.8202,-3.8202,-3.8202,-3.8202,-3.8202,-3.8202,-3.8202,-3.8202,-3.8202,-3.8127,-3.7929,-3.7891,-3.7815,-3.7663,-3.7264,-3.7017,-3.6978,-3.6429,-3.5871,-3.548,-3.5018,-3.4564,-3.416,-3.3696,-3.3398,-3.3398,-3.324,-3.3124,-3.3124,-3.3124,-3.3124,-3.3124,-3.3124,-3.3124,-3.3124,-3.3124,-3.3124,-3.3124,-3.3124,-3.3124,-2.2877,0.0,0.0,0.0,0.0,0.0,0.0,0.0,0.0,0.0,0.0,0.0,0.0,0.0,0.0,0.0,0.0,0.0,0.0,0.0,0.0,0.0,0.0,0.0,0.0,0.0,0.0,0.0,0.0,-3.8837,-3.9004,-3.9727,-4.0244,-4.0455,-4.0674,-4.102,-4.1523,-4.1792,-4.2105,-4.2468,-4.2786,-4.2785,-4.2508,-4.2815,-4.2463,-4.1604,-4.1948,-4.2062,-4.1948,-4.1687,-4.1735,-4.1945,-4.1686,-4.154,-4.1376,-4.0743,-4.0159,-3.9596,-3.8911,-3.8546,-3.8404,-3.824,-3.8202,-3.8202,-3.8202,-3.8202,-3.8202,-3.8202,-3.8202,-3.8202,-3.8202,-3.8202,-3.8202,-3.8202,-3.8202,-3.8202,-3.8202,-3.8202,-3.8202,-3.8202,-3.8202,-3.8165,-3.8142,-3.8005,-3.7891,-3.7815,-3.7625,-3.7341,-3.7017,-3.6822,-3.6508,-3.5911,-3.5467,-3.5018,-3.4551,-3.4147,-3.3781,-3.3441,-3.3356,-3.324,-3.3124,-3.3124,-3.3124,-3.3124,-3.3124,-3.3124,-3.3124,-3.3124,-3.3124,-3.3124,-3.3124,-3.3124,-2.3255,-2.3713,0.0,0.0,0.0,0.0,0.0,0.0,0.0,0.0,0.0,0.0,0.0,0.0,0.0,0.0,0.0,0.0,0.0,0.0,0.0,0.0,0.0,0.0,0.0,0.0,0.0,0.0,-3.7506,-3.8155,-3.8378,-3.9133,-3.9638,-3.9796,-4.0106,-4.053,-4.1111,-4.1466,-4.1866,-4.2257,-4.254,-4.25,-4.2238,-4.2387,-4.2005,-4.1195,-4.1455,-4.148,-4.134,-4.1374,-4.1676,-4.2076,-4.1866,-4.1721,-4.1525,-4.1013,-4.0423,-3.9818,-3.917,-3.8789,-3.8575,-3.8389,-3.8277,-3.8202,-3.8202,-3.8202,-3.8202,-3.8202,-3.8202,-3.8202,-3.8202,-3.8202,-3.8202,-3.8202,-3.8202,-3.8202,-3.8202,-3.8202,-3.8202,-3.8202,-3.8202,-3.8202,-3.8202,-3.8104,-3.8028,-3.8028,-3.7853,-3.7663,-3.7419,-3.7303,-3.7017,-3.6468,-3.6111,-3.571,-3.5168,-3.4729,-3.4327,-3.3852,-3.3738,-3.3526,-3.324,-3.324,-3.3197,-3.3124,-3.3124,-3.3124,-3.3124,-3.3124,-3.3124,-3.3124,-3.3124,-3.3124,-2.3618,-2.4015,-2.4478,0.0,0.0,0.0,-2.6182,-2.7221,0.0,0.0,0.0,0.0,0.0,0.0,0.0,0.0,0.0,0.0,0.0,0.0,0.0,0.0,0.0,0.0,0.0,0.0,0.0,-3.5861,-3.681,-3.7467,-3.7716,-3.8282,-3.8683,-3.8849,-3.9222,-3.9814,-4.0625,-4.1103,-4.1665,-4.2303,-4.2303,-4.2224,-4.2057,-4.1692,-4.1337,-4.1042,-4.0674,-4.0439,-4.0353,-4.0858,-4.1421,-4.1997,-4.2077,-4.1933,-4.1658,-4.1344,-4.0813,-4.019,-3.9677,-3.9218,-3.887,-3.8627,-3.8404,-3.824,-3.8277,-3.824,-3.824,-3.8277,-3.824,-3.824,-3.824,-3.8202,-3.8202,-3.8202,-3.8202,-3.8202,-3.8202,-3.8202,-3.8202,-3.8202,-3.8202,-3.8202,-3.8202,-3.8202,-3.8202,-3.8202,-3.8066,-3.7944,-3.7891,-3.7739,-3.7495,-3.7109,-3.6861,-3.6468,-3.5871,-3.544,-3.499,-3.4522,-3.4327,-3.3992,-3.3484,-3.3441,-3.3356,-3.3154,-3.3124,-3.3124,-3.3124,-3.3124,-3.3124,-3.3124,-3.3124,-3.3124,-2.5303,-2.5183,-2.5204,-2.5169,0.0,0.0,0.0,-2.6138,0.0,0.0,0.0,0.0,0.0,0.0,0.0,0.0,0.0,0.0,0.0,0.0,0.0,0.0,0.0,0.0,0.0,0.0,-3.4967,-3.524,-3.6126,-3.6638,-3.6701,-3.7963,-3.8816,-3.9095,-3.9475,-3.9848,-4.0197,-4.0633,-4.0915,-4.107,-4.107,-4.0905,-4.0671,-4.0815,-4.0668,-4.0318,-4.0547,-4.0586,-4.0483,-4.0552,-4.0945,-4.1514,-4.1917,-4.211,-4.211,-4.1688,-4.1421,-4.12,-4.0274,-3.9763,-3.9466,-3.9104,-3.8738,-3.8478,-3.8634,-3.8575,-3.8478,-3.8649,-3.8575,-3.8441,-3.8441,-3.8315,-3.8202,-3.8202,-3.8202,-3.8202,-3.8202,-3.8202,-3.8202,-3.8202,-3.8202,-3.8202,-3.8202,-3.8202,-3.8202,-3.8202,-3.8165,-3.8066,-3.7929,-3.7853,-3.7739,-3.7495,-3.7148,-3.6822,-3.6547,-3.6071,-3.5602,-3.499,-3.4908,-3.4618,-3.3992,-3.3768,-3.3556,-3.3356,-3.3197,-3.3124,-3.3124,-3.3124,-3.3124,-3.3124,-3.3124,-3.3124,-2.6785,-2.6593,-2.6477,-2.6138,0.0,0.0,0.0,0.0,0.0,0.0,0.0,0.0,0.0,0.0,0.0,0.0,0.0,0.0,0.0,0.0,0.0,0.0,0.0,0.0,0.0,0.0,-3.422,-3.5175,-3.5979,-3.6419,-3.6385,-3.7486,-3.8259,-3.8593,-3.8765,-3.8979,-3.9238,-3.9877,-4.0231,-4.0319,-4.0716,-4.0793,-4.06,-4.0595,-4.0354,-3.99,-3.9962,-3.9846,-3.9592,-3.9949,-4.0235,-4.0458,-4.1076,-4.1414,-4.159,-4.1452,-4.1231,-4.0862,-3.9672,-3.9155,-3.9028,-3.8908,-3.8599,-3.8348,-3.8694,-3.8723,-3.8686,-3.8745,-3.8723,-3.8612,-3.8516,-3.8441,-3.8315,-3.8202,-3.8202,-3.8202,-3.8202,-3.8202,-3.8202,-3.8202,-3.8202,-3.8202,-3.8202,-3.8202,-3.8202,-3.8202,-3.8202,-3.8165,-3.8066,-3.8066,-3.7953,-3.7777,-3.7586,-3.7341,-3.7017,-3.6705,-3.627,-3.5736,-3.5588,-3.5263,-3.4618,-3.4343,-3.3937,-3.3398,-3.3313,-3.3197,-3.3124,-3.3124,-3.3124,-3.3124,-3.3124,-3.3124,0.0,0.0,0.0,0.0,0.0,-2.6506,0.0,0.0,0.0,-2.5451,0.0,0.0,0.0,0.0,0.0,0.0,0.0,0.0,0.0,0.0,0.0,0.0,0.0,0.0,0.0,0.0,-3.3164,-3.4616,-3.5438,-3.583,-3.5819,-3.6718,-3.7394,-3.7593,-3.7872,-3.8127,-3.8391,-3.9152,-3.9582,-3.9708,-4.0371,-4.0706,-4.0711,-4.0432,-4.011,-3.9738,-3.9441,-3.9067,-3.8721,-3.9279,-3.9467,-3.9433,-4.0232,-4.0672,-4.0853,-4.1042,-4.0688,-3.9971,-3.9031,-3.8618,-3.8539,-3.8588,-3.8337,-3.807,-3.8375,-3.8486,-3.8523,-3.8523,-3.8486,-3.8428,-3.8223,-3.815,-3.8076,-3.7876,-3.7839,-3.7839,-3.7839,-3.7839,-3.7839,-3.7839,-3.7839,-3.7912,-3.8159,-3.8202,-3.8202,-3.8202,-3.8202,-3.8202,-3.8202,-3.8202,-3.8127,-3.7967,-3.7929,-3.7777,-3.7419,-3.7226,-3.694,-3.6506,-3.6296,-3.5951,-3.5345,-3.4922,-3.4343,-3.3569,-3.3471,-3.3356,-3.3154,-3.3154,-3.3154,-3.3124,-3.3124,-3.3124,0.0,0.0,0.0,0.0,-2.6701,0.0,0.0,0.0,-2.5597,-2.5578,0.0,0.0,0.0,0.0,0.0,0.0,0.0,0.0,0.0,0.0,0.0,0.0,0.0,0.0,0.0,0.0,0.0,-3.2237,-3.3308,-3.3827,-3.3665,-3.5413,-3.6365,-3.6224,-3.7381,-3.8127,-3.8391,-3.8743,-3.8906,-3.8928,-3.9085,-3.9445,-3.9991,-3.9737,-3.973,-3.9927,-3.9549,-3.9222,-3.8958,-3.8931,-3.8908,-3.9011,-4.0196,-4.0612,-4.055,-4.0707,-3.9849,-3.8748,-3.9527,-3.9424,-3.8915,-3.8733,-3.8269,-3.7691,-3.7387,-3.7436,-3.756,-3.756,-3.7436,-3.7277,-3.7116,-3.694,-3.6748,-3.6554,-3.6519,-3.6519,-3.6519,-3.6519,-3.6519,-3.6519,-3.6519,-3.6881,-3.8014,-3.8202,-3.8202,-3.8202,-3.8202,-3.8202,-3.8202,-3.8202,-3.8202,-3.8165,-3.8005,-3.7891,-3.7853,-3.7663,-3.7419,-3.7211,-3.6978,-3.6652,-3.6189,-3.5237,-3.4481,-3.4034,-3.381,-3.3556,-3.3356,-3.3356,-3.3283,-3.3124,-3.3124,-3.3124,0.0,0.0,0.0,0.0,0.0,0.0,-2.6029,0.0,-2.5749,0.0,0.0,0.0,0.0,0.0,0.0,0.0,0.0,0.0,0.0,0.0,0.0,0.0,0.0,0.0,0.0,0.0,0.0,0.0,0.0,-3.2353,-3.3247,-3.417,-3.5008,-3.5742,-3.6388,-3.687,-3.718,-3.7785,-3.8178,-3.8345,-3.8802,-3.9168,-3.9438,-3.9212,-3.9049,-3.8962,-3.8984,-3.8802,-3.851,-3.8788,-3.8887,-3.8854,-3.9476,-3.9633,-3.9516,-3.9576,-3.9316,-3.8938,-3.904,-3.8768,-3.8335,-3.8089,-3.7857,-3.7673,-3.7503,-3.7419,-3.7404,-3.7404,-3.7351,-3.7248,-3.7055,-3.695,-3.6845,-3.6655,-3.6585,-3.6585,-3.6585,-3.6585,-3.6549,-3.6493,-3.6458,-3.6633,-3.7012,-3.7099,-3.7099,-3.7099,-3.7433,-3.768,-3.768,-3.7984,-3.8202,-3.8202,-3.8127,-3.8066,-3.8066,-3.7891,-3.7739,-3.7663,-3.7226,-3.6861,-3.6573,-3.5857,-3.5223,-3.4701,-3.4577,-3.4272,-3.3823,-3.3641,-3.3471,-3.3283,-3.3154,-3.3124,-3.0081,0.0,0.0,0.0,0.0,0.0,0.0,0.0,0.0,0.0,0.0,0.0,0.0,0.0,0.0,0.0,0.0,0.0,0.0,0.0,0.0,0.0,0.0,0.0,0.0,0.0,0.0,0.0,0.0,0.0,-3.2296,-3.3259,-3.429,-3.548,-3.5695,-3.5954,-3.6276,-3.6997,-3.7443,-3.7644,-3.823,-3.8636,-3.8828,-3.8629,-3.8449,-3.8317,-3.8396,-3.8279,-3.7958,-3.8322,-3.842,-3.8323,-3.8447,-3.8496,-3.8558,-3.8843,-3.9057,-3.9144,-3.8725,-3.825,-3.7778,-3.739,-3.7328,-3.7364,-3.7265,-3.7083,-3.6933,-3.6933,-3.6915,-3.6813,-3.6624,-3.659,-3.6522,-3.6335,-3.6286,-3.6286,-3.6286,-3.6286,-3.6266,-3.6142,-3.6142,-3.6073,-3.5898,-3.6119,-3.6301,-3.6301,-3.6722,-3.7041,-3.7041,-3.7578,-3.7955,-3.7955,-3.8101,-3.813,-3.797,-3.782,-3.7636,-3.7374,-3.7139,-3.6841,-3.6532,-3.6306,-3.5911,-3.5358,-3.5236,-3.4908,-3.4369,-3.4063,-3.381,-3.3569,-3.324,-3.3124,0.0,0.0,0.0,-2.835,0.0,0.0,0.0,0.0,-2.5897,0.0,0.0,0.0,0.0,0.0,-2.5651,-2.4929,0.0,0.0,0.0,0.0,0.0,0.0,0.0,0.0,0.0,0.0,0.0,0.0,0.0,0.0,-2.9994,-3.279,-3.4651,-3.5301,-3.5644,-3.5927,-3.6204,-3.6554,-3.6737,-3.6737,-3.6958,-3.7444,-3.8126,-3.7917,-3.8101,-3.8572,-3.8044,-3.772,-3.7493,-3.7269,-3.7159,-3.7143,-3.7159,-3.7434,-3.7951,-3.8927,-3.9164,-3.9029,-3.9002,-3.8412,-3.7583,-3.6923,-3.6647,-3.6491,-3.6129,-3.5923,-3.5748,-3.5748,-3.5649,-3.5499,-3.532,-3.524,-3.5207,-3.4994,-3.496,-3.496,-3.496,-3.496,-3.496,-3.496,-3.496,-3.4894,-3.4756,-3.5607,-3.6301,-3.6301,-3.633,-3.6344,-3.6344,-3.6925,-3.7346,-3.7346,-3.7854,-3.797,-3.7389,-3.7331,-3.6946,-3.6101,-3.6662,-3.6725,-3.6055,-3.6437,-3.6468,-3.5991,-3.5602,-3.5277,-3.5086,-3.4605,-3.4272,-3.4076,-3.3411,-3.3124,0.0,0.0,-2.9987,-2.8504,0.0,0.0,0.0,0.0,0.0,0.0,0.0,0.0,0.0,0.0,-2.5651,-2.4914,-2.439,0.0,0.0,0.0,0.0,0.0,0.0,0.0,0.0,0.0,0.0,0.0,0.0,0.0,0.0,-3.0997,-3.2386,-3.4064,-3.4617,-3.5259,-3.6062,-3.6398,-3.6626,-3.6768,-3.6928,-3.713,-3.7374,-3.717,-3.7064,-3.7073,-3.7081,-3.6946,-3.679,-3.7004,-3.7102,-3.7102,-3.7102,-3.721,-3.7427,-3.805,-3.7855,-3.734,-3.785,-3.7987,-3.7902,-3.7508,-3.7104,-3.6723,-3.6523,-3.6274,-3.5975,-3.5752,-3.5671,-3.5589,-3.5424,-3.5392,-3.5359,-3.5326,-3.5294,-3.5294,-3.5294,-3.5294,-3.5261,-3.5115,-3.5115,-3.5049,-3.4883,-3.5049,-3.5205,-3.5053,-3.5415,-3.5712,-3.5712,-3.6243,-3.6649,-3.6649,-3.6823,-3.6867,-3.6664,-3.6649,-3.6512,-3.6208,-3.6303,-3.6236,-3.6002,-3.6031,-3.5883,-3.5619,-3.5353,-3.5047,-3.4699,-3.4151,-3.3754,-3.3501,-3.2856,-3.2855,-3.0422,-3.0422,0.0,0.0,-2.8679,0.0,-2.6916,0.0,0.0,0.0,0.0,0.0,0.0,0.0,0.0,-2.4691,-2.4115,0.0,0.0,0.0,0.0,0.0,0.0,0.0,0.0,0.0,-2.4269,-2.5027,0.0,0.0,0.0,0.0,-3.1079,-3.2908,-3.3623,-3.4467,-3.5457,-3.588,-3.6304,-3.6708,-3.6908,-3.7007,-3.6987,-3.6786,-3.6544,-3.6297,-3.6315,-3.6171,-3.6021,-3.6223,-3.6324,-3.6324,-3.6324,-3.6324,-3.639,-3.7044,-3.6868,-3.6418,-3.7291,-3.7519,-3.7403,-3.7166,-3.6951,-3.6742,-3.6548,-3.643,-3.6305,-3.5975,-3.5617,-3.5309,-3.5194,-3.4966,-3.4846,-3.5085,-3.513,-3.5205,-3.5444,-3.5504,-3.5472,-3.5326,-3.5326,-3.5261,-3.5034,-3.4949,-3.4798,-3.4549,-3.4796,-3.5024,-3.5024,-3.5575,-3.5967,-3.5967,-3.617,-3.6214,-3.5996,-3.5764,-3.5633,-3.5633,-3.5745,-3.5754,-3.5683,-3.5755,-3.5703,-3.5498,-3.53,-3.5041,-3.4705,-3.4175,-3.3779,-3.3534,-3.3066,-3.3024]},{"header":{"parameterUnit":"m.s-1","parameterCategory":1,"la1":30.6,"la2":29.2853,"lo1":-89.7004,"lo2":-87.6739,"dy":0.0162,"dx":0.0183,"nx":112,"ny":82,"refTime":"2024-08-17T00:00:00:Z","depth":0,"parameterNumber":3,"parameterNumberName":"V-component_of_WINDS"},"data":[0.0,0.0,0.0,0.0,0.0,0.0,0.0,0.0,0.0,0.0,0.0,0.0,0.0,0.0,0.0,0.0,0.0,0.0,0.0,0.0,0.0,0.0,0.0,0.0,0.0,0.0,0.0,0.0,0.0,0.0,0.0,0.0,0.0,0.0,0.0,0.0,0.0,0.0,0.0,0.0,0.0,0.0,0.0,0.0,0.0,0.0,0.0,0.0,0.0,0.0,0.0,0.0,0.0,0.0,0.0,0.0,0.0,0.0,0.0,0.0,0.0,0.0,0.0,0.0,0.0,0.0,0.0,0.0,0.0,0.0,0.0,0.0,0.0,0.0,0.0,0.0,0.0,0.0,0.0,0.0,0.0,0.0,0.0,0.0,0.0,0.0,0.0,0.0,0.0,0.0,0.0,-3.7132,-4.0238,-4.2244,-4.2559,-4.11,-3.8865,-3.5725,0.0,0.0,0.0,0.0,0.0,0.0,0.0,0.0,0.0,0.0,0.0,0.0,0.0,0.0,0.0,0.0,0.0,0.0,0.0,0.0,0.0,0.0,0.0,0.0,0.0,0.0,0.0,0.0,0.0,0.0,0.0,0.0,0.0,0.0,0.0,0.0,0.0,0.0,0.0,0.0,0.0,0.0,0.0,0.0,0.0,0.0,0.0,0.0,0.0,0.0,0.0,0.0,0.0,0.0,0.0,0.0,0.0,0.0,0.0,0.0,0.0,0.0,0.0,0.0,0.0,0.0,0.0,0.0,0.0,0.0,0.0,0.0,0.0,0.0,0.0,0.0,0.0,0.0,0.0,0.0,0.0,0.0,0.0,0.0,0.0,0.0,0.0,0.0,0.0,0.0,0.0,0.0,0.0,0.0,0.0,0.0,0.0,0.0,0.0,0.0,0.0,0.0,0.0,0.0,-3.6014,-4.0829,-4.2678,-4.3443,-4.3122,-4.2038,-3.9831,-3.6295,0.0,0.0,0.0,0.0,0.0,0.0,0.0,0.0,0.0,0.0,0.0,0.0,0.0,0.0,0.0,0.0,0.0,0.0,0.0,0.0,0.0,0.0,0.0,0.0,0.0,0.0,0.0,0.0,0.0,0.0,0.0,0.0,0.0,0.0,0.0,0.0,0.0,0.0,0.0,0.0,0.0,0.0,0.0,0.0,0.0,0.0,0.0,0.0,0.0,0.0,0.0,0.0,0.0,0.0,0.0,0.0,0.0,0.0,0.0,0.0,0.0,0.0,0.0,0.0,0.0,0.0,0.0,0.0,0.0,0.0,0.0,0.0,0.0,0.0,0.0,0.0,0.0,0.0,0.0,0.0,0.0,0.0,0.0,0.0,0.0,0.0,0.0,0.0,0.0,0.0,0.0,0.0,0.0,0.0,0.0,0.0,0.0,0.0,0.0,0.0,0.0,0.0,0.0,-3.5911,-3.8727,-4.256,-4.354,-4.4011,-4.4306,-4.2421,-4.0011,-3.7212,-3.4062,0.0,0.0,0.0,0.0,0.0,0.0,0.0,0.0,0.0,0.0,0.0,0.0,0.0,0.0,0.0,0.0,0.0,0.0,0.0,0.0,0.0,0.0,0.0,0.0,0.0,0.0,0.0,0.0,0.0,0.0,0.0,0.0,0.0,0.0,0.0,0.0,0.0,0.0,0.0,0.0,0.0,0.0,0.0,0.0,0.0,0.0,0.0,0.0,0.0,0.0,0.0,0.0,0.0,0.0,0.0,0.0,0.0,0.0,0.0,0.0,0.0,0.0,0.0,0.0,0.0,0.0,0.0,0.0,0.0,0.0,0.0,0.0,0.0,0.0,0.0,0.0,0.0,0.0,0.0,0.0,0.0,0.0,0.0,0.0,0.0,0.0,0.0,0.0,0.0,0.0,0.0,0.0,0.0,0.0,0.0,0.0,0.0,0.0,0.0,0.0,0.0,0.0,-3.828,-4.0822,-4.3475,-4.4018,-4.4511,-4.5184,-4.2697,-4.0046,-3.7503,-3.4348,0.0,0.0,0.0,0.0,0.0,0.0,0.0,0.0,0.0,0.0,0.0,0.0,0.0,0.0,0.0,0.0,0.0,0.0,0.0,0.0,0.0,0.0,0.0,0.0,0.0,0.0,0.0,0.0,0.0,0.0,0.0,0.0,0.0,0.0,0.0,0.0,0.0,0.0,0.0,0.0,0.0,0.0,0.0,0.0,0.0,0.0,0.0,0.0,0.0,0.0,0.0,0.0,0.0,0.0,0.0,0.0,0.0,0.0,0.0,0.0,0.0,0.0,0.0,0.0,0.0,0.0,0.0,0.0,0.0,0.0,0.0,0.0,0.0,0.0,0.0,0.0,0.0,0.0,0.0,0.0,0.0,0.0,0.0,0.0,0.0,0.0,0.0,0.0,0.0,0.0,0.0,0.0,0.0,0.0,0.0,0.0,0.0,0.0,0.0,0.0,0.0,0.0,-3.878,-4.1408,-4.3999,-4.4806,-4.5139,-4.5035,-4.3061,-4.0248,-3.6543,-3.3738,0.0,0.0,0.0,0.0,0.0,0.0,0.0,0.0,0.0,0.0,0.0,0.0,0.0,0.0,0.0,0.0,0.0,0.0,0.0,0.0,0.0,0.0,0.0,0.0,0.0,0.0,0.0,0.0,0.0,0.0,0.0,0.0,0.0,0.0,0.0,0.0,0.0,0.0,0.0,0.0,0.0,0.0,0.0,0.0,0.0,0.0,0.0,0.0,0.0,0.0,0.0,0.0,0.0,0.0,0.0,0.0,0.0,0.0,0.0,0.0,0.0,0.0,0.0,0.0,0.0,0.0,0.0,0.0,0.0,0.0,0.0,0.0,0.0,0.0,0.0,0.0,0.0,0.0,0.0,0.0,0.0,0.0,0.0,0.0,0.0,0.0,0.0,0.0,0.0,0.0,0.0,0.0,0.0,0.0,0.0,0.0,0.0,0.0,0.0,0.0,0.0,0.0,-3.8846,-4.1381,0.0,-4.4458,-4.4818,-4.478,-4.2475,-3.9703,-3.6566,0.0,0.0,0.0,0.0,0.0,0.0,0.0,0.0,0.0,0.0,0.0,0.0,0.0,0.0,0.0,0.0,0.0,0.0,0.0,0.0,0.0,0.0,0.0,0.0,0.0,0.0,0.0,0.0,0.0,0.0,0.0,0.0,0.0,0.0,0.0,0.0,0.0,0.0,0.0,0.0,0.0,0.0,0.0,0.0,0.0,0.0,0.0,0.0,0.0,0.0,0.0,0.0,0.0,0.0,0.0,0.0,0.0,0.0,0.0,0.0,0.0,0.0,0.0,0.0,0.0,0.0,0.0,0.0,0.0,0.0,0.0,0.0,0.0,0.0,0.0,0.0,0.0,0.0,0.0,0.0,0.0,0.0,0.0,0.0,0.0,0.0,0.0,0.0,0.0,0.0,0.0,0.0,0.0,0.0,0.0,0.0,0.0,0.0,0.0,0.0,0.0,0.0,-3.5968,-3.8846,-4.1309,0.0,-4.4209,-4.4533,-4.4317,-4.1971,-3.9152,-3.6045,0.0,0.0,0.0,0.0,0.0,0.0,0.0,0.0,0.0,0.0,0.0,0.0,0.0,0.0,0.0,0.0,0.0,0.0,0.0,0.0,0.0,0.0,0.0,0.0,0.0,0.0,0.0,0.0,0.0,0.0,0.0,0.0,0.0,0.0,0.0,0.0,0.0,0.0,0.0,0.0,0.0,0.0,0.0,0.0,0.0,0.0,0.0,0.0,0.0,0.0,0.0,0.0,0.0,0.0,0.0,0.0,0.0,0.0,0.0,0.0,0.0,0.0,0.0,0.0,0.0,0.0,0.0,0.0,0.0,0.0,0.0,0.0,0.0,0.0,0.0,0.0,0.0,0.0,0.0,0.0,0.0,0.0,0.0,0.0,0.0,0.0,0.0,0.0,0.0,0.0,0.0,0.0,0.0,0.0,0.0,0.0,0.0,0.0,0.0,0.0,0.0,0.0,-3.5968,-3.8846,-4.1309,-4.3377,-4.4209,-4.4348,-4.3655,-4.1694,-3.88,0.0,0.0,0.0,0.0,0.0,0.0,0.0,0.0,0.0,0.0,0.0,0.0,0.0,0.0,0.0,0.0,0.0,0.0,0.0,0.0,0.0,0.0,0.0,0.0,0.0,0.0,0.0,0.0,0.0,0.0,0.0,0.0,0.0,0.0,0.0,0.0,0.0,0.0,0.0,0.0,0.0,0.0,0.0,0.0,0.0,0.0,0.0,0.0,0.0,0.0,0.0,0.0,0.0,0.0,0.0,0.0,0.0,0.0,0.0,0.0,0.0,0.0,0.0,0.0,0.0,0.0,0.0,0.0,0.0,0.0,0.0,0.0,0.0,0.0,0.0,0.0,0.0,0.0,0.0,0.0,0.0,0.0,0.0,0.0,0.0,0.0,0.0,0.0,0.0,0.0,0.0,0.0,0.0,0.0,0.0,0.0,0.0,0.0,0.0,0.0,0.0,0.0,0.0,-3.5968,-3.8846,-4.114,-4.2725,-4.391,-4.4125,-4.2987,-4.1397,-3.9,-3.5444,0.0,0.0,0.0,0.0,0.0,0.0,0.0,0.0,0.0,0.0,0.0,0.0,0.0,0.0,0.0,0.0,0.0,0.0,0.0,0.0,0.0,0.0,0.0,0.0,0.0,0.0,0.0,0.0,0.0,0.0,0.0,0.0,0.0,0.0,0.0,0.0,0.0,0.0,0.0,0.0,0.0,0.0,0.0,0.0,0.0,0.0,0.0,0.0,0.0,0.0,0.0,0.0,0.0,0.0,0.0,0.0,0.0,0.0,0.0,0.0,0.0,0.0,0.0,0.0,0.0,0.0,0.0,0.0,0.0,0.0,0.0,0.0,0.0,0.0,0.0,0.0,0.0,0.0,0.0,0.0,0.0,0.0,0.0,0.0,0.0,0.0,0.0,0.0,0.0,0.0,0.0,0.0,0.0,0.0,0.0,0.0,0.0,0.0,0.0,0.0,0.0,0.0,-3.6368,-3.9031,-4.112,-4.2817,-4.3941,-4.4194,-4.3079,-4.174,-3.9616,-3.6476,0.0,0.0,0.0,0.0,0.0,0.0,0.0,0.0,0.0,0.0,0.0,0.0,0.0,0.0,0.0,0.0,0.0,0.0,0.0,0.0,0.0,0.0,0.0,0.0,0.0,0.0,0.0,0.0,0.0,0.0,0.0,0.0,0.0,0.0,0.0,0.0,0.0,0.0,0.0,0.0,0.0,0.0,0.0,0.0,0.0,0.0,0.0,0.0,0.0,0.0,0.0,0.0,0.0,0.0,0.0,0.0,0.0,0.0,0.0,0.0,0.0,0.0,0.0,0.0,0.0,0.0,0.0,0.0,0.0,0.0,0.0,0.0,0.0,0.0,0.0,0.0,0.0,0.0,0.0,0.0,0.0,0.0,0.0,0.0,0.0,0.0,0.0,0.0,0.0,0.0,0.0,0.0,0.0,0.0,0.0,0.0,0.0,0.0,0.0,0.0,0.0,0.0,-3.6751,-3.9149,-4.1309,-4.3325,-4.4209,-4.4348,-4.367,-4.2355,-4.0447,-3.7769,0.0,0.0,0.0,0.0,0.0,0.0,0.0,0.0,0.0,0.0,0.0,0.0,0.0,0.0,0.0,0.0,0.0,0.0,0.0,0.0,0.0,0.0,0.0,0.0,0.0,0.0,0.0,0.0,0.0,0.0,0.0,0.0,0.0,0.0,0.0,0.0,0.0,0.0,0.0,0.0,0.0,0.0,0.0,0.0,0.0,0.0,0.0,0.0,0.0,0.0,0.0,0.0,0.0,0.0,0.0,0.0,0.0,0.0,0.0,0.0,-2.6459,0.0,0.0,0.0,0.0,0.0,0.0,0.0,0.0,0.0,0.0,0.0,0.0,0.0,0.0,0.0,0.0,0.0,0.0,0.0,0.0,0.0,0.0,0.0,0.0,0.0,0.0,0.0,0.0,0.0,0.0,0.0,0.0,0.0,0.0,0.0,0.0,0.0,0.0,0.0,0.0,0.0,-3.527,-3.8485,-4.1228,-4.3098,-4.4057,-4.4348,-4.367,-4.2355,-4.0647,-3.8431,-3.6245,0.0,0.0,0.0,0.0,0.0,0.0,0.0,0.0,0.0,0.0,0.0,0.0,0.0,0.0,0.0,0.0,0.0,0.0,0.0,0.0,0.0,0.0,0.0,0.0,0.0,0.0,0.0,0.0,0.0,0.0,0.0,0.0,0.0,0.0,0.0,0.0,0.0,0.0,0.0,0.0,0.0,0.0,0.0,0.0,0.0,0.0,0.0,0.0,0.0,0.0,0.0,0.0,0.0,0.0,0.0,0.0,0.0,0.0,0.0,0.0,-2.849,0.0,0.0,0.0,0.0,0.0,0.0,0.0,0.0,0.0,0.0,0.0,0.0,0.0,0.0,0.0,0.0,0.0,0.0,0.0,0.0,0.0,0.0,0.0,0.0,0.0,0.0,0.0,0.0,0.0,0.0,0.0,0.0,0.0,0.0,0.0,0.0,0.0,0.0,0.0,0.0,-3.6843,-3.9458,-4.175,-4.3688,-4.431,-4.4471,-4.4117,-4.2848,-4.1478,-4.0078,-3.7769,0.0,0.0,0.0,0.0,0.0,0.0,0.0,0.0,0.0,0.0,0.0,0.0,0.0,0.0,0.0,0.0,0.0,0.0,0.0,0.0,0.0,0.0,0.0,0.0,0.0,0.0,0.0,0.0,0.0,0.0,0.0,0.0,0.0,0.0,0.0,0.0,0.0,0.0,0.0,0.0,0.0,0.0,0.0,0.0,0.0,0.0,0.0,0.0,0.0,0.0,0.0,0.0,0.0,0.0,-3.347,-3.4111,-3.4249,-3.458,-3.4881,-3.2476,-3.1522,-3.1572,0.0,0.0,0.0,0.0,0.0,0.0,0.0,0.0,0.0,0.0,0.0,0.0,0.0,0.0,0.0,0.0,0.0,0.0,0.0,0.0,0.0,0.0,0.0,0.0,0.0,-3.7644,-3.7214,0.0,0.0,0.0,0.0,0.0,0.0,0.0,0.0,0.0,0.0,0.0,0.0,-3.9044,-4.0724,-4.2371,-4.4409,-4.461,-4.461,-4.461,-4.3371,-4.2309,-4.1632,-3.9247,-3.7184,0.0,0.0,0.0,0.0,0.0,0.0,0.0,0.0,0.0,0.0,0.0,0.0,0.0,0.0,0.0,0.0,0.0,0.0,0.0,0.0,0.0,0.0,0.0,0.0,0.0,0.0,0.0,0.0,0.0,0.0,0.0,0.0,-1.7496,-1.8578,0.0,0.0,0.0,0.0,0.0,0.0,0.0,0.0,0.0,0.0,0.0,0.0,0.0,0.0,-3.1477,-3.2532,-3.376,-3.5055,-3.5771,-3.654,-3.728,-3.7338,-3.7377,-3.7416,-3.705,0.0,-3.4215,-3.3027,0.0,0.0,0.0,0.0,0.0,0.0,0.0,0.0,0.0,0.0,0.0,0.0,0.0,0.0,0.0,0.0,0.0,0.0,0.0,0.0,0.0,0.0,-3.9065,-3.9738,-4.0382,-4.0598,0.0,-3.7106,-3.4767,-3.3352,0.0,0.0,0.0,0.0,0.0,0.0,0.0,0.0,-3.8916,-4.0643,-4.2371,-4.4409,-4.461,-4.461,-4.461,-4.3371,-4.2309,-4.1632,-4.0124,-3.8385,-3.6445,-3.5445,0.0,0.0,0.0,0.0,0.0,0.0,0.0,0.0,0.0,0.0,0.0,0.0,0.0,0.0,0.0,0.0,0.0,0.0,0.0,0.0,0.0,0.0,0.0,0.0,0.0,0.0,0.0,0.0,0.0,-1.7606,-1.9011,-2.0754,-2.0814,-2.0944,0.0,0.0,0.0,0.0,0.0,0.0,0.0,0.0,0.0,-3.0105,-3.1801,-3.3204,-3.4246,-3.5608,-3.6683,-3.7449,-3.8048,-3.8512,-3.8867,-3.8867,-3.8867,-3.8867,-3.8867,-3.851,-3.7763,-3.6058,-3.5669,-3.6128,0.0,0.0,0.0,0.0,0.0,-3.6619,-3.6883,0.0,0.0,0.0,0.0,0.0,0.0,0.0,0.0,0.0,0.0,0.0,0.0,0.0,0.0,-4.1467,-4.1998,-4.2297,-4.1639,-4.0441,-3.8722,0.0,-3.5428,-3.4725,-3.341,0.0,0.0,0.0,0.0,0.0,-3.9912,-4.1153,-4.2441,-4.4113,-4.3945,-4.3754,-4.3867,-4.264,-4.1786,-4.1617,-4.0293,-3.9108,-3.8231,-3.6815,-3.5152,0.0,0.0,0.0,0.0,0.0,0.0,0.0,0.0,0.0,0.0,0.0,0.0,0.0,0.0,0.0,0.0,0.0,0.0,0.0,0.0,0.0,0.0,0.0,0.0,0.0,0.0,0.0,0.0,-1.9137,-2.0434,-2.2616,-2.2674,-2.2891,0.0,0.0,0.0,0.0,0.0,0.0,-2.8857,-3.0262,-3.1665,-3.3133,-3.5029,-3.6251,-3.6696,-3.8156,-3.9012,-3.9155,-3.9756,-4.0122,-4.0265,-4.0265,-4.0344,-4.0488,-4.0488,-4.0689,-4.084,-3.872,-3.8206,-3.8696,-3.8193,-3.8317,-3.8865,-3.9151,-3.9472,-3.9761,-3.9712,-3.9728,-3.9699,-3.9177,0.0,-3.7848,-3.6817,0.0,0.0,0.0,0.0,-3.9424,-4.0591,0.0,-4.265,-4.265,-4.297,-4.317,-4.2716,-4.265,-4.1728,0.0,-3.8287,-3.782,-3.6032,0.0,0.0,0.0,0.0,-3.9035,-4.0785,-4.1741,-4.2637,-4.3623,-4.3289,-4.2986,-4.2969,-4.1943,-4.1357,-4.1515,-4.0413,-3.9582,-3.9244,-3.7815,-3.6292,-3.4797,0.0,0.0,0.0,0.0,0.0,0.0,0.0,0.0,0.0,0.0,0.0,0.0,0.0,0.0,0.0,0.0,0.0,0.0,0.0,0.0,0.0,0.0,0.0,0.0,0.0,0.0,0.0,0.0,0.0,-2.3636,-2.4388,0.0,0.0,0.0,0.0,-2.7359,-2.8568,-2.9932,-3.152,-3.3321,-3.4853,-3.6247,-3.7553,-3.8476,-3.9019,-3.9871,-4.0282,-4.0331,-4.0945,-4.1507,-4.2094,-4.2094,-4.2343,-4.2853,-4.2853,-4.2848,-4.2678,-4.0542,-4.0232,-4.1142,-4.1171,-4.1459,-4.1942,-4.2379,-4.2702,-4.2798,-4.2134,-4.2067,-4.2102,-4.1444,-4.0786,-4.0127,-3.9388,-3.92,0.0,0.0,-4.0696,-4.1422,-4.2126,-4.2761,-4.3245,-4.3245,-4.3275,-4.329,-4.3245,-4.3245,-4.2647,0.0,-4.0247,-3.9886,-3.8697,0.0,-3.8409,-3.7879,-3.8959,-4.0082,-4.0906,-4.2136,-4.2971,-4.3031,-4.3016,-4.2743,-4.2127,-4.1611,-4.1306,-4.1306,-4.0773,-3.9859,-3.8616,-3.8462,-3.7477,-3.5506,-3.4029,0.0,0.0,0.0,0.0,0.0,0.0,0.0,0.0,0.0,0.0,0.0,0.0,0.0,0.0,0.0,0.0,0.0,0.0,0.0,0.0,0.0,0.0,0.0,0.0,0.0,0.0,0.0,0.0,-2.5812,-2.6812,0.0,0.0,-2.8586,-2.936,-3.0495,-3.1286,-3.264,-3.4707,-3.5881,-3.7001,-3.822,-3.9171,-3.9767,-3.9963,-4.1013,-4.1546,-4.1546,-4.2134,-4.2526,-4.2709,-4.2709,-4.2827,-4.3023,-4.3023,-4.3113,-4.3209,-4.281,-4.2549,-4.2436,-4.2386,-4.284,-4.3536,-4.3872,-4.419,-4.4489,-4.425,-4.4216,-4.4062,-4.2985,-4.2192,-4.1572,-4.0876,-4.0681,-4.0816,-4.1512,-4.1871,-4.2201,-4.2821,-4.3125,-4.329,-4.329,-4.329,-4.329,-4.329,-4.329,-4.308,-4.2378,-4.1953,-4.1422,-4.0583,-4.0432,-4.0394,-4.019,-4.0551,-4.1129,-4.1806,-4.2303,-4.2754,-4.3136,-4.2468,-4.1919,-4.1843,-4.0858,-4.0365,-4.0628,-4.004,-3.9511,-3.9152,-3.8323,-3.7323,-3.6153,-3.5214,-3.3812,0.0,0.0,0.0,0.0,0.0,0.0,0.0,0.0,0.0,0.0,0.0,0.0,0.0,0.0,0.0,0.0,0.0,0.0,0.0,0.0,0.0,0.0,0.0,0.0,0.0,0.0,-2.5661,-2.75,-2.8609,-2.9424,-2.9963,-3.0595,-3.1482,-3.2647,-3.335,-3.4679,-3.6775,-3.7677,-3.8704,-3.9881,-4.0603,-4.1102,-4.1298,-4.2069,-4.2461,-4.2461,-4.284,-4.3127,-4.331,-4.331,-4.3415,-4.3598,-4.3598,-4.3638,-4.3729,-4.4078,-4.3985,-4.3648,-4.3846,-4.4419,-4.5157,-4.5313,-4.5567,-4.5834,-4.5678,-4.5495,-4.5095,-4.3993,-4.3369,-4.2901,-4.2252,-4.2043,-4.2132,-4.2566,-4.2686,-4.2791,-4.3185,-4.329,-4.329,-4.329,-4.329,-4.329,-4.329,-4.329,-4.329,-4.329,-4.2985,-4.2491,-4.1871,-4.1752,-4.1677,-4.1414,-4.1602,-4.1916,-4.2336,-4.259,-4.2776,-4.2985,-4.2028,-4.137,-4.1272,-4.0293,-3.9839,-4.0172,-3.957,-3.9183,-3.9152,-3.8323,-3.7523,-3.6846,-3.6477,-3.5348,-3.3439,0.0,0.0,0.0,0.0,0.0,0.0,0.0,0.0,0.0,0.0,0.0,0.0,0.0,0.0,0.0,0.0,0.0,0.0,0.0,0.0,0.0,0.0,0.0,-2.3767,-2.5242,-2.6889,-2.8574,-2.9665,-3.0503,-3.1031,-3.1961,-3.2912,-3.3703,-3.4681,-3.597,-3.7555,-3.8666,-3.9931,-4.1376,-4.193,-4.2461,-4.301,-4.3036,-4.3049,-4.3049,-4.3075,-4.3363,-4.3899,-4.3899,-4.4199,-4.4668,-4.4668,-4.4529,-4.4296,-4.4296,-4.4423,-4.4701,-4.5611,-4.6329,-4.6826,-4.6889,-4.6902,-4.6871,-4.6456,-4.5912,-4.5226,-4.4569,-4.4348,-4.4225,-4.3504,-4.3319,-4.3319,-4.3305,-4.329,-4.329,-4.329,-4.329,-4.329,-4.329,-4.329,-4.329,-4.329,-4.329,-4.329,-4.329,-4.329,-4.3135,-4.2545,-4.2425,-4.2216,-4.1572,-4.2021,0.0,-4.2425,-4.294,-4.309,-4.25,-4.1826,-4.113,-4.0487,-3.998,-3.9768,-3.9996,-3.9501,-3.8999,-3.8536,-3.8523,-3.82,-3.7569,-3.7747,-3.7157,-3.5656,0.0,0.0,0.0,0.0,0.0,0.0,0.0,0.0,0.0,0.0,0.0,0.0,0.0,0.0,0.0,0.0,0.0,0.0,0.0,0.0,0.0,0.0,-2.5675,-2.5335,-2.7088,-2.8724,-2.9666,-3.1019,-3.2076,-3.2615,-3.3224,-3.406,-3.5271,-3.5966,-3.7152,-3.8953,-3.9763,-4.0793,-4.2202,-4.2437,-4.2658,-4.3023,-4.3428,-4.3637,-4.365,-4.4068,-4.4343,-4.45,-4.45,-4.4578,-4.4668,-4.4668,-4.4643,-4.4607,-4.4835,-4.5116,-4.5324,-4.5503,-4.6129,-4.6932,-4.6841,-4.6844,-4.6887,-4.7012,-4.6576,-4.5992,-4.5837,-4.5436,-4.4889,-4.4216,-4.4012,-4.3911,-4.3454,-4.329,-4.329,-4.329,-4.329,-4.329,-4.329,-4.329,-4.329,-4.329,-4.329,-4.329,-4.329,-4.329,-4.3245,-4.309,-4.306,-4.3,-4.2821,-4.2955,0.0,-4.306,-4.3185,-4.323,-4.309,-4.2058,-4.1347,-4.113,-4.0104,-3.964,-3.996,-3.9408,-3.9108,-3.9213,-3.8769,-3.8646,-3.8921,-3.9475,-3.937,0.0,0.0,0.0,0.0,0.0,0.0,0.0,0.0,0.0,0.0,0.0,0.0,0.0,0.0,0.0,0.0,0.0,0.0,0.0,0.0,0.0,0.0,-2.6468,-2.7721,-2.7589,-2.875,-3.0,-3.1054,-3.2144,-3.3017,-3.3534,-3.4222,-3.4941,-3.5751,-3.6619,-3.7703,-3.9001,-3.9968,-4.105,-4.2355,-4.2741,-4.3123,-4.3529,-4.4015,-4.4238,-4.4238,-4.4565,-4.4668,-4.4668,-4.4668,-4.4668,0.0,-4.4668,-4.4668,-4.4735,-4.4897,-4.518,0.0,0.0,0.0,0.0,0.0,-4.7077,-4.7332,-4.7297,-4.7055,-4.6681,-4.6409,-4.6055,-4.557,-4.4919,-4.4519,-4.4214,-4.3847,-4.3504,-4.329,-4.329,-4.329,-4.329,-4.329,-4.329,-4.329,-4.329,-4.329,-4.329,-4.329,0.0,0.0,-4.329,-4.329,-4.329,-4.329,-4.329,-4.329,0.0,-4.329,-4.329,-4.329,-4.2402,-4.1722,-4.1399,-4.0427,0.0,0.0,0.0,-3.915,-3.9803,-3.9508,0.0,0.0,0.0,0.0,0.0,0.0,0.0,0.0,-4.1167,-4.2061,0.0,0.0,0.0,0.0,0.0,0.0,0.0,0.0,0.0,0.0,0.0,0.0,0.0,0.0,0.0,0.0,-2.8217,-2.9701,-3.0148,-3.04,-3.1065,-3.2408,-3.304,-3.3579,-3.4119,-3.4992,-3.5566,-3.568,-3.6815,-3.7781,-3.8492,0.0,0.0,0.0,0.0,-4.3661,-4.4258,-4.4518,-4.4681,-4.4668,-4.4668,-4.4668,-4.4668,-4.4668,-4.4668,-4.4668,-4.4668,-4.4668,-4.4668,-4.4668,-4.4897,-4.5235,-4.5793,-4.6302,-4.6762,-4.7092,-4.7519,0.0,0.0,0.0,0.0,-4.6631,-4.6388,-4.6278,-4.5609,-4.5012,-4.4471,-4.4333,-4.3892,-4.3394,-4.3319,-4.329,-4.329,-4.329,-4.329,-4.329,-4.329,-4.329,-4.329,-4.329,-4.329,-4.329,-4.329,-4.329,-4.329,-4.329,-4.329,0.0,-4.329,-4.329,-4.329,-4.329,0.0,0.0,-4.1572,-4.0891,-4.0336,-3.9953,-3.94,-3.9516,-4.0475,-4.07,-4.1204,-4.204,-4.2998,-4.418,-4.5515,-4.4883,-4.5594,-4.7581,-4.5584,-4.5514,0.0,0.0,0.0,0.0,0.0,0.0,0.0,0.0,0.0,0.0,0.0,0.0,0.0,0.0,0.0,-2.8586,-2.9517,-3.0537,-3.1821,-3.242,-3.2799,-3.3097,-3.3568,-3.4222,-3.5129,-3.5405,-3.5864,-3.6624,-3.722,-3.8029,-3.9219,-3.9994,0.0,-4.2046,-4.2755,-4.336,-4.3958,-4.4245,-4.4463,-4.4668,0.0,0.0,-4.4668,-4.4668,-4.4668,-4.4668,-4.4668,-4.4668,-4.4668,-4.4668,-4.4897,-4.5274,-4.624,-4.6777,-4.7122,-4.7797,-4.8061,-4.8032,-4.7852,-4.7955,-4.7982,-4.7309,-4.7086,-4.6969,-4.6294,-4.6032,0.0,-4.4583,-4.4221,-4.3986,-4.3454,-4.329,-4.329,-4.329,-4.329,-4.329,-4.329,-4.329,-4.329,-4.329,-4.329,-4.329,-4.329,-4.329,-4.329,-4.329,-4.329,-4.329,-4.329,-4.329,-4.329,-4.329,-4.2746,-4.2351,-4.2216,-4.1602,-4.1258,-4.1324,-4.1483,-4.1723,-4.1918,-4.2412,-4.2777,-4.2947,-4.4558,-4.5665,-4.6213,-4.6474,-4.7466,-4.9074,-4.7501,-4.7766,0.0,0.0,0.0,0.0,0.0,0.0,0.0,0.0,0.0,0.0,0.0,-2.5997,-2.7121,0.0,-2.873,-2.9698,-3.0698,-3.1708,-3.2741,-3.3327,-3.3648,-3.3648,-3.4303,-3.4957,-3.5462,-3.5979,-3.6484,-3.6945,-3.7641,-3.8376,-3.9195,-3.9935,-4.0712,-4.1618,-4.2356,-4.3017,-4.3628,-4.4081,-4.4422,-4.4668,-4.4668,-4.4668,-4.4668,-4.4668,-4.4668,-4.4668,-4.4668,-4.4668,-4.4668,-4.4668,-4.4897,-4.5287,-4.5967,-4.6616,-4.7284,-4.7905,-4.8302,-4.8524,-4.8058,-4.8089,-4.8177,-4.7519,-4.7309,-4.7249,-4.692,-4.6552,-4.6169,-4.5498,-4.481,-4.4236,-4.3907,-4.3534,-4.329,-4.329,-4.329,-4.329,-4.329,-4.329,-4.329,-4.329,-4.329,-4.329,-4.329,-4.329,-4.329,-4.329,-4.329,-4.329,-4.329,-4.329,-4.329,-4.329,-4.3045,-4.2716,-4.2425,-4.1796,-4.1422,-4.155,-4.2228,-4.2635,-4.2635,-4.3451,-4.4077,-4.4411,-4.4964,-4.5897,-4.7193,-4.7551,-4.8388,-4.969,-4.912,-4.9486,0.0,0.0,0.0,0.0,0.0,0.0,0.0,0.0,-2.579,-2.7173,-2.7481,-2.7849,-2.9089,-2.9656,-3.0095,-3.0549,-3.1777,-3.2822,-3.335,-3.3924,-3.4291,-3.4291,-3.5026,-3.5554,-3.5657,-3.6495,-3.7014,-3.7173,-3.8057,-3.8724,-3.9024,-3.9709,-4.0409,-4.1,-4.1846,-4.2625,-4.3338,-4.3916,-4.4367,-4.4668,-4.4668,-4.4668,-4.4668,-4.4668,-4.4668,-4.4668,-4.4668,-4.4668,-4.4668,-4.4668,-4.4843,-4.5126,-4.5381,-4.6139,-4.7115,-4.7651,-4.8368,-4.8945,-4.8334,-4.8253,-4.8327,-4.7713,-4.7414,-4.7309,-4.7309,-4.6935,-4.6488,-4.6321,-4.5526,-4.4646,-4.4359,-4.3902,-4.3474,-4.3305,-4.329,-4.329,-4.329,-4.329,-4.329,-4.329,-4.329,-4.329,-4.329,-4.329,-4.329,-4.329,-4.329,-4.329,-4.329,-4.329,-4.329,-4.329,-4.329,-4.312,-4.2635,-4.2073,-4.1758,-4.1758,-4.2651,-4.3183,-4.3183,-4.4228,-4.5087,-4.5657,-4.5316,-4.614,-4.8193,-4.8258,-4.8818,-4.9836,-5.005,-5.048,-1.8782,-2.0049,-2.1732,-2.3904,-2.4412,-2.4976,0.0,0.0,-2.7854,-2.9281,-2.925,-2.9331,-3.044,-3.0584,-3.0904,-3.2055,-3.2776,-3.3361,-3.3855,-3.475,-3.5347,-3.5347,-3.5451,-3.5692,-3.614,-3.6702,-3.7219,-3.7666,-3.8252,-3.878,-3.9252,-3.9638,-3.9966,-4.0281,-4.1206,-4.2118,-4.303,-4.3666,-4.4216,-4.4668,-4.4668,-4.4668,-4.4668,-4.4668,-4.4668,-4.4668,-4.4668,-4.4668,-4.4668,-4.4668,-4.4722,-4.4789,-4.5126,-4.5595,-4.627,-4.7308,-4.8245,-4.8942,-4.896,-4.8923,-4.8744,-4.8342,-4.7788,-4.7309,-4.7309,-4.7249,-4.707,-4.6488,-4.6172,-4.5807,-4.4616,-4.4253,-4.4042,-4.3459,-4.329,-4.329,-4.329,-4.329,-4.329,-4.329,-4.329,-4.329,-4.329,-4.329,-4.329,-4.329,-4.329,-4.329,-4.329,-4.329,-4.329,-4.329,-4.329,-4.326,-4.32,-4.311,-4.308,-4.308,-4.3587,-4.3881,-4.3881,-4.4933,-4.5596,-4.5858,-4.6585,-4.7633,-4.8972,-4.868,-4.8926,-4.9637,-4.9677,-5.005,-2.0788,-2.2063,-2.3436,0.0,-2.5862,-2.6728,-2.8325,-2.8855,-2.9303,-3.0221,-3.0152,-3.0205,-3.1048,-3.1113,-3.1327,0.0,-3.3066,-3.3725,-3.4395,-3.4831,-3.5313,-3.5887,-3.5703,-3.5715,-3.6274,-3.7001,-3.7563,-3.777,-3.8539,-3.909,-3.9297,-3.9426,-3.9673,-3.9966,-4.0687,-4.1537,-4.2457,-4.3252,-4.3916,-4.4463,-4.4626,-4.4668,-4.4668,-4.4668,-4.4668,-4.4668,-4.4668,-4.4668,-4.4668,-4.4668,-4.4668,-4.4722,-4.5072,-4.5341,-4.5715,-4.6977,-4.8004,-4.871,-4.8813,-4.8791,-4.8605,-4.8224,-4.7745,-4.7309,-4.7309,-4.7309,-4.7249,-4.698,-4.6589,-4.6152,-4.5603,-4.4869,-4.4233,-4.3953,-4.3574,-4.329,-4.329,-4.329,-4.329,-4.329,-4.329,-4.329,-4.329,-4.329,-4.329,-4.329,-4.329,-4.329,-4.329,-4.329,-4.329,-4.329,-4.329,-4.329,-4.329,-4.329,-4.329,-4.329,-4.3621,-4.3871,-4.3988,-4.4923,-4.5686,-4.6289,-4.6979,-4.7814,-4.8784,-4.8862,-4.8928,-4.9029,-4.9325,-4.9573,-2.2506,-2.3689,0.0,-2.6225,-2.7139,-2.8029,-2.9272,-2.9817,-3.0228,-3.0706,-3.0592,-3.0578,-3.1067,-3.1209,-3.1471,-3.2165,-3.3162,-3.4038,-3.4635,-3.4973,-3.5474,-3.624,-3.5944,-3.5864,-3.6286,-3.7069,-3.7632,-3.7781,-3.8608,-3.9159,-3.9297,-3.9308,-3.9426,-3.9802,-4.0409,-4.1136,-4.2118,-4.2949,-4.3683,-4.4313,-4.4572,-4.4668,-4.4668,-4.4668,-4.4668,-4.4668,-4.4668,-4.4668,-4.4668,-4.4668,-4.4668,-4.4722,-4.4964,-4.5126,-4.5341,-4.6508,-4.748,-4.8223,-4.8612,-4.8545,-4.8284,-4.8192,-4.7747,-4.7207,-4.7266,-4.7309,-4.7309,-4.7309,-4.6948,-4.6541,-4.6352,-4.5597,-4.4753,-4.4377,-4.3943,-4.3514,-4.3334,-4.329,-4.329,-4.329,-4.329,-4.329,-4.329,-4.329,-4.329,-4.329,-4.329,-4.329,-4.329,-4.329,-4.329,-4.329,-4.329,-4.329,-4.329,-4.329,-4.329,-4.329,-4.3557,-4.3844,-4.4152,-4.5081,-4.5951,-4.6785,-4.7369,-4.7953,-4.862,-4.8831,-4.8826,-4.8605,-4.8944,-4.9113,-2.3421,0.0,-2.5769,-2.7822,-2.8362,-2.8795,-3.0368,-3.0623,-3.0541,-3.0852,-3.0509,-3.0308,-3.0556,-3.0819,-3.1181,-3.1636,-3.3203,-3.4373,-3.4396,-3.5504,-3.6286,-3.632,-3.6309,-3.6254,0.0,-3.6748,-3.7265,-3.7747,-3.8298,-3.8814,-3.9285,-3.9308,-3.9426,-3.9802,-4.0409,-4.1136,-4.2118,-4.2949,-4.3683,-4.4313,-4.4572,-4.4668,-4.4668,-4.4668,-4.4668,-4.4668,-4.4668,-4.4668,-4.4668,-4.4668,-4.4668,-4.4668,-4.4722,-4.4897,-4.5287,-4.5808,-4.6599,-4.7507,-4.8531,-4.8378,-4.7864,-4.8648,-4.8001,-4.6975,-4.7207,-4.7309,-4.7309,-4.7309,-4.7294,-4.713,-4.6486,-4.6273,-4.5906,-4.4594,-4.4302,-4.4107,-4.3424,-4.329,-4.329,-4.329,-4.329,-4.329,-4.329,-4.329,-4.329,-4.329,-4.329,-4.329,-4.329,-4.329,-4.329,-4.329,-4.329,-4.329,-4.329,-4.329,-4.329,-4.329,-4.3557,-4.3961,-4.4564,-4.5687,-4.6574,-4.7288,-4.8111,-4.8589,-4.862,-4.862,-4.862,-4.8604,-4.8604,-4.862,-2.3688,0.0,-2.6662,-2.7348,-2.8319,-2.9215,-2.9738,-3.0078,-3.0186,-2.979,-2.9577,-2.9557,-2.9827,-2.9784,-3.0181,-3.1475,-3.278,-3.3813,-3.4298,-3.5188,-3.5898,-3.6286,-3.5979,0.0,0.0,0.0,0.0,-3.777,-3.8585,-3.9136,-3.9297,-3.9308,-3.9367,-3.9485,-4.006,-4.0687,-4.1435,-4.2569,-4.3419,-4.4052,-4.4463,-4.4668,-4.4668,-4.4668,-4.4668,-4.4668,-4.4668,-4.4668,-4.4668,-4.4668,-4.4668,-4.4668,-4.4668,-4.4789,-4.4897,-4.5328,-4.5861,-4.6599,-4.7925,-4.7842,-4.7314,-4.8126,-4.7716,-4.6975,-4.7207,-4.7309,-4.7309,-4.7309,-4.7309,-4.7249,-4.704,-4.663,-4.6085,-4.5161,-4.4631,-4.4137,-4.3439,-4.329,-4.329,-4.329,-4.329,-4.329,-4.329,-4.329,-4.329,-4.329,-4.329,-4.329,-4.329,-4.329,-4.329,-4.329,-4.329,-4.329,-4.329,-4.329,-4.329,-4.329,-4.3384,-4.3788,-4.4554,-4.545,-4.6254,-4.7117,-4.7965,-4.8458,-4.8618,-4.8609,-4.862,-4.862,-4.862,-4.862,-2.425,-2.5588,-2.6745,-2.7273,-2.8182,-2.8925,-2.9094,-2.9297,-2.9308,-2.8723,-2.8522,-2.85,-2.8587,-2.8839,-2.9399,-3.0707,-3.2219,-3.3465,-3.417,-3.5135,-3.5979,-3.6484,-3.6254,-3.6254,0.0,0.0,0.0,-3.7804,-3.8573,-3.9124,-3.9297,-3.9308,-3.9308,-3.9308,-3.9884,-4.0513,-4.1079,-4.2344,-4.3432,-4.4216,-4.4518,-4.4668,-4.4668,-4.4668,-4.4668,-4.4668,-4.4668,-4.4668,-4.4668,-4.4668,-4.4668,-4.4668,-4.4668,-4.4668,-4.4735,-4.5072,-4.5502,-4.606,-4.7363,-4.7517,-4.7247,-4.7872,-4.7637,-4.7155,-4.7239,-4.7309,-4.7309,-4.7309,-4.7309,-4.7309,-4.7309,-4.6985,-4.6496,-4.5831,-4.5155,-4.4481,-4.3783,-4.3469,-4.329,-4.329,-4.329,-4.329,-4.329,-4.329,-4.329,-4.329,-4.329,-4.329,-4.329,-4.329,-4.329,-4.329,-4.329,-4.329,-4.329,-4.329,-4.329,-4.329,-4.329,-4.3773,-4.482,-4.5382,-4.6169,-4.7174,-4.7878,-4.829,-4.8492,-4.8572,-4.8609,-4.862,-4.862,-4.862,-2.5047,-2.5631,-2.6225,-2.7608,-2.7967,-2.8087,-2.8547,-2.8342,-2.7958,-2.7621,-2.7443,-2.7216,-2.6974,0.0,-2.8869,-2.939,-3.1584,-3.3339,-3.3907,-3.5335,-3.6495,0.0,0.0,0.0,0.0,0.0,0.0,-3.7862,0.0,-3.8826,-3.9285,-3.9308,-3.9308,-3.9308,-3.9884,-4.0513,-4.1079,-4.24,-4.3585,-4.4668,-4.4668,-4.4668,-4.4668,-4.4668,-4.4668,-4.4668,-4.4668,-4.4668,-4.4668,-4.4668,-4.4668,-4.4668,-4.4668,-4.4668,-4.4735,-4.5072,-4.5341,-4.5755,-4.6873,-4.7345,-4.7496,-4.7909,-4.7794,-4.7435,-4.7329,-4.7309,-4.7309,-4.7309,-4.7309,-4.7309,-4.7309,-4.7309,-4.7145,-4.6459,-4.5813,-4.511,-4.4451,-4.3753,-4.329,-4.329,-4.329,-4.329,-4.329,-4.329,-4.329,-4.329,-4.329,-4.329,-4.329,-4.329,-4.329,-4.329,-4.329,-4.329,-4.329,-4.329,-4.329,-4.329,-4.329,-4.3888,-4.5244,-4.5526,-4.6282,-4.7566,-4.7837,-4.8091,-4.8244,-4.8492,-4.8576,-4.8578,-4.862,-4.862,-2.5088,-2.6065,-2.7005,-2.7369,-2.7757,-2.7939,-2.7704,-2.76,-2.7224,-2.614,-2.5883,-2.584,-2.5926,-2.6476,0.0,-2.9226,-3.1295,0.0,-3.3862,-3.5643,0.0,-3.6968,0.0,-3.7643,-3.777,-3.8275,0.0,0.0,-3.8849,-3.917,-3.9297,-3.9308,-3.9308,-3.9308,-3.9884,-4.0513,-4.1079,-4.2806,-4.4039,-4.4668,-4.4668,-4.4668,-4.4668,-4.4668,-4.4668,-4.4668,-4.4668,-4.4668,-4.4668,-4.4668,-4.4668,-4.4668,-4.4668,-4.4668,-4.4722,-4.4789,-4.5018,-4.5395,-4.6073,-4.6603,-4.6953,-4.7133,-4.721,-4.7194,-4.7036,-4.7164,-4.7309,-4.7309,-4.7309,-4.7309,-4.7309,-4.7309,-4.7146,-4.6468,-4.5779,-4.511,-4.4451,-4.3753,-4.329,-4.329,-4.329,-4.329,-4.329,-4.329,-4.329,-4.329,-4.329,-4.329,-4.329,-4.329,-4.329,-4.329,-4.329,-4.329,-4.329,-4.329,-4.329,-4.329,-4.329,-4.3888,-4.5244,-4.5387,-4.6017,-4.7366,-4.7596,-4.7709,-4.7794,-4.8191,-4.8446,-4.8591,-4.8609,-4.862,-2.5717,-2.6441,-2.7048,-2.7258,-2.7331,-2.73,-2.7027,-2.6501,-2.5849,-2.5082,-2.4735,-2.4574,-2.477,-2.5453,0.0,0.0,0.0,0.0,-3.3492,-3.5426,-3.6863,0.0,-3.7827,0.0,-3.8436,-3.8723,-3.8906,0.0,-3.9147,-3.9308,-3.9308,-3.9308,-3.9308,-3.9308,-3.9884,-4.0687,-4.172,-4.3154,-4.4107,-4.4518,-4.4626,-4.4668,-4.4668,-4.4668,-4.4668,-4.4668,0.0,-4.4668,-4.4668,-4.4668,-4.4668,-4.4668,-4.4668,-4.4668,-4.4668,-4.4668,-4.4897,-4.5234,-4.5702,-4.6277,-4.6814,-4.6894,-4.7178,-4.7455,-4.7022,-4.7062,-4.7309,-4.7309,-4.7309,-4.7309,-4.7309,-4.7309,-4.7206,-4.6809,-4.5985,-4.52,-4.4825,-4.4003,-4.329,-4.329,-4.329,-4.329,-4.329,-4.329,-4.329,-4.329,-4.329,-4.329,-4.329,-4.329,-4.329,-4.329,-4.329,-4.329,-4.329,-4.329,-4.329,-4.329,-4.329,-4.3888,-4.5244,-4.5289,-4.5933,-4.7279,-4.7424,-4.751,-4.7581,-4.788,-4.8164,-4.8477,-4.8427,-4.848,-2.6501,-2.6795,-2.6801,-2.7206,-2.6957,-2.6584,-2.6459,-2.543,-2.4425,-2.4187,0.0,-2.3358,-2.3557,-2.4566,-2.5806,-2.7097,0.0,-3.1611,-3.2992,-3.5051,-3.6725,-3.7678,-3.8321,-3.8849,-3.9262,-3.9308,-3.9308,-3.9308,-3.9308,-3.9308,-3.9308,-3.9308,-3.9308,-3.9367,-3.9943,-4.0976,-4.24,-4.3376,-4.3997,-4.4313,-4.4572,-4.4668,-4.4668,-4.4668,-4.4668,-4.4668,0.0,0.0,-4.4668,-4.4668,-4.4668,-4.4668,-4.4668,-4.4668,-4.4668,-4.4668,-4.4897,-4.518,-4.5502,-4.6085,-4.6713,-4.6798,-4.7361,-4.7892,-4.7096,-4.7077,-4.7309,-4.7309,-4.7309,-4.7309,-4.7309,-4.7309,-4.7309,-4.7309,-4.6324,-4.5412,-4.5319,-4.4272,-4.329,-4.329,-4.329,-4.329,-4.329,-4.329,-4.329,-4.329,-4.329,-4.329,-4.329,-4.329,-4.329,-4.329,-4.329,-4.329,-4.329,-4.329,-4.329,-4.329,-4.329,-4.3888,-4.5244,-4.5289,-4.5933,-4.7279,-4.7309,-4.7396,-4.7538,-4.7596,-4.7794,-4.8202,-4.8229,-4.8355,-2.6495,-2.6895,-2.7206,-2.7289,-2.6957,-2.6382,-2.5637,-2.4941,0.0,0.0,-2.2198,-2.2199,-2.2582,-2.3492,-2.4863,-2.6977,-2.9455,-3.1611,-3.2992,-3.5304,-3.7127,0.0,-3.8608,-3.9216,0.0,0.0,0.0,0.0,0.0,0.0,-3.9308,-3.9308,-3.9426,-3.9684,-4.0293,-4.1079,-4.2174,-4.3073,-4.3738,-4.4313,-4.4572,-4.4668,-4.4668,-4.4668,-4.4668,-4.4668,0.0,0.0,-4.4668,-4.4668,-4.4668,-4.4668,-4.4668,-4.4668,-4.4668,-4.4668,-4.4735,-4.4843,-4.5435,-4.5645,-4.5792,-4.6181,-4.6962,-4.7628,-4.6888,-4.6946,-4.7309,-4.7309,-4.7309,-4.7309,-4.7309,-4.7309,-4.7309,-4.7309,-4.6703,-4.5964,-4.5427,-4.4272,-4.329,-4.329,-4.329,-4.329,-4.329,-4.329,-4.329,-4.329,-4.329,-4.329,-4.329,-4.329,-4.329,-4.329,-4.329,-4.329,-4.329,-4.329,-4.329,-4.329,-4.329,-4.3888,-4.5244,-4.5289,-4.5933,-4.7279,-4.7309,-4.7309,-4.7337,-4.751,-4.7624,-4.7709,-4.8267,-4.8446,-2.6453,-2.6915,-2.7309,-2.7309,-2.6746,-2.6043,-2.5376,0.0,0.0,0.0,-2.1489,-2.1376,-2.1951,-2.2718,0.0,-2.5886,-2.8055,-3.0161,-3.1854,-3.4277,0.0,-3.7276,0.0,0.0,0.0,0.0,0.0,0.0,0.0,0.0,-3.9308,-3.9308,-3.9426,-3.9802,-4.0409,-4.1079,-4.1822,-4.2893,-4.3628,-4.4107,-4.4518,-4.4668,-4.4668,-4.4668,-4.4668,-4.4668,-4.4668,0.0,-4.4668,-4.4668,-4.4668,-4.4668,-4.4668,-4.4668,-4.4668,-4.4668,-4.4668,-4.4776,-4.5381,-4.5473,-4.5386,-4.5991,-4.6652,-4.7146,-4.6756,-4.6917,-4.7309,-4.7309,-4.7309,-4.7309,-4.7309,-4.7309,-4.7309,-4.7309,-4.6539,-4.5592,-4.4934,-4.4018,-4.329,-4.329,-4.329,-4.329,-4.329,-4.329,-4.329,-4.329,-4.329,-4.329,-4.329,-4.329,-4.329,-4.329,-4.329,-4.329,-4.329,-4.329,-4.329,-4.329,-4.329,-4.3888,-4.5244,-4.5289,-4.5933,-4.7279,-4.7309,-4.7309,-4.7309,-4.7381,-4.751,-4.7639,-4.7822,-4.8019,-2.6418,-2.6957,-2.7309,-2.7309,-2.6574,-2.574,-2.5197,-2.371,0.0,0.0,-2.098,-2.0761,-2.142,-2.2118,-2.3124,0.0,-2.6812,-2.8824,-3.0813,0.0,0.0,0.0,0.0,0.0,0.0,0.0,0.0,0.0,0.0,0.0,0.0,-3.9308,-3.9426,-3.9684,-4.0293,-4.0848,-4.1492,-4.2725,-4.353,-4.3899,-4.4409,-4.4668,-4.4668,-4.4668,-4.4668,-4.4668,-4.4668,0.0,0.0,-4.4668,-4.4668,-4.4668,-4.4668,-4.4668,-4.4668,-4.4668,-4.4668,-4.4763,-4.5236,-4.5194,-4.5005,-4.5698,-4.6244,-4.6616,-4.6608,-4.6902,-4.7207,-4.7266,-4.7309,-4.7309,-4.7309,-4.7309,-4.7236,-4.7118,-4.6254,-4.5269,-4.453,-4.3798,-4.329,-4.329,-4.329,-4.329,-4.329,-4.329,-4.329,-4.329,-4.329,-4.329,-4.329,-4.329,-4.329,-4.329,-4.329,-4.329,-4.329,-4.329,-4.329,-4.329,-4.329,-4.3828,-4.5035,-4.5214,-4.5858,-4.707,-4.7234,-4.7309,-4.7309,-4.7309,-4.7381,-4.7538,-4.7405,-4.7603,-2.6309,-2.6938,-2.7309,-2.7309,-2.661,-2.5688,-2.4777,0.0,-2.2119,-2.0813,-2.0275,-2.0268,-2.0942,-2.1614,-2.2734,-2.4858,0.0,-2.8824,0.0,0.0,0.0,0.0,0.0,0.0,0.0,0.0,0.0,0.0,0.0,0.0,0.0,-3.9308,-3.9308,-3.9367,-3.9943,-4.0513,-4.1148,-4.24,-4.3321,-4.3899,-4.4409,-4.4668,-4.4668,-4.4668,-4.4668,-4.4668,0.0,0.0,0.0,-4.4668,-4.4668,-4.4668,-4.4668,-4.4668,-4.4668,-4.4668,-4.4668,-4.4711,-4.4785,-4.4579,-4.4334,-4.4878,-4.5495,-4.6125,-4.6504,-4.6771,-4.6975,-4.7207,-4.7309,-4.7309,-4.7309,-4.7309,-4.7133,-4.6559,-4.6175,-4.5706,-4.4851,-4.3973,-4.329,-4.329,-4.329,-4.329,-4.329,-4.329,-4.329,-4.329,-4.329,-4.329,-4.329,-4.329,-4.329,-4.329,-4.329,-4.329,-4.329,-4.329,-4.329,-4.329,-4.329,-4.3618,-4.4377,-4.4975,-4.5648,-4.6396,-4.6995,-4.7309,-4.7309,-4.7309,-4.7309,-4.7352,-4.7495,-4.7521,-2.5326,-2.6231,-2.6855,-2.6883,-2.6389,-2.5578,-2.442,0.0,-2.1748,-2.0642,-2.0048,-2.0009,-2.086,-2.1432,-2.2431,-2.4465,-2.6135,-2.7882,-2.9926,0.0,0.0,0.0,0.0,0.0,0.0,0.0,0.0,0.0,0.0,0.0,0.0,-3.9308,-3.9308,-3.9308,-3.9884,-4.0513,-4.1079,-4.2344,-4.3321,-4.3899,-4.4409,-4.4668,-4.4668,-4.4668,-4.4668,-4.4668,0.0,0.0,0.0,-4.4668,-4.4668,-4.4668,-4.4668,-4.4668,-4.4668,-4.4668,-4.4513,-4.4226,-4.4415,-4.4052,-4.3594,-4.4413,-4.4805,-4.5174,-4.6074,-4.6609,-4.6975,-4.7207,-4.7309,-4.7309,-4.7309,-4.7008,-4.6649,-4.6373,-4.5612,-4.4886,-4.4522,-4.3828,-4.329,-4.329,-4.329,-4.329,-4.329,-4.329,-4.329,-4.329,-4.329,-4.329,-4.329,-4.329,-4.329,-4.329,-4.329,-4.329,-4.329,-4.329,-4.329,-4.329,-4.329,-4.3589,-4.4287,-4.4945,-4.5618,-4.6264,-4.698,-4.7309,-4.7309,-4.7309,-4.7309,-4.7309,-4.7381,-4.7437,-2.4466,-2.5513,-2.6367,-2.6407,-2.593,-2.5217,0.0,-2.2713,-2.135,-2.0569,-1.9983,-1.9903,-2.0818,-2.1349,-2.2244,-2.4282,-2.5728,-2.7341,-2.9375,-3.1299,0.0,0.0,0.0,0.0,0.0,0.0,0.0,0.0,0.0,0.0,0.0,-3.9308,-3.9308,-3.9308,-3.9826,-4.0351,-4.0976,-4.2174,-4.3085,-4.3764,-4.4313,-4.4626,-4.4668,-4.4668,-4.4668,0.0,0.0,0.0,0.0,-4.4668,-4.4668,-4.4668,-4.4668,-4.4668,-4.4655,-4.4539,-4.4225,-4.3873,-4.3795,-4.3472,-4.3108,-4.3881,-4.426,-4.4597,-4.5685,-4.6403,-4.6887,-4.7222,-4.7309,-4.7309,-4.7309,-4.6813,-4.6256,-4.6035,-4.521,-4.4334,-4.4073,-4.3618,-4.329,-4.329,-4.329,-4.329,-4.329,-4.329,-4.329,-4.329,-4.329,-4.329,-4.329,-4.329,-4.329,-4.329,-4.329,-4.329,-4.329,-4.329,-4.329,-4.329,-4.329,-4.3499,-4.3962,-4.4661,-4.5319,-4.6007,-4.6681,-4.7115,-4.7309,-4.7309,-4.7309,-4.7309,-4.7309,-4.7424,-2.3847,-2.5029,-2.5885,-2.593,-2.5213,-2.4391,-2.401,-2.2453,-2.0985,-2.0494,-1.9982,-1.9883,-2.0842,-2.1326,-2.2314,-2.443,-2.58,-2.7383,-2.9602,-3.1405,0.0,0.0,0.0,0.0,0.0,0.0,0.0,0.0,0.0,0.0,0.0,0.0,-3.9308,-3.9308,-3.9614,-4.0083,-4.0675,-4.1651,-4.2557,-4.3394,-4.4026,-4.4409,-4.4668,-4.4668,0.0,0.0,0.0,0.0,0.0,-4.4668,-4.4668,-4.4668,-4.4668,-4.4668,-4.4657,-4.4095,-4.3872,-4.3768,-4.2913,-4.2809,-4.3041,-4.3223,-4.3798,-4.4551,-4.5276,-4.6001,-4.6683,-4.7179,-4.7309,-4.7309,-4.7309,-4.6815,-4.6154,-4.5466,-4.5,-4.4438,-4.3509,-4.329,-4.329,-4.329,-4.329,-4.329,-4.329,-4.329,-4.329,-4.329,-4.329,-4.329,-4.329,-4.329,-4.329,-4.329,-4.329,-4.329,-4.329,-4.329,-4.329,-4.329,-4.329,-4.329,-4.3305,-4.3932,-4.4631,-4.5289,-4.5978,-4.6651,-4.7309,-4.7309,-4.7309,-4.7309,-4.7309,-4.7424,-2.2319,-2.3584,-2.4509,-2.4509,-2.4302,-2.3784,-2.2723,-2.1768,-2.09,-2.0128,-1.9796,-1.9903,-2.0818,-2.1338,-2.2306,-2.4443,-2.5797,0.0,0.0,0.0,0.0,0.0,0.0,0.0,0.0,0.0,0.0,0.0,0.0,0.0,0.0,0.0,-3.9308,-3.9308,-3.9614,-4.0083,-4.0675,-4.1651,-4.2557,-4.3394,-4.4026,-4.4409,-4.4668,-4.4668,0.0,0.0,0.0,0.0,0.0,-4.4668,-4.4668,-4.4668,-4.4668,-4.4487,-4.4121,-4.3938,-4.3428,-4.2709,-4.2407,-4.2367,-4.2444,-4.2649,-4.3369,-4.4256,-4.4986,-4.5866,-4.6683,-4.7179,-4.7309,-4.7204,-4.6756,-4.6127,-4.5439,-4.4802,-4.4163,-4.3643,-4.3349,-4.329,-4.329,-4.329,-4.329,-4.329,-4.329,-4.329,-4.329,-4.329,-4.329,-4.329,-4.329,-4.329,-4.329,-4.329,-4.329,-4.329,-4.329,-4.329,-4.329,-4.329,-4.329,-4.329,-4.329,-4.3917,-4.4631,-4.5289,-4.5978,-4.6651,-4.7309,-4.7309,-4.7309,-4.7309,-4.7309,-4.7337,-2.1062,-2.2238,-2.3143,-2.3318,-2.3091,-2.2656,-2.1963,-2.1186,-2.0477,-1.9986,-1.9857,-2.0126,-2.0976,-2.1654,-2.2724,-2.4631,-2.6013,0.0,0.0,0.0,0.0,0.0,0.0,0.0,0.0,0.0,0.0,0.0,0.0,0.0,0.0,0.0,-3.9308,-3.9308,-3.9496,-3.9896,-4.0513,-4.1308,-4.2219,-4.324,-4.3874,-4.4367,-4.4668,0.0,0.0,0.0,0.0,0.0,0.0,-4.4668,-4.4604,-4.4408,-4.4408,-4.4055,-4.3533,-4.331,-4.2826,-4.2185,-4.1925,-4.19,-4.198,-4.24,-4.3273,-4.4317,-4.5032,-4.5941,-4.6756,-4.7077,-4.7028,-4.6845,-4.6384,-4.5618,-4.4825,-4.4407,-4.3768,-4.329,-4.329,-4.329,-4.329,-4.329,-4.329,-4.329,-4.329,-4.329,-4.329,-4.329,-4.329,-4.329,-4.329,-4.329,-4.329,-4.329,-4.329,-4.329,-4.329,-4.329,-4.329,-4.329,-4.329,-4.329,-4.329,-4.3678,-4.4377,-4.5274,-4.5723,-4.6396,-4.7309,-4.7309,-4.7309,-4.7309,-4.7309,-4.7309,0.0,-2.1032,-2.1818,-2.2242,-2.1704,-2.1176,-2.1569,-2.0715,0.0,-1.9933,-2.016,-2.0535,-2.1191,-2.2212,-2.3462,-2.4916,-2.6377,0.0,0.0,0.0,0.0,0.0,0.0,0.0,0.0,0.0,0.0,0.0,0.0,0.0,0.0,0.0,0.0,-3.9308,-3.9308,-3.9591,-4.0176,-4.0803,-4.172,-4.2974,-4.3611,-4.4161,-4.4668,0.0,0.0,0.0,0.0,0.0,0.0,-4.467,-4.433,-4.382,-4.382,-4.3467,-4.2892,-4.2356,-4.2185,-4.2081,-4.1494,-4.1461,-4.1796,-4.2351,-4.3321,-4.4443,-4.5141,-4.6003,-4.677,-4.6813,-4.6526,-4.6204,-4.6145,-4.5244,-4.4302,-4.4257,-4.3738,-4.329,-4.329,-4.329,-4.329,-4.329,-4.329,-4.329,-4.329,-4.329,-4.329,-4.329,-4.329,-4.329,-4.329,-4.329,-4.329,-4.329,-4.329,-4.329,-4.329,-4.329,-4.329,-4.329,-4.329,-4.329,-4.329,-4.329,-4.3943,-4.5274,-4.5394,-4.6052,-4.7309,-4.7309,-4.7309,-4.7309,-4.7309,-4.7309,-1.8413,0.0,-2.0772,-2.0886,-2.0741,-2.0524,0.0,-2.0101,-1.9881,-1.9515,-2.0029,-2.0707,-2.118,-2.2212,-2.3616,-2.5442,0.0,0.0,0.0,0.0,0.0,0.0,0.0,0.0,0.0,0.0,0.0,0.0,0.0,0.0,0.0,0.0,0.0,-3.9308,-3.9308,-3.9485,-3.9908,-4.0699,-4.1606,-4.2638,-4.35,-4.4161,-4.4668,-4.4668,0.0,0.0,0.0,0.0,-4.4081,-4.4081,-4.3742,-4.3219,-4.3219,-4.2866,-4.2356,-4.2264,-4.1886,-4.1494,-4.1363,-4.1461,-4.1796,-4.2533,-4.3101,-4.3531,-4.3881,-4.4635,-4.5478,-4.6031,-4.5771,-4.523,-4.4874,-4.4556,-4.4182,-4.3648,-4.3409,-4.329,-4.329,-4.329,-4.329,-4.329,-4.329,-4.329,-4.329,-4.329,-4.329,-4.329,-4.329,-4.329,-4.329,-4.329,-4.329,-4.329,-4.329,-4.329,-4.329,-4.329,-4.329,-4.329,-4.329,-4.329,-4.329,-4.329,-4.3943,-4.5274,-4.6307,-4.6995,-4.7309,-4.7309,-4.7309,-4.7309,-4.7309,-4.7309,-1.7684,-1.8949,-2.0163,-2.0354,-2.0385,-2.042,-2.0496,-2.0425,-2.0309,-2.0239,-2.0764,-2.1412,-2.197,-2.306,-2.4332,0.0,0.0,0.0,0.0,0.0,0.0,0.0,0.0,0.0,0.0,0.0,0.0,0.0,0.0,0.0,0.0,0.0,0.0,0.0,-3.8608,-3.9012,-3.9802,-4.0641,-4.1549,-4.2525,-4.3444,-4.4161,-4.4668,-4.446,0.0,0.0,0.0,0.0,-4.348,-4.348,-4.3141,-4.2631,-4.2631,-4.2278,-4.1781,-4.1781,-4.1585,-4.1311,-4.1311,-4.1461,-4.1756,-4.1883,-4.2261,-4.2678,-4.2727,-4.3017,-4.3631,-4.4876,-4.4877,-4.4492,-4.4325,-4.4092,-4.3738,-4.3379,-4.329,-4.329,-4.329,-4.329,-4.329,-4.329,-4.329,-4.329,-4.329,-4.329,-4.329,-4.329,-4.329,-4.329,-4.329,-4.329,-4.329,-4.329,-4.329,-4.329,-4.329,-4.329,-4.329,-4.329,-4.329,-4.329,-4.329,-4.329,-4.3943,-4.5274,-4.6322,-4.6995,-4.7309,-4.7309,-4.7309,-4.7309,-4.7309,-4.7309,-1.7451,-1.8703,-1.9959,-2.024,-2.0369,-2.0596,-2.1172,-2.1024,-2.0892,-2.1231,-2.1757,-2.2327,-2.2888,-2.4112,0.0,0.0,0.0,0.0,0.0,0.0,0.0,0.0,0.0,0.0,0.0,0.0,0.0,0.0,0.0,0.0,0.0,0.0,0.0,0.0,-3.7826,-3.8321,-3.95,-4.0346,-4.125,-4.2152,-4.3123,-4.3836,-4.4394,-4.3964,0.0,0.0,0.0,0.0,-4.2892,-4.2892,-4.2552,-4.2081,-4.2081,-4.1742,-4.1311,-4.1311,-4.1311,-4.1311,-4.1206,-4.1317,-4.141,-4.0843,-4.1141,-4.17,-4.1571,-4.1532,-4.1831,-4.3401,-4.3831,-4.3816,-4.4046,-4.3708,-4.329,-4.329,-4.329,-4.329,-4.329,-4.329,-4.329,-4.329,-4.329,-4.329,-4.329,-4.329,-4.329,-4.329,-4.329,-4.329,-4.329,-4.329,-4.329,-4.329,-4.329,-4.329,-4.329,-4.329,-4.329,-4.329,-4.329,-4.329,-4.329,-4.3394,-4.4062,-4.5274,-4.5978,-4.6651,-4.7309,-4.7309,-4.7309,-4.7309,-4.7309,-4.7309,-1.7595,-1.898,-2.0242,-1.9951,-2.0281,-2.068,-2.0799,-2.1027,-2.1231,-2.1277,-2.2136,-2.2877,-2.299,-2.4701,-2.6299,0.0,0.0,0.0,0.0,0.0,0.0,0.0,0.0,0.0,0.0,0.0,0.0,0.0,0.0,0.0,0.0,0.0,0.0,0.0,0.0,-3.7918,-3.8079,-3.8974,-3.9746,-4.0422,-4.1593,-4.2385,-4.2943,-4.3075,-4.3154,0.0,0.0,-4.2748,-4.2291,-4.2291,-4.1964,-4.1442,-4.1442,-4.1389,-4.1311,-4.1311,-4.1311,-4.1246,-4.0736,-4.0553,-4.0559,-4.0237,-4.0208,-4.0326,-4.0421,-4.0707,-4.1121,-4.1668,-4.2239,-4.2728,-4.3104,-4.3245,-4.329,-4.329,-4.329,-4.329,-4.329,-4.329,-4.329,-4.329,-4.329,-4.329,-4.329,-4.329,-4.329,-4.329,-4.329,-4.329,-4.329,-4.329,-4.329,-4.329,-4.329,-4.329,-4.329,-4.329,-4.329,-4.329,-4.329,-4.329,-4.329,-4.3828,-4.4526,-4.5274,-4.5978,-4.6651,-4.7309,-4.7309,-4.7309,-4.7309,-4.7309,-4.7309,-1.7637,-1.9008,-2.0446,-2.0652,-2.1288,-2.1976,-2.2493,-2.2746,-2.2907,-2.3004,-2.3465,-2.4001,0.0,0.0,-2.6976,-2.8604,0.0,0.0,0.0,0.0,0.0,0.0,0.0,0.0,0.0,0.0,0.0,0.0,0.0,0.0,0.0,0.0,0.0,0.0,0.0,-3.6966,-3.6966,-3.7672,-3.8668,-4.0001,-4.1222,-4.2076,-4.2618,-4.2593,-4.2565,-4.2539,0.0,-4.1951,-4.1703,-4.1703,-4.1546,-4.1311,-4.1311,-4.1311,-4.1272,-4.0945,-4.0644,-4.0357,-4.0069,-3.9978,-3.9886,-3.9441,-3.9412,-3.9494,-3.9358,-3.9667,-4.0134,-4.0672,-4.1479,-4.2295,-4.2875,-4.3076,-4.3155,-4.325,-4.329,-4.329,-4.329,-4.329,-4.329,-4.329,-4.329,-4.329,-4.329,-4.329,-4.329,-4.329,-4.329,-4.329,-4.329,-4.329,-4.329,-4.329,-4.329,-4.329,-4.329,-4.329,-4.329,-4.329,-4.329,-4.329,-4.329,-4.3589,-4.4092,-4.4751,-4.5424,-4.6097,-4.677,-4.713,-4.7309,-4.7309,-4.7309,-4.7309,-1.7616,-1.9068,-2.0653,-2.1529,-2.2319,-2.3076,-2.4018,-2.4331,-2.4498,-2.4679,-2.4905,0.0,0.0,-2.692,0.0,0.0,0.0,0.0,0.0,0.0,0.0,0.0,0.0,0.0,0.0,0.0,0.0,0.0,0.0,0.0,0.0,0.0,0.0,0.0,0.0,-3.632,-3.632,-3.6754,-3.7802,-3.9473,-4.062,-4.1522,-4.2008,-4.1943,-4.1913,-4.1938,-4.1507,-4.1311,-4.1311,-4.1311,-4.1232,-4.1102,-4.1102,-4.1023,-4.0867,-4.0396,-3.9965,-3.9586,-3.9455,-3.9403,-3.9298,-3.871,-3.8667,-3.8787,-3.8554,-3.8814,-3.9292,-3.9954,-4.0816,-4.1771,-4.2537,-4.286,-4.3036,-4.321,-4.325,-4.329,-4.329,-4.329,-4.329,-4.329,-4.329,-4.329,-4.329,-4.329,-4.329,-4.329,-4.329,-4.329,-4.329,-4.329,-4.329,-4.329,-4.329,-4.329,-4.329,-4.329,-4.329,-4.329,-4.329,-4.329,-4.329,-4.329,-4.3604,-4.4302,-4.4811,-4.5484,-4.6279,-4.683,-4.716,-4.7309,-4.7309,-4.7309,-1.7637,-1.9164,-2.0946,-2.2147,-2.2754,-2.3271,-2.4018,-2.4672,-2.5201,-2.5404,-2.6174,-2.6901,0.0,-2.8202,0.0,0.0,0.0,0.0,0.0,0.0,0.0,0.0,0.0,0.0,0.0,0.0,0.0,0.0,0.0,0.0,0.0,0.0,0.0,0.0,0.0,-3.632,-3.632,-3.6592,-3.7071,-3.781,-3.8911,-3.9746,-4.03,-4.0758,-4.1112,-4.1376,-4.1337,-4.1311,-4.1311,-4.1311,-4.0984,-4.0474,-4.0474,-4.0174,-3.973,-3.9677,-3.9638,-3.9534,-3.8972,-3.8776,-3.8684,-3.8135,-3.7965,-3.7998,-3.8181,-3.8453,-3.8769,-3.9486,-4.0041,-4.0688,-4.1771,-4.2511,-4.2981,-4.3036,-4.3155,-4.329,-4.329,-4.329,-4.329,-4.329,-4.329,-4.329,-4.329,-4.329,-4.329,-4.329,-4.329,-4.329,-4.329,-4.329,-4.329,-4.329,-4.329,-4.329,-4.329,-4.329,-4.329,-4.329,-4.329,-4.329,-4.329,-4.329,-4.3604,-4.4302,-4.4362,-4.502,-4.6279,-4.6324,-4.6711,-4.7309,-4.7309,-4.7309,-1.7853,-1.9353,-2.1172,-2.2328,-2.3208,-2.4107,-2.5391,-2.5897,-2.6211,-2.6762,-2.7159,-2.7632,0.0,0.0,0.0,0.0,0.0,0.0,0.0,0.0,0.0,0.0,0.0,0.0,0.0,0.0,0.0,0.0,0.0,0.0,0.0,0.0,0.0,0.0,0.0,-3.5384,-3.5352,-3.5617,-3.5853,-3.6139,-3.7883,-3.9154,-3.9839,-4.0224,-4.0349,-4.0329,-4.0428,-4.032,-3.9995,-4.0155,-4.0122,-3.9913,-3.9913,-3.956,-3.905,-3.905,-3.8841,-3.8514,-3.8292,-3.8214,-3.8174,-3.7965,-3.79,-3.79,-3.7979,-3.8181,-3.844,-3.8845,-3.9397,-4.0128,-4.1325,-4.1993,-4.243,-4.2754,-4.2955,-4.3155,-4.325,-4.329,-4.329,-4.329,-4.329,-4.329,-4.329,-4.329,-4.329,-4.329,-4.329,-4.329,-4.329,-4.329,-4.329,-4.329,-4.329,-4.329,-4.329,-4.329,-4.329,-4.329,-4.329,-4.329,-4.329,-4.329,-4.3409,-4.3663,-4.4107,-4.4571,-4.508,-4.5484,-4.6037,-4.6696,-4.6696,-4.692,-1.8375,-1.9869,-2.1574,-2.2665,-2.3848,-2.5117,-2.6605,-2.6943,-2.7162,-2.7911,-2.8266,-2.8689,-2.9385,0.0,0.0,0.0,0.0,0.0,0.0,0.0,0.0,0.0,0.0,0.0,0.0,0.0,0.0,0.0,0.0,0.0,0.0,0.0,0.0,0.0,0.0,0.0,-3.4818,-3.4976,-3.5126,-3.523,-3.6664,-3.7858,-3.8697,-3.9043,-3.9133,-3.9079,-3.9376,-3.9306,-3.8994,-3.9358,-3.9399,-3.9311,-3.9141,-3.8815,-3.8462,-3.8462,-3.8227,-3.79,-3.79,-3.79,-3.79,-3.79,-3.79,-3.79,-3.79,-3.8024,-3.8181,-3.8408,-3.889,-3.9486,-4.0473,-4.1283,-4.1924,-4.2281,-4.2592,-4.2875,-4.317,-4.321,-4.321,-4.329,-4.329,-4.329,-4.329,-4.329,-4.329,-4.329,-4.329,-4.329,-4.329,-4.329,-4.329,-4.329,-4.329,-4.329,-4.329,-4.329,-4.329,-4.329,-4.329,-4.329,-4.329,-4.329,-4.329,-4.329,-4.3738,-4.4107,-4.4317,-4.4766,-4.5334,-4.5992,-4.5992,-4.6352,-1.9286,-2.079,-2.2254,-2.3248,-2.4715,-2.6242,-2.7436,-2.7701,-2.7933,-2.8645,-2.9568,-3.0216,-3.0216,-3.0216,0.0,0.0,0.0,0.0,0.0,0.0,0.0,0.0,0.0,0.0,0.0,0.0,0.0,0.0,0.0,0.0,0.0,0.0,0.0,0.0,0.0,0.0,-3.4773,-3.4786,-3.493,-3.5207,-3.5207,-3.562,-3.65,-3.7068,-3.7456,-3.773,-3.8249,-3.8507,-3.8494,-3.8981,-3.8982,-3.8645,-3.8109,-3.79,-3.79,-3.79,-3.79,-3.79,-3.79,-3.79,-3.79,-3.79,-3.79,-3.79,-3.79,-3.79,-3.7933,-3.8122,-3.8395,-3.8679,-3.9158,-4.0343,-4.1423,-4.166,-4.2049,-4.25,-4.2915,-4.2996,-4.3076,-4.325,-4.329,-4.329,-4.329,-4.329,-4.329,-4.329,-4.329,-4.329,-4.329,-4.329,-4.329,-4.329,-4.329,-4.329,-4.329,-4.329,-4.329,-4.329,-4.329,-4.329,-4.329,-4.329,-4.329,-4.329,-4.329,-4.3618,-4.4302,-4.4302,-4.4646,-4.5289,-4.5289,-4.5663,-1.9544,-2.0971,-2.2509,-2.3863,-2.5209,-2.6519,-2.7878,-2.8187,-2.8466,0.0,-2.9909,-3.0216,-3.0216,0.0,0.0,0.0,0.0,0.0,0.0,0.0,0.0,0.0,0.0,0.0,0.0,0.0,0.0,0.0,0.0,0.0,0.0,0.0,0.0,0.0,0.0,0.0,-3.3738,-3.3745,-3.3779,-3.3869,-3.3869,-3.4696,-3.6219,-3.6372,-3.637,-3.6244,-3.6776,-3.6798,-3.6547,-3.7371,-3.7753,-3.7878,-3.7873,-3.79,-3.79,-3.79,-3.79,-3.79,-3.79,-3.79,-3.79,-3.79,-3.79,-3.79,-3.79,-3.7599,-3.7273,-3.735,-3.7227,-3.7237,-3.7838,-3.8613,-3.9603,-4.0887,-4.159,-4.2034,-4.247,-4.2673,-4.285,-4.3036,-4.3076,-4.3115,-4.329,-4.329,-4.329,-4.329,-4.329,-4.329,-4.329,-4.329,-4.329,-4.329,-4.329,-4.329,-4.329,-4.329,-4.329,-4.329,-4.329,-4.329,-4.329,-4.329,-4.329,-4.329,-4.329,-4.3394,-4.3589,-4.3589,-4.3958,-4.4601,-4.4601,-4.496,-2.0233,-2.1691,-2.3187,-2.4443,-2.5829,-2.7266,-2.8757,-2.9048,-2.9229,0.0,-3.0273,-3.0397,-3.0499,0.0,0.0,0.0,0.0,0.0,0.0,0.0,0.0,0.0,0.0,0.0,0.0,0.0,0.0,0.0,0.0,0.0,0.0,0.0,0.0,0.0,0.0,0.0,-3.2726,-3.2894,-3.2978,-3.2978,-3.3197,-3.3904,-3.5004,-3.5105,-3.5029,-3.4871,-3.5379,-3.5588,-3.5667,-3.6392,-3.6922,-3.7366,-3.7657,-3.7808,-3.79,-3.79,-3.79,-3.79,-3.79,-3.79,-3.7861,-3.7625,-3.7547,-3.7495,-3.726,-3.6933,-3.6645,-3.6645,-3.6506,-3.6477,-3.6906,-3.7325,-3.8125,-3.9977,-4.0802,-4.1252,-4.1558,-4.1703,-4.188,-4.2315,-4.2356,-4.2524,-4.3086,-4.317,-4.321,-4.329,-4.329,-4.329,-4.329,-4.329,-4.329,-4.329,-4.329,-4.329,-4.329,-4.329,-4.329,-4.329,-4.329,-4.329,-4.329,-4.329,-4.329,-4.329,-4.329,-4.329,-4.329,-4.329,-4.3499,-4.3888,-4.3888,-4.4272,-2.1126,-2.257,-2.3919,-2.5048,-2.662,-2.8321,-2.9874,-3.0102,-3.0102,-3.0578,0.0,-3.0769,0.0,0.0,0.0,0.0,0.0,0.0,0.0,0.0,0.0,0.0,0.0,0.0,0.0,0.0,0.0,0.0,0.0,0.0,0.0,0.0,0.0,0.0,0.0,0.0,-3.1783,-3.2221,-3.2422,0.0,-3.2905,-3.3162,-3.3178,-3.3496,-3.3656,-3.3659,-3.4032,-3.4619,-3.5376,-3.5674,-3.6194,-3.6862,-3.7191,-3.7481,-3.7697,-3.7723,-3.7723,-3.7723,-3.7723,-3.7743,-3.7671,-3.7121,-3.6907,-3.6828,-3.6266,-3.607,-3.6031,-3.6031,-3.5973,-3.6002,-3.6323,-3.6404,-3.6916,-3.8851,-3.969,-4.0125,-4.0224,-4.0244,-4.0449,-4.1091,-4.1255,-4.1565,-4.2594,-4.2817,-4.2897,-4.311,-4.317,-4.32,-4.32,-4.326,-4.329,-4.329,-4.329,-4.329,-4.329,-4.329,-4.329,-4.329,-4.329,-4.329,-4.329,-4.329,-4.329,-4.329,-4.329,-4.329,-4.329,-4.329,-4.329,-4.329,-4.329,-4.3618,-2.083,-2.2309,-2.3835,-2.5795,-2.7859,-2.9614,-3.0351,-3.0487,-3.0578,-3.1026,-3.1172,0.0,0.0,0.0,0.0,0.0,0.0,0.0,0.0,0.0,0.0,0.0,0.0,0.0,0.0,0.0,0.0,0.0,0.0,0.0,0.0,0.0,0.0,0.0,0.0,-3.1787,-3.1791,-3.1926,-3.1968,0.0,-3.2073,-3.2104,-3.2131,-3.2994,-3.325,-3.3066,-3.2707,-3.2913,-3.3526,-3.4005,-3.4514,-3.5031,-3.5656,-3.6071,-3.6261,-3.643,-3.6495,-3.6495,-3.6495,-3.6496,-3.6459,-3.6328,-3.6306,-3.6279,-3.6136,-3.5809,-3.5469,-3.5469,-3.5126,-3.4904,-3.5417,-3.5654,-3.6029,-3.6954,-3.7813,-3.8534,-3.8905,-3.9102,-3.9347,-3.9811,-4.0054,-4.0336,-4.093,-4.1287,-4.1588,-4.1765,-4.2276,-4.2605,-4.2605,-4.3015,-4.329,-4.329,-4.329,-4.329,-4.329,-4.329,-4.329,-4.329,-4.329,-4.329,-4.329,-4.329,-4.329,-4.329,-4.329,-4.329,-4.329,-4.329,-4.329,-4.329,-4.329,-4.3364,-2.0764,-2.2475,-2.4374,-2.6832,0.0,-2.9704,-3.0429,-3.0724,-3.0949,-3.1516,0.0,0.0,0.0,0.0,0.0,0.0,0.0,0.0,0.0,0.0,0.0,0.0,0.0,0.0,0.0,0.0,0.0,0.0,0.0,0.0,0.0,0.0,0.0,0.0,-3.1008,-3.1019,-3.1019,-3.1273,-3.1414,-3.1435,-3.167,-3.181,-3.1805,-3.2314,-3.2494,-3.2374,-3.2108,-3.217,-3.2536,-3.2957,-3.3482,-3.4121,-3.4752,-3.5258,-3.5699,-3.5862,-3.6007,-3.6118,-3.6121,-3.6092,-3.6074,-3.5824,-3.5725,-3.5665,-3.5378,-3.509,-3.4868,-3.4868,-3.4633,-3.4463,-3.4789,-3.4945,-3.5154,-3.5595,-3.6572,-3.7445,-3.7469,-3.7643,-3.7928,-3.8354,-3.8691,-3.9164,-3.9888,-4.0471,-4.0926,-4.1194,-4.1569,-4.1816,-4.1893,-4.2192,-4.2402,-4.2402,-4.2402,-4.2402,-4.2402,-4.2402,-4.2402,-4.2402,-4.2402,-4.2536,-4.2865,-4.2865,-4.3015,-4.329,-4.329,-4.329,-4.329,-4.329,-4.329,-4.329,-4.329,-4.329,-2.0506,-2.2672,-2.5121,-2.7572,-2.8671,0.0,-3.0256,-3.0711,-3.1139,0.0,0.0,0.0,0.0,0.0,0.0,0.0,0.0,0.0,0.0,0.0,0.0,0.0,0.0,0.0,0.0,0.0,0.0,0.0,0.0,0.0,0.0,0.0,-3.0216,-3.0216,-3.0216,-3.0216,-3.0216,-3.0638,-3.0855,-3.0855,-3.1291,-3.1517,-3.1502,-3.1479,-3.1512,-3.1672,-3.1559,-3.1632,-3.1797,-3.2043,-3.2593,-3.3353,-3.3868,-3.4502,-3.5136,-3.5378,-3.5587,-3.5759,-3.58,-3.5809,-3.573,-3.5286,-3.5142,-3.5051,-3.4554,-3.4397,-3.4397,-3.4397,-3.4397,-3.4397,-3.4397,-3.4397,-3.4481,-3.4675,-3.5625,-3.6416,-3.6171,-3.6225,-3.6483,-3.6919,-3.7446,-3.8093,-3.8999,-3.9613,-4.0149,-4.0601,-4.0742,-4.0916,-4.1129,-4.1272,-4.1346,-4.1422,-4.1422,-4.1422,-4.1422,-4.1422,-4.1422,-4.1422,-4.1422,-4.1662,-4.2201,-4.2231,-4.2447,-4.2946,-4.3185,-4.329,-4.329,-4.329,-4.329,-4.329,-4.329,-4.329,-1.9298,0.0,-2.5821,0.0,-2.8428,-2.9548,0.0,0.0,-3.0847,0.0,0.0,0.0,0.0,0.0,0.0,0.0,0.0,0.0,0.0,0.0,0.0,0.0,0.0,0.0,0.0,0.0,0.0,0.0,0.0,0.0,0.0,-3.0216,-3.0216,-3.0216,-3.0216,-3.0216,-3.0216,-3.0284,-3.0296,-3.0296,-3.0364,-3.0422,-3.0422,-3.0422,-3.0639,-3.1063,-3.0605,-3.0422,-3.0468,-3.0731,-3.1144,-3.1683,-3.2386,-3.2978,-3.3472,-3.4109,-3.4351,-3.4396,-3.4578,-3.462,-3.462,-3.4541,-3.4515,-3.4502,-3.4424,-3.4397,-3.4397,-3.4397,-3.4397,-3.4397,-3.4397,-3.4397,-3.4397,-3.4439,-3.4616,-3.4835,-3.518,-3.5261,-3.5411,-3.5832,-3.6434,-3.7094,-3.7723,-3.7944,-3.8174,-3.8741,-3.9323,-3.9841,-4.0241,-4.0761,-4.1209,-4.1384,-4.1422,-4.1422,-4.1422,-4.1422,-4.1422,-4.1422,-4.1422,-4.1452,-4.1542,-4.1504,-4.1587,-4.1639,-4.2761,-4.329,-4.329,-4.329,-4.329,-4.329,-4.329,-4.329,-2.0178,-2.2571,-2.4783,0.0,-2.7518,-2.8367,-2.9037,0.0,0.0,0.0,0.0,0.0,0.0,0.0,0.0,0.0,0.0,0.0,0.0,0.0,0.0,0.0,0.0,0.0,0.0,0.0,0.0,0.0,0.0,0.0,-3.0216,-3.0216,-3.0216,-3.0216,-3.0068,0.0,-3.0034,-2.9863,-2.9806,-2.9806,-2.9806,-2.9806,-2.9806,-2.9954,-3.0205,-3.0524,-3.0285,-3.0216,-3.0216,-3.0352,-3.0581,-3.0946,-3.1567,-3.2152,-3.2802,-3.3458,-3.3878,-3.4118,-3.4314,-3.4397,-3.4397,-3.4397,-3.4397,-3.4397,-3.4397,-3.4397,-3.4397,-3.4397,-3.4397,-3.4397,-3.4397,-3.4397,-3.4397,-3.4397,-3.4397,-3.4439,-3.4647,-3.481,-3.503,-3.544,-3.5871,-3.631,-3.6794,-3.7095,-3.7419,-3.7915,-3.8449,-3.8888,-3.9164,-3.9654,-4.0018,-4.0114,-4.0203,-4.0277,-4.0277,-4.0277,-4.0277,-4.0277,-4.0277,-4.0442,-4.0816,-4.0831,-4.101,-4.1407,-4.1938,-4.2237,-4.2237,-4.2237,-4.2432,-4.2791,-4.2791,-4.2985,0.0,0.0,-2.3442,-2.5256,-2.6278,-2.7064,0.0,0.0,0.0,0.0,0.0,0.0,0.0,0.0,0.0,0.0,0.0,0.0,0.0,0.0,0.0,0.0,0.0,0.0,0.0,0.0,0.0,0.0,0.0,0.0,-3.0216,-3.0216,-3.0216,-3.0216,-2.9988,-2.9874,-2.9874,-2.9646,-2.9497,-2.9508,-2.951,-2.9511,-2.951,-2.9715,-2.992,-3.0147,-3.0159,-3.0216,-3.0216,-3.0216,-3.0364,-3.0626,-3.1055,-3.1637,-3.2309,-3.2963,-3.3526,-3.3949,-3.423,-3.4356,-3.4397,-3.4397,-3.4397,-3.4397,-3.4397,-3.4397,-3.4397,-3.4397,-3.4397,-3.4397,-3.4397,-3.4397,-3.4397,-3.4397,-3.4397,-3.4397,-3.4397,-3.4618,-3.488,-3.5195,-3.5399,-3.5669,-3.6084,-3.6455,-3.6822,-3.7303,-3.7672,-3.7976,-3.8254,-3.8612,-3.8922,-3.9017,-3.9177,-3.9337,-3.9388,-3.9388,-3.9388,-3.9388,-3.9388,-3.9634,-4.0127,-4.0157,-4.0382,-4.0876,-4.0876,-4.1055,-4.1422,-4.1422,-4.1677,-4.2156,-4.2156,-4.2372,0.0,-2.0504,0.0,-2.3293,-2.4668,0.0,0.0,0.0,0.0,0.0,0.0,0.0,0.0,0.0,0.0,0.0,0.0,0.0,0.0,0.0,0.0,0.0,0.0,0.0,0.0,0.0,0.0,0.0,0.0,0.0,-3.0216,-3.0216,-3.0216,-3.0216,-3.0011,-2.9897,-2.9897,-2.9634,-2.9519,-2.9483,-2.9508,-2.9507,-2.9513,-2.9513,-2.9678,-2.9943,-3.0102,-3.0216,-3.0216,-3.0216,-3.0364,-3.0638,-3.0832,-3.1258,-3.1825,-3.2494,-3.3013,-3.3484,-3.3949,-3.4243,-3.4397,-3.4397,-3.4397,-3.4397,-3.4397,-3.4397,-3.4397,-3.4397,-3.4397,-3.4397,-3.4397,-3.4397,-3.4397,-3.4397,-3.4397,-3.4397,-3.4397,-3.4618,-3.4797,-3.4839,-3.5003,-3.5277,-3.5669,-3.575,-3.5991,-3.6665,-3.694,-3.7211,-3.7625,-3.7991,-3.8389,-3.8782,-3.898,-3.9177,-3.9388,-3.9388,-3.9388,-3.9388,-3.9388,-3.9439,-3.9433,-3.9433,-3.9484,-3.9514,-3.9514,-4.0127,-4.1422,-4.1422,-4.1437,-4.1467,-4.1467,-4.1444,0.0,0.0,0.0,-2.202,-2.3121,-2.412,0.0,0.0,0.0,0.0,0.0,0.0,0.0,0.0,0.0,0.0,0.0,0.0,0.0,0.0,0.0,0.0,0.0,0.0,0.0,0.0,0.0,0.0,0.0,0.0,-2.9757,-3.0055,-3.0136,-3.0011,-2.9783,-2.9405,-2.8954,-2.8861,-2.8721,-2.8535,-2.8555,-2.8648,-2.8803,-2.8951,-2.929,-2.967,-2.9886,-3.0079,-3.0216,-3.0216,-3.0284,-3.0364,-3.0626,-3.1013,-3.1544,-3.2223,-3.2878,-3.3458,-3.3937,-3.4243,-3.4397,-3.4397,-3.4397,-3.4397,-3.4397,-3.4397,-3.4397,-3.4397,-3.4397,-3.4397,-3.4397,-3.4397,-3.4397,-3.4397,-3.4397,-3.4397,-3.4397,-3.4481,-3.4535,-3.4535,-3.4743,-3.4962,-3.5086,-3.544,-3.579,-3.6031,-3.6508,-3.69,-3.7187,-3.7572,-3.7991,-3.8389,-3.8723,-3.898,-3.9177,-3.9337,-3.9388,-3.9388,-3.9388,-3.9388,-3.9388,-3.9388,-3.9388,-3.9388,-3.9388,-3.9649,-4.0127,-4.0127,-4.0337,-4.0756,-4.0756,-4.098,-1.7014,0.0,0.0,0.0,0.0,-2.2558,0.0,0.0,0.0,0.0,0.0,0.0,0.0,0.0,0.0,0.0,0.0,0.0,0.0,0.0,0.0,0.0,0.0,0.0,0.0,0.0,0.0,0.0,0.0,0.0,-2.9108,-2.9417,-2.9454,-2.9162,-2.8913,-2.8582,-2.8147,-2.8018,-2.7906,-2.7857,-2.7881,-2.7953,-2.8147,-2.8505,-2.8901,-2.9283,-2.9613,-2.9943,-3.0216,-3.0216,-3.0216,-3.0227,-3.0421,-3.0729,-3.1149,-3.1902,-3.2593,-3.3237,-3.3797,-3.4147,-3.4397,-3.4397,-3.4397,-3.4397,-3.4397,-3.4397,-3.4397,-3.4397,-3.4397,-3.4397,-3.4397,-3.4397,-3.4397,-3.4397,-3.4397,-3.4397,-3.4397,-3.4397,-3.4397,-3.4397,-3.4535,-3.4714,-3.4797,-3.5127,-3.544,-3.548,-3.5991,-3.6429,-3.6547,-3.6978,-3.7457,-3.7863,-3.8277,-3.8612,-3.8885,-3.9141,-3.9301,-3.9301,-3.9337,-3.9388,-3.9388,-3.9388,-3.9388,-3.9388,-3.9388,-3.9388,-3.9388,-3.9388,-3.9649,-4.0068,-4.0068,-4.0307,0.0,0.0,0.0,0.0,0.0,0.0,0.0,0.0,0.0,0.0,0.0,0.0,0.0,0.0,0.0,0.0,0.0,0.0,0.0,0.0,0.0,0.0,0.0,0.0,0.0,0.0,0.0,0.0,0.0,-2.8603,-2.8366,-2.8389,-2.8182,-2.7701,-2.7481,-2.7466,-2.7651,-2.7101,-2.7102,-2.7494,-2.7521,-2.751,-2.7558,-2.8125,-2.8519,-2.8817,-2.9272,-2.975,-3.017,-3.0216,-3.0216,-3.017,-3.0216,-3.0362,-3.0664,-3.1415,-3.2127,-3.2802,-3.3475,-3.4008,-3.4397,-3.4397,-3.4397,-3.4397,-3.4397,-3.4397,-3.4397,-3.4397,-3.4397,-3.4397,-3.4397,-3.4397,-3.4397,-3.4397,-3.4397,-3.4397,-3.4397,-3.4397,-3.4397,-3.4397,-3.4397,-3.4481,-3.4756,-3.4797,-3.488,-3.5044,-3.544,-3.5669,-3.571,-3.627,-3.6822,-3.7226,-3.7634,-3.8052,-3.8441,-3.8848,-3.9104,-3.9104,-3.9265,-3.9388,-3.9388,-3.9388,-3.9388,-3.9388,-3.9388,-3.9388,-3.9388,-3.9388,-3.9388,-3.9388,-3.9388,-3.9388,-1.6056,0.0,0.0,0.0,0.0,0.0,0.0,0.0,0.0,0.0,0.0,0.0,0.0,0.0,0.0,0.0,0.0,0.0,0.0,0.0,0.0,0.0,0.0,0.0,0.0,0.0,0.0,0.0,0.0,-2.8088,-2.7822,-2.7882,-2.7789,-2.7481,-2.705,-2.6702,-2.6389,-2.5925,-2.5676,-2.5643,-2.5645,-2.5835,-2.6177,-2.7014,-2.7708,-2.8327,-2.8965,-2.9383,-2.9715,-3.008,-3.0114,-2.9988,-3.0148,-3.025,-3.0407,-3.1122,-3.1872,-3.2568,-3.3233,-3.3804,-3.4202,-3.4356,-3.4397,-3.4397,-3.4397,-3.4397,-3.4397,-3.4397,-3.4397,-3.4397,-3.4397,-3.4397,-3.4397,-3.4397,-3.4397,-3.4397,-3.4397,-3.4397,-3.4397,-3.4397,-3.4397,-3.4439,-3.4494,-3.4673,-3.4797,-3.488,-3.5086,-3.5358,-3.5669,-3.5871,-3.6191,-3.6783,-3.7211,-3.7634,-3.8037,-3.8427,-3.8775,-3.9068,-3.9141,-3.9265,-3.9388,-3.9388,-3.9388,-3.9388,-3.9388,-3.9388,-3.9388,-3.9388,-3.9388,-3.9388,-3.9388,-3.9388,-1.6095,-1.6565,0.0,0.0,0.0,0.0,0.0,0.0,0.0,0.0,0.0,0.0,0.0,0.0,0.0,0.0,0.0,0.0,0.0,0.0,0.0,0.0,0.0,0.0,0.0,0.0,0.0,0.0,-2.7626,-2.7531,-2.7186,-2.6958,-2.6736,-2.6466,-2.5921,-2.5511,-2.5317,-2.4731,-2.4477,-2.4582,-2.456,-2.4785,-2.5191,-2.6038,-2.676,-2.7396,-2.8094,-2.8508,-2.8813,-2.9376,-2.9659,-2.9736,-2.9863,-2.9966,-3.017,-3.0765,-3.144,-3.2172,-3.2867,-3.3496,-3.3979,-3.4189,-3.4314,-3.4397,-3.4397,-3.4397,-3.4397,-3.4397,-3.4397,-3.4397,-3.4397,-3.4397,-3.4397,-3.4397,-3.4397,-3.4397,-3.4397,-3.4397,-3.4397,-3.4397,-3.4397,-3.4397,-3.4397,-3.4535,-3.4618,-3.4618,-3.4839,-3.5044,-3.5277,-3.5399,-3.5669,-3.623,-3.6587,-3.6978,-3.7467,-3.7901,-3.8292,-3.8686,-3.8811,-3.8995,-3.9265,-3.9265,-3.9301,-3.9388,-3.9388,-3.9388,-3.9388,-3.9388,-3.9388,-3.9388,-3.9388,-3.9388,-1.6118,-1.6505,-1.6902,0.0,0.0,0.0,-1.8418,-1.9149,0.0,0.0,0.0,0.0,0.0,0.0,0.0,0.0,0.0,0.0,0.0,0.0,0.0,0.0,0.0,0.0,0.0,0.0,0.0,-2.7023,-2.699,-2.6849,-2.6532,-2.5883,-2.5422,-2.5168,-2.4509,-2.4219,-2.435,-2.3611,-2.3453,-2.3873,-2.3873,-2.4011,-2.4343,-2.5113,-2.5768,-2.6272,-2.705,-2.747,-2.7734,-2.8344,-2.8936,-2.9407,-2.9463,-2.9635,-2.9852,-3.0384,-3.0965,-3.1612,-3.2346,-3.3054,-3.3641,-3.3949,-3.4202,-3.4356,-3.4314,-3.4356,-3.4356,-3.4314,-3.4356,-3.4356,-3.4356,-3.4397,-3.4397,-3.4397,-3.4397,-3.4397,-3.4397,-3.4397,-3.4397,-3.4397,-3.4397,-3.4397,-3.4397,-3.4397,-3.4397,-3.4397,-3.4577,-3.4769,-3.4797,-3.4962,-3.5195,-3.5602,-3.5831,-3.623,-3.6822,-3.7264,-3.7687,-3.8089,-3.8292,-3.859,-3.9031,-3.9068,-3.9141,-3.9337,-3.9388,-3.9388,-3.9388,-3.9388,-3.9388,-3.9388,-3.9388,-3.9388,-1.7148,-1.7186,-1.7363,-1.7379,0.0,0.0,0.0,-1.8345,0.0,0.0,0.0,0.0,0.0,0.0,0.0,0.0,0.0,0.0,0.0,0.0,0.0,0.0,0.0,0.0,0.0,0.0,-2.665,-2.6255,-2.5769,-2.5654,-2.5938,-2.5306,-2.4967,-2.4966,-2.4249,-2.3707,-2.3384,-2.2698,-2.2389,-2.2473,-2.2473,-2.2732,-2.3187,-2.4222,-2.5105,-2.5809,-2.6711,-2.7183,-2.737,-2.7546,-2.801,-2.8665,-2.9283,-2.9417,-2.9349,-3.0011,-3.051,-3.0906,-3.1821,-3.2488,-3.297,-3.3398,-3.3823,-3.4118,-3.3882,-3.3979,-3.4118,-3.3894,-3.3979,-3.416,-3.416,-3.4272,-3.4397,-3.4397,-3.4397,-3.4397,-3.4397,-3.4397,-3.4397,-3.4397,-3.4397,-3.4397,-3.4397,-3.4397,-3.4397,-3.4397,-3.4439,-3.4577,-3.4756,-3.4839,-3.4962,-3.5195,-3.5562,-3.5871,-3.6151,-3.6626,-3.7109,-3.7687,-3.7763,-3.8028,-3.859,-3.876,-3.8943,-3.9141,-3.9301,-3.9388,-3.9388,-3.9388,-3.9388,-3.9388,-3.9388,-3.9388,-1.8024,-1.8064,-1.8027,-1.7796,0.0,0.0,0.0,0.0,0.0,0.0,0.0,0.0,0.0,0.0,0.0,0.0,0.0,0.0,0.0,0.0,0.0,0.0,0.0,0.0,0.0,0.0,-2.5728,-2.585,-2.5369,-2.5147,-2.53,-2.4577,-2.4023,-2.3708,-2.3006,-2.2448,-2.2031,-2.1764,-2.1561,-2.1438,-2.1649,-2.1919,-2.2274,-2.3084,-2.3889,-2.4751,-2.5459,-2.6,-2.6455,-2.6693,-2.7075,-2.7547,-2.8165,-2.8397,-2.8451,-2.8823,-2.9207,-2.962,-3.0304,-3.0937,-3.1534,-3.2359,-3.2967,-3.3409,-3.3636,-3.381,-3.3852,-3.3755,-3.381,-3.3937,-3.4076,-3.416,-3.4272,-3.4397,-3.4397,-3.4397,-3.4397,-3.4397,-3.4397,-3.4397,-3.4397,-3.4397,-3.4397,-3.4397,-3.4397,-3.4397,-3.4397,-3.4439,-3.4577,-3.4577,-3.4701,-3.4921,-3.5127,-3.5358,-3.5669,-3.5991,-3.6429,-3.6925,-3.7095,-3.7404,-3.8028,-3.8225,-3.8612,-3.9104,-3.9177,-3.9301,-3.9388,-3.9388,-3.9388,-3.9388,-3.9388,-3.9388,0.0,0.0,0.0,0.0,0.0,-1.7879,0.0,0.0,0.0,-1.7451,0.0,0.0,0.0,0.0,0.0,0.0,0.0,0.0,0.0,0.0,0.0,0.0,0.0,0.0,0.0,0.0,-2.4596,-2.5092,-2.4814,-2.4625,-2.4503,-2.3788,-2.3084,-2.2532,-2.1865,-2.1297,-2.0899,-2.0927,-2.0825,-2.067,-2.096,-2.1247,-2.1533,-2.201,-2.2751,-2.3701,-2.4229,-2.4828,-2.5507,-2.5937,-2.6185,-2.6411,-2.7009,-2.7369,-2.7555,-2.7553,-2.7833,-2.8248,-2.875,-2.9366,-3.011,-3.1178,-3.1884,-3.2444,-3.3139,-3.3308,-3.3266,-3.3266,-3.3308,-3.3405,-3.3669,-3.3752,-3.3835,-3.4029,-3.4071,-3.4071,-3.4071,-3.4071,-3.4071,-3.4071,-3.4071,-3.4136,-3.4358,-3.4397,-3.4397,-3.4397,-3.4397,-3.4397,-3.4397,-3.4397,-3.4481,-3.4714,-3.4756,-3.4921,-3.5277,-3.548,-3.575,-3.611,-3.6375,-3.6744,-3.7327,-3.7696,-3.8225,-3.8958,-3.9017,-3.9141,-3.9337,-3.9337,-3.9337,-3.9388,-3.9388,-3.9388,0.0,0.0,0.0,0.0,-1.801,0.0,0.0,0.0,-1.7306,-1.7334,0.0,0.0,0.0,0.0,0.0,0.0,0.0,0.0,0.0,0.0,0.0,0.0,0.0,0.0,0.0,0.0,0.0,-2.3048,-2.3053,-2.3195,-2.3463,-2.3107,-2.2779,-2.2525,-2.1855,-2.1297,-2.0899,-2.0492,-2.0307,-2.0265,-2.013,-2.037,-2.0929,-2.1407,-2.2193,-2.3226,-2.394,-2.4509,-2.4999,-2.5222,-2.5328,-2.5456,-2.6605,-2.7072,-2.7095,-2.7071,-2.726,-2.7575,-2.8064,-2.8775,-2.9525,-2.9923,-3.0577,-3.1347,-3.1861,-3.1833,-3.1656,-3.1656,-3.1833,-3.2049,-3.2265,-3.2467,-3.2655,-3.2842,-3.2881,-3.2881,-3.2881,-3.2881,-3.2881,-3.2881,-3.2881,-3.3208,-3.4228,-3.4397,-3.4397,-3.4397,-3.4397,-3.4397,-3.4397,-3.4397,-3.4397,-3.4439,-3.4673,-3.4797,-3.4839,-3.5044,-3.5277,-3.5467,-3.571,-3.6017,-3.6427,-3.7376,-3.8127,-3.8553,-3.8723,-3.8943,-3.9141,-3.9141,-3.9228,-3.9388,-3.9388,-3.9388,0.0,0.0,0.0,0.0,0.0,0.0,-1.7187,0.0,-1.7043,0.0,0.0,0.0,0.0,0.0,0.0,0.0,0.0,0.0,0.0,0.0,0.0,0.0,0.0,0.0,0.0,0.0,0.0,0.0,0.0,-2.2236,-2.2797,-2.2296,-2.1928,-2.1742,-2.1115,-2.0543,-1.9977,-1.988,-1.9716,-1.9433,-1.9611,-1.9796,-2.0041,-2.0522,-2.1202,-2.2044,-2.302,-2.3778,-2.4357,-2.483,-2.5073,-2.5232,-2.5636,-2.5861,-2.5969,-2.5947,-2.6023,-2.6202,-2.6644,-2.7209,-2.7916,-2.9095,-3.0248,-3.1124,-3.1329,-3.1399,-3.1386,-3.1386,-3.148,-3.1602,-3.1858,-3.1979,-3.21,-3.2287,-3.2367,-3.2367,-3.2367,-3.2367,-3.2407,-3.25,-3.254,-3.2696,-3.3326,-3.3404,-3.3404,-3.3404,-3.3705,-3.3927,-3.3927,-3.4201,-3.4397,-3.4397,-3.4481,-3.4577,-3.4577,-3.4797,-3.4962,-3.5044,-3.548,-3.5831,-3.6097,-3.6808,-3.7443,-3.7953,-3.8066,-3.8315,-3.8738,-3.887,-3.9017,-3.9228,-3.9337,-3.9388,-1.9769,0.0,0.0,0.0,0.0,0.0,0.0,0.0,0.0,0.0,0.0,0.0,0.0,0.0,0.0,0.0,0.0,0.0,0.0,0.0,0.0,0.0,0.0,0.0,0.0,0.0,0.0,0.0,0.0,0.0,-2.1835,-2.1547,-2.1271,-2.1003,-2.0557,-1.9981,-1.939,-1.9362,-1.9181,-1.8871,-1.9009,-1.9158,-1.9253,-1.9736,-2.0336,-2.1076,-2.2168,-2.2944,-2.3546,-2.4179,-2.4535,-2.465,-2.4493,-2.4525,-2.4682,-2.4925,-2.5062,-2.5179,-2.5571,-2.6104,-2.6884,-2.8497,-2.9626,-3.0392,-3.0514,-3.0705,-3.0854,-3.0854,-3.0906,-3.1027,-3.128,-3.132,-3.14,-3.1586,-3.1612,-3.1612,-3.1612,-3.1612,-3.1665,-3.1836,-3.1836,-3.1914,-3.2111,-3.245,-3.2685,-3.2685,-3.3064,-3.3352,-3.3352,-3.3835,-3.4175,-3.4175,-3.4306,-3.4332,-3.4188,-3.4354,-3.4411,-3.4322,-3.4861,-3.5345,-3.5665,-3.6227,-3.6783,-3.7341,-3.7457,-3.7763,-3.8254,-3.8501,-3.8723,-3.8958,-3.9265,-3.9388,0.0,0.0,0.0,-1.8455,0.0,0.0,0.0,0.0,-1.6818,0.0,0.0,0.0,0.0,0.0,-1.6658,-1.6228,0.0,0.0,0.0,0.0,0.0,0.0,0.0,0.0,0.0,0.0,0.0,0.0,0.0,0.0,-2.0183,-2.094,-2.113,-2.0536,-2.0372,-2.0069,-1.9606,-1.9029,-1.8718,-1.8718,-1.8276,-1.8263,-1.8647,-1.9112,-1.9781,-2.0563,-2.1524,-2.2164,-2.2584,-2.3063,-2.3276,-2.3266,-2.3276,-2.3278,-2.3371,-2.4206,-2.4711,-2.4924,-2.5147,-2.597,-2.7056,-2.795,-2.8375,-2.8638,-2.9062,-2.9285,-2.9468,-2.9468,-2.9649,-2.9919,-3.01,-3.0164,-3.0203,-3.042,-3.0458,-3.0458,-3.0458,-3.0458,-3.0458,-3.0458,-3.0458,-3.0534,-3.075,-3.185,-3.2685,-3.2685,-3.2712,-3.2725,-3.2725,-3.3247,-3.3626,-3.3626,-3.4084,-3.4188,-3.3666,-3.3613,-3.3486,-3.308,-3.3595,-3.4246,-3.4894,-3.565,-3.623,-3.6705,-3.7109,-3.7419,-3.7625,-3.8014,-3.8315,-3.8516,-3.9119,-3.9388,0.0,0.0,-1.9196,-1.829,0.0,0.0,0.0,0.0,0.0,0.0,0.0,0.0,0.0,0.0,-1.6658,-1.618,-1.5839,0.0,0.0,0.0,0.0,0.0,0.0,0.0,0.0,0.0,0.0,0.0,0.0,0.0,0.0,-2.0226,-2.0484,-2.1079,-2.0544,-2.0101,-1.9784,-1.9201,-1.8763,-1.8482,-1.8161,-1.8059,-1.8228,-1.8684,-1.9192,-1.9764,-2.0926,-2.1708,-2.2161,-2.2898,-2.3184,-2.3184,-2.3184,-2.3195,-2.3217,-2.3546,-2.3712,-2.3903,-2.4698,-2.5622,-2.6539,-2.7126,-2.7644,-2.8115,-2.8407,-2.8724,-2.9067,-2.9341,-2.947,-2.9599,-2.9856,-2.9895,-2.9934,-2.9972,-3.0011,-3.0011,-3.0011,-3.0011,-3.0049,-3.019,-3.019,-3.0267,-3.0457,-3.1008,-3.1421,-3.1561,-3.1888,-3.2084,-3.2084,-3.2633,-3.2999,-3.2999,-3.3156,-3.3195,-3.3012,-3.2999,-3.2947,-3.2817,-3.312,-3.3423,-3.3646,-3.4043,-3.4426,-3.4699,-3.497,-3.5277,-3.5619,-3.6145,-3.6515,-3.6721,-3.73,-3.813,-1.9241,-1.9241,0.0,0.0,-1.8051,0.0,-1.6819,0.0,0.0,0.0,0.0,0.0,0.0,0.0,0.0,-1.5806,-1.5474,0.0,0.0,0.0,0.0,0.0,0.0,0.0,0.0,0.0,-1.6758,-1.7241,0.0,0.0,0.0,0.0,-1.9991,-2.0864,-2.0303,-1.995,-1.9908,-1.9178,-1.8748,-1.8603,-1.8201,-1.8,-1.804,-1.8491,-1.8922,-1.935,-2.0494,-2.1253,-2.1697,-2.2415,-2.2697,-2.2697,-2.2697,-2.2697,-2.2739,-2.3092,-2.3262,-2.3425,-2.416,-2.4951,-2.5647,-2.6024,-2.6662,-2.7312,-2.7603,-2.8144,-2.8685,-2.9067,-2.9165,-2.9171,-2.9401,-2.934,-2.9239,-2.944,-2.9478,-2.9541,-2.9741,-2.9792,-2.983,-2.9972,-2.9972,-3.0049,-3.0254,-3.0381,-3.0584,-3.0836,-3.1262,-3.1535,-3.1535,-3.2032,-3.2385,-3.2385,-3.2568,-3.2607,-3.2411,-3.2202,-3.2084,-3.2084,-3.2397,-3.262,-3.2697,-3.3052,-3.3366,-3.3613,-3.3792,-3.4061,-3.4403,-3.4929,-3.5286,-3.5492,-3.5928,-3.6758]}]]